<?xml version="1.0" encoding="UTF-8" standalone="no" ?>
<gpx xmlns="http://www.topografix.com/GPX/1/1" xmlns:xsi="http://www.w3.org/2001/XMLSchema-instance" xsi:schemaLocation="http://www.topografix.com/GPX/1/1 http://www.topografix.com/GPX/1/1/gpx.xsd" version="1.1" creator="VisuGPX - https://www.visugpx.com">
  <metadata>
    <name>Santenoge (Combe Larron) 7 Km</name>
  </metadata>
  <trk>
    <name><![CDATA[Santenoge (Combe Larron)]]></name>
    <trkseg>
      <trkpt lat="47.73963" lon="4.99259">
        <ele>364.88</ele>
        <time>2022-06-02T07:00:19Z</time>
      </trkpt>
      <trkpt lat="47.73964" lon="4.99255">
        <ele>364.83</ele>
        <time>2022-06-02T07:00:25Z</time>
      </trkpt>
      <trkpt lat="47.73966" lon="4.99251">
        <ele>364.8</ele>
        <time>2022-06-02T07:00:28Z</time>
      </trkpt>
      <trkpt lat="47.73965" lon="4.99247">
        <ele>364.52</ele>
        <time>2022-06-02T07:00:38Z</time>
      </trkpt>
      <trkpt lat="47.73963" lon="4.99245">
        <ele>364.31</ele>
        <time>2022-06-02T07:01:13Z</time>
      </trkpt>
      <trkpt lat="47.73961" lon="4.99241">
        <ele>363.95</ele>
        <time>2022-06-02T07:01:17Z</time>
      </trkpt>
      <trkpt lat="47.7396" lon="4.99245">
        <ele>364.2</ele>
        <time>2022-06-02T07:01:33Z</time>
      </trkpt>
      <trkpt lat="47.73957" lon="4.99245">
        <ele>364.09</ele>
        <time>2022-06-02T07:01:38Z</time>
      </trkpt>
      <trkpt lat="47.7396" lon="4.99242">
        <ele>363.98</ele>
        <time>2022-06-02T07:03:51Z</time>
      </trkpt>
      <trkpt lat="47.73961" lon="4.99238">
        <ele>363.73</ele>
        <time>2022-06-02T07:03:57Z</time>
      </trkpt>
      <trkpt lat="47.73958" lon="4.9924">
        <ele>363.77</ele>
        <time>2022-06-02T07:04:10Z</time>
      </trkpt>
      <trkpt lat="47.73958" lon="4.99246">
        <ele>364.2</ele>
        <time>2022-06-02T07:04:14Z</time>
      </trkpt>
      <trkpt lat="47.73959" lon="4.9925">
        <ele>364.52</ele>
        <time>2022-06-02T07:04:16Z</time>
      </trkpt>
      <trkpt lat="47.73958" lon="4.99254">
        <ele>364.56</ele>
        <time>2022-06-02T07:04:22Z</time>
      </trkpt>
      <trkpt lat="47.73958" lon="4.99258">
        <ele>364.63</ele>
        <time>2022-06-02T07:04:26Z</time>
      </trkpt>
      <trkpt lat="47.73958" lon="4.99262">
        <ele>364.7</ele>
        <time>2022-06-02T07:04:31Z</time>
      </trkpt>
      <trkpt lat="47.73958" lon="4.99267">
        <ele>364.79</ele>
        <time>2022-06-02T07:04:35Z</time>
      </trkpt>
      <trkpt lat="47.73957" lon="4.99271">
        <ele>364.79</ele>
        <time>2022-06-02T07:04:39Z</time>
      </trkpt>
      <trkpt lat="47.73956" lon="4.99275">
        <ele>364.79</ele>
        <time>2022-06-02T07:04:43Z</time>
      </trkpt>
      <trkpt lat="47.73956" lon="4.9928">
        <ele>364.85</ele>
        <time>2022-06-02T07:04:45Z</time>
      </trkpt>
      <trkpt lat="47.73954" lon="4.99283">
        <ele>364.75</ele>
        <time>2022-06-02T07:04:49Z</time>
      </trkpt>
      <trkpt lat="47.73953" lon="4.99287">
        <ele>364.74</ele>
        <time>2022-06-02T07:04:53Z</time>
      </trkpt>
      <trkpt lat="47.73954" lon="4.99291">
        <ele>364.84</ele>
        <time>2022-06-02T07:04:54Z</time>
      </trkpt>
      <trkpt lat="47.73955" lon="4.99295">
        <ele>364.91</ele>
        <time>2022-06-02T07:04:58Z</time>
      </trkpt>
      <trkpt lat="47.73954" lon="4.99299">
        <ele>364.93</ele>
        <time>2022-06-02T07:05:01Z</time>
      </trkpt>
      <trkpt lat="47.73954" lon="4.99303">
        <ele>364.97</ele>
        <time>2022-06-02T07:05:05Z</time>
      </trkpt>
      <trkpt lat="47.73955" lon="4.99308">
        <ele>364.91</ele>
        <time>2022-06-02T07:05:10Z</time>
      </trkpt>
      <trkpt lat="47.73956" lon="4.99313">
        <ele>364.73</ele>
        <time>2022-06-02T07:05:11Z</time>
      </trkpt>
      <trkpt lat="47.73955" lon="4.99316">
        <ele>364.62</ele>
        <time>2022-06-02T07:05:17Z</time>
      </trkpt>
      <trkpt lat="47.73954" lon="4.99322">
        <ele>364.41</ele>
        <time>2022-06-02T07:15:19Z</time>
      </trkpt>
      <trkpt lat="47.73953" lon="4.99326">
        <ele>364.26</ele>
        <time>2022-06-02T07:15:21Z</time>
      </trkpt>
      <trkpt lat="47.73951" lon="4.99328">
        <ele>364.19</ele>
        <time>2022-06-02T07:15:24Z</time>
      </trkpt>
      <trkpt lat="47.73948" lon="4.99331">
        <ele>364.08</ele>
        <time>2022-06-02T07:15:27Z</time>
      </trkpt>
      <trkpt lat="47.73945" lon="4.99334">
        <ele>363.98</ele>
        <time>2022-06-02T07:15:30Z</time>
      </trkpt>
      <trkpt lat="47.73943" lon="4.99337">
        <ele>364.02</ele>
        <time>2022-06-02T07:15:31Z</time>
      </trkpt>
      <trkpt lat="47.73941" lon="4.9934">
        <ele>364.13</ele>
        <time>2022-06-02T07:15:50Z</time>
      </trkpt>
      <trkpt lat="47.73939" lon="4.99343">
        <ele>364.24</ele>
        <time>2022-06-02T07:15:53Z</time>
      </trkpt>
      <trkpt lat="47.73937" lon="4.99347">
        <ele>364.31</ele>
        <time>2022-06-02T07:15:55Z</time>
      </trkpt>
      <trkpt lat="47.73935" lon="4.99351">
        <ele>364.38</ele>
        <time>2022-06-02T07:15:57Z</time>
      </trkpt>
      <trkpt lat="47.73933" lon="4.99355">
        <ele>364.46</ele>
        <time>2022-06-02T07:16:00Z</time>
      </trkpt>
      <trkpt lat="47.73932" lon="4.99359">
        <ele>364.42</ele>
        <time>2022-06-02T07:16:01Z</time>
      </trkpt>
      <trkpt lat="47.73931" lon="4.99363">
        <ele>364.59</ele>
        <time>2022-06-02T07:16:04Z</time>
      </trkpt>
      <trkpt lat="47.73931" lon="4.99368">
        <ele>364.95</ele>
        <time>2022-06-02T07:16:06Z</time>
      </trkpt>
      <trkpt lat="47.7393" lon="4.99373">
        <ele>365.42</ele>
        <time>2022-06-02T07:16:09Z</time>
      </trkpt>
      <trkpt lat="47.73927" lon="4.99377">
        <ele>366.03</ele>
        <time>2022-06-02T07:16:12Z</time>
      </trkpt>
      <trkpt lat="47.73924" lon="4.99377">
        <ele>366.35</ele>
        <time>2022-06-02T07:16:16Z</time>
      </trkpt>
      <trkpt lat="47.73921" lon="4.99375">
        <ele>366.53</ele>
        <time>2022-06-02T07:16:17Z</time>
      </trkpt>
      <trkpt lat="47.73918" lon="4.99372">
        <ele>366.64</ele>
        <time>2022-06-02T07:16:19Z</time>
      </trkpt>
      <trkpt lat="47.73916" lon="4.99369">
        <ele>366.59</ele>
        <time>2022-06-02T07:16:20Z</time>
      </trkpt>
      <trkpt lat="47.73913" lon="4.99367">
        <ele>366.56</ele>
        <time>2022-06-02T07:16:23Z</time>
      </trkpt>
      <trkpt lat="47.73911" lon="4.99364">
        <ele>366.41</ele>
        <time>2022-06-02T07:16:25Z</time>
      </trkpt>
      <trkpt lat="47.73908" lon="4.99363">
        <ele>366.45</ele>
        <time>2022-06-02T07:16:28Z</time>
      </trkpt>
      <trkpt lat="47.73905" lon="4.9936">
        <ele>366.44</ele>
        <time>2022-06-02T07:16:30Z</time>
      </trkpt>
      <trkpt lat="47.73904" lon="4.99357">
        <ele>366.54</ele>
        <time>2022-06-02T07:16:30Z</time>
      </trkpt>
      <trkpt lat="47.73901" lon="4.99353">
        <ele>366.69</ele>
        <time>2022-06-02T07:16:34Z</time>
      </trkpt>
      <trkpt lat="47.739" lon="4.9935">
        <ele>366.76</ele>
        <time>2022-06-02T07:16:36Z</time>
      </trkpt>
      <trkpt lat="47.73897" lon="4.99348">
        <ele>366.85</ele>
        <time>2022-06-02T07:16:37Z</time>
      </trkpt>
      <trkpt lat="47.73894" lon="4.99346">
        <ele>366.92</ele>
        <time>2022-06-02T07:16:40Z</time>
      </trkpt>
      <trkpt lat="47.73891" lon="4.99345">
        <ele>366.97</ele>
        <time>2022-06-02T07:16:43Z</time>
      </trkpt>
      <trkpt lat="47.73888" lon="4.99343">
        <ele>367.1</ele>
        <time>2022-06-02T07:16:47Z</time>
      </trkpt>
      <trkpt lat="47.73885" lon="4.99341">
        <ele>367.42</ele>
        <time>2022-06-02T07:16:49Z</time>
      </trkpt>
      <trkpt lat="47.73883" lon="4.9934">
        <ele>367.64</ele>
        <time>2022-06-02T07:16:51Z</time>
      </trkpt>
      <trkpt lat="47.73879" lon="4.9934">
        <ele>368.07</ele>
        <time>2022-06-02T07:16:54Z</time>
      </trkpt>
      <trkpt lat="47.73876" lon="4.99341">
        <ele>368.39</ele>
        <time>2022-06-02T07:16:59Z</time>
      </trkpt>
      <trkpt lat="47.73874" lon="4.99343">
        <ele>368.61</ele>
        <time>2022-06-02T07:17:02Z</time>
      </trkpt>
      <trkpt lat="47.73871" lon="4.99344">
        <ele>368.93</ele>
        <time>2022-06-02T07:17:05Z</time>
      </trkpt>
      <trkpt lat="47.73867" lon="4.99343">
        <ele>369.36</ele>
        <time>2022-06-02T07:17:08Z</time>
      </trkpt>
      <trkpt lat="47.73864" lon="4.99343">
        <ele>369.69</ele>
        <time>2022-06-02T07:17:09Z</time>
      </trkpt>
      <trkpt lat="47.73862" lon="4.99344">
        <ele>369.9</ele>
        <time>2022-06-02T07:17:12Z</time>
      </trkpt>
      <trkpt lat="47.73859" lon="4.99345">
        <ele>369.88</ele>
        <time>2022-06-02T07:17:15Z</time>
      </trkpt>
      <trkpt lat="47.73856" lon="4.99346">
        <ele>369.72</ele>
        <time>2022-06-02T07:17:19Z</time>
      </trkpt>
      <trkpt lat="47.73853" lon="4.99347">
        <ele>369.56</ele>
        <time>2022-06-02T07:17:20Z</time>
      </trkpt>
      <trkpt lat="47.7385" lon="4.99348">
        <ele>369.41</ele>
        <time>2022-06-02T07:17:24Z</time>
      </trkpt>
      <trkpt lat="47.73847" lon="4.99349">
        <ele>369.27</ele>
        <time>2022-06-02T07:17:25Z</time>
      </trkpt>
      <trkpt lat="47.73844" lon="4.9935">
        <ele>369.14</ele>
        <time>2022-06-02T07:17:29Z</time>
      </trkpt>
      <trkpt lat="47.73841" lon="4.99351">
        <ele>369.01</ele>
        <time>2022-06-02T07:17:30Z</time>
      </trkpt>
      <trkpt lat="47.73838" lon="4.99352">
        <ele>368.9</ele>
        <time>2022-06-02T07:17:33Z</time>
      </trkpt>
      <trkpt lat="47.73835" lon="4.99353">
        <ele>368.79</ele>
        <time>2022-06-02T07:17:36Z</time>
      </trkpt>
      <trkpt lat="47.73832" lon="4.99354">
        <ele>368.76</ele>
        <time>2022-06-02T07:17:37Z</time>
      </trkpt>
      <trkpt lat="47.7383" lon="4.99356">
        <ele>368.84</ele>
        <time>2022-06-02T07:17:40Z</time>
      </trkpt>
      <trkpt lat="47.73827" lon="4.99358">
        <ele>368.91</ele>
        <time>2022-06-02T07:17:44Z</time>
      </trkpt>
      <trkpt lat="47.73824" lon="4.9936">
        <ele>368.97</ele>
        <time>2022-06-02T07:17:47Z</time>
      </trkpt>
      <trkpt lat="47.73821" lon="4.99362">
        <ele>369.14</ele>
        <time>2022-06-02T07:17:50Z</time>
      </trkpt>
      <trkpt lat="47.73818" lon="4.99363">
        <ele>369.31</ele>
        <time>2022-06-02T07:17:54Z</time>
      </trkpt>
      <trkpt lat="47.73816" lon="4.99365">
        <ele>369.65</ele>
        <time>2022-06-02T07:17:59Z</time>
      </trkpt>
      <trkpt lat="47.73813" lon="4.99367">
        <ele>370</ele>
        <time>2022-06-02T07:18:04Z</time>
      </trkpt>
      <trkpt lat="47.73811" lon="4.99369">
        <ele>370.36</ele>
        <time>2022-06-02T07:18:06Z</time>
      </trkpt>
      <trkpt lat="47.73808" lon="4.9937">
        <ele>370.57</ele>
        <time>2022-06-02T07:18:12Z</time>
      </trkpt>
      <trkpt lat="47.73805" lon="4.99371">
        <ele>370.81</ele>
        <time>2022-06-02T07:18:18Z</time>
      </trkpt>
      <trkpt lat="47.73803" lon="4.99372">
        <ele>371.09</ele>
        <time>2022-06-02T07:18:22Z</time>
      </trkpt>
      <trkpt lat="47.738" lon="4.99373">
        <ele>371.4</ele>
        <time>2022-06-02T07:18:29Z</time>
      </trkpt>
      <trkpt lat="47.73797" lon="4.99373">
        <ele>371.54</ele>
        <time>2022-06-02T07:18:33Z</time>
      </trkpt>
      <trkpt lat="47.73794" lon="4.99374">
        <ele>371.8</ele>
        <time>2022-06-02T07:18:35Z</time>
      </trkpt>
      <trkpt lat="47.73792" lon="4.99375">
        <ele>371.99</ele>
        <time>2022-06-02T07:18:37Z</time>
      </trkpt>
      <trkpt lat="47.73788" lon="4.99376">
        <ele>372.22</ele>
        <time>2022-06-02T07:18:43Z</time>
      </trkpt>
      <trkpt lat="47.73786" lon="4.99377">
        <ele>372.36</ele>
        <time>2022-06-02T07:18:45Z</time>
      </trkpt>
      <trkpt lat="47.73783" lon="4.99378">
        <ele>372.5</ele>
        <time>2022-06-02T07:18:47Z</time>
      </trkpt>
      <trkpt lat="47.7378" lon="4.99379">
        <ele>372.61</ele>
        <time>2022-06-02T07:18:52Z</time>
      </trkpt>
      <trkpt lat="47.73777" lon="4.9938">
        <ele>372.7</ele>
        <time>2022-06-02T07:18:56Z</time>
      </trkpt>
      <trkpt lat="47.73774" lon="4.99381">
        <ele>372.81</ele>
        <time>2022-06-02T07:19:00Z</time>
      </trkpt>
      <trkpt lat="47.73771" lon="4.99382">
        <ele>372.94</ele>
        <time>2022-06-02T07:19:05Z</time>
      </trkpt>
      <trkpt lat="47.73768" lon="4.99383">
        <ele>373.07</ele>
        <time>2022-06-02T07:19:07Z</time>
      </trkpt>
      <trkpt lat="47.73765" lon="4.99383">
        <ele>373.15</ele>
        <time>2022-06-02T07:19:08Z</time>
      </trkpt>
      <trkpt lat="47.73763" lon="4.99384">
        <ele>373.26</ele>
        <time>2022-06-02T07:19:13Z</time>
      </trkpt>
      <trkpt lat="47.7376" lon="4.99385">
        <ele>373.41</ele>
        <time>2022-06-02T07:19:17Z</time>
      </trkpt>
      <trkpt lat="47.73757" lon="4.99386">
        <ele>373.57</ele>
        <time>2022-06-02T07:19:20Z</time>
      </trkpt>
      <trkpt lat="47.73753" lon="4.99386">
        <ele>373.7</ele>
        <time>2022-06-02T07:19:23Z</time>
      </trkpt>
      <trkpt lat="47.7375" lon="4.99387">
        <ele>373.86</ele>
        <time>2022-06-02T07:19:25Z</time>
      </trkpt>
      <trkpt lat="47.73747" lon="4.99387">
        <ele>373.96</ele>
        <time>2022-06-02T07:19:28Z</time>
      </trkpt>
      <trkpt lat="47.73744" lon="4.99388">
        <ele>374.15</ele>
        <time>2022-06-02T07:19:31Z</time>
      </trkpt>
      <trkpt lat="47.73741" lon="4.99389">
        <ele>374.34</ele>
        <time>2022-06-02T07:19:34Z</time>
      </trkpt>
      <trkpt lat="47.73738" lon="4.9939">
        <ele>374.55</ele>
        <time>2022-06-02T07:19:37Z</time>
      </trkpt>
      <trkpt lat="47.73736" lon="4.99391">
        <ele>374.73</ele>
        <time>2022-06-02T07:19:39Z</time>
      </trkpt>
      <trkpt lat="47.73733" lon="4.99392">
        <ele>374.95</ele>
        <time>2022-06-02T07:19:43Z</time>
      </trkpt>
      <trkpt lat="47.73731" lon="4.99394">
        <ele>375.24</ele>
        <time>2022-06-02T07:19:45Z</time>
      </trkpt>
      <trkpt lat="47.73728" lon="4.99396">
        <ele>375.56</ele>
        <time>2022-06-02T07:19:48Z</time>
      </trkpt>
      <trkpt lat="47.73725" lon="4.99398">
        <ele>375.88</ele>
        <time>2022-06-02T07:19:51Z</time>
      </trkpt>
      <trkpt lat="47.73722" lon="4.994">
        <ele>376.23</ele>
        <time>2022-06-02T07:19:55Z</time>
      </trkpt>
      <trkpt lat="47.7372" lon="4.99402">
        <ele>376.74</ele>
        <time>2022-06-02T07:19:56Z</time>
      </trkpt>
      <trkpt lat="47.73717" lon="4.99404">
        <ele>377.38</ele>
        <time>2022-06-02T07:20:00Z</time>
      </trkpt>
      <trkpt lat="47.73714" lon="4.99406">
        <ele>378.03</ele>
        <time>2022-06-02T07:20:04Z</time>
      </trkpt>
      <trkpt lat="47.73712" lon="4.99408">
        <ele>378.54</ele>
        <time>2022-06-02T07:20:07Z</time>
      </trkpt>
      <trkpt lat="47.73709" lon="4.99412">
        <ele>379.4</ele>
        <time>2022-06-02T07:20:12Z</time>
      </trkpt>
      <trkpt lat="47.73706" lon="4.99414">
        <ele>380.05</ele>
        <time>2022-06-02T07:20:13Z</time>
      </trkpt>
      <trkpt lat="47.73703" lon="4.99415">
        <ele>380.59</ele>
        <time>2022-06-02T07:20:17Z</time>
      </trkpt>
      <trkpt lat="47.737" lon="4.99417">
        <ele>381.24</ele>
        <time>2022-06-02T07:20:20Z</time>
      </trkpt>
      <trkpt lat="47.73698" lon="4.99419">
        <ele>381.76</ele>
        <time>2022-06-02T07:20:23Z</time>
      </trkpt>
      <trkpt lat="47.73695" lon="4.9942">
        <ele>382.28</ele>
        <time>2022-06-02T07:20:26Z</time>
      </trkpt>
      <trkpt lat="47.73692" lon="4.99422">
        <ele>382.48</ele>
        <time>2022-06-02T07:20:35Z</time>
      </trkpt>
      <trkpt lat="47.73689" lon="4.99423">
        <ele>382.52</ele>
        <time>2022-06-02T07:20:50Z</time>
      </trkpt>
      <trkpt lat="47.73686" lon="4.99425">
        <ele>382.75</ele>
        <time>2022-06-02T07:20:52Z</time>
      </trkpt>
      <trkpt lat="47.73683" lon="4.99426">
        <ele>382.88</ele>
        <time>2022-06-02T07:20:56Z</time>
      </trkpt>
      <trkpt lat="47.7368" lon="4.99428">
        <ele>383.24</ele>
        <time>2022-06-02T07:20:57Z</time>
      </trkpt>
      <trkpt lat="47.73677" lon="4.9943">
        <ele>383.69</ele>
        <time>2022-06-02T07:21:01Z</time>
      </trkpt>
      <trkpt lat="47.73675" lon="4.99432">
        <ele>384.19</ele>
        <time>2022-06-02T07:21:03Z</time>
      </trkpt>
      <trkpt lat="47.73672" lon="4.99434">
        <ele>384.78</ele>
        <time>2022-06-02T07:21:04Z</time>
      </trkpt>
      <trkpt lat="47.73669" lon="4.99435">
        <ele>385.17</ele>
        <time>2022-06-02T07:21:06Z</time>
      </trkpt>
      <trkpt lat="47.73667" lon="4.99437">
        <ele>385.84</ele>
        <time>2022-06-02T07:21:08Z</time>
      </trkpt>
      <trkpt lat="47.73663" lon="4.99438">
        <ele>386.44</ele>
        <time>2022-06-02T07:21:11Z</time>
      </trkpt>
      <trkpt lat="47.73661" lon="4.99439">
        <ele>386.88</ele>
        <time>2022-06-02T07:21:14Z</time>
      </trkpt>
      <trkpt lat="47.73657" lon="4.99441">
        <ele>387.75</ele>
        <time>2022-06-02T07:21:16Z</time>
      </trkpt>
      <trkpt lat="47.73654" lon="4.99442">
        <ele>388.25</ele>
        <time>2022-06-02T07:21:19Z</time>
      </trkpt>
      <trkpt lat="47.73651" lon="4.99444">
        <ele>389.01</ele>
        <time>2022-06-02T07:21:21Z</time>
      </trkpt>
      <trkpt lat="47.73648" lon="4.99446">
        <ele>389.53</ele>
        <time>2022-06-02T07:21:29Z</time>
      </trkpt>
      <trkpt lat="47.73646" lon="4.99449">
        <ele>390.02</ele>
        <time>2022-06-02T07:21:30Z</time>
      </trkpt>
      <trkpt lat="47.73644" lon="4.99452">
        <ele>390.5</ele>
        <time>2022-06-02T07:21:33Z</time>
      </trkpt>
      <trkpt lat="47.73642" lon="4.99456">
        <ele>391.07</ele>
        <time>2022-06-02T07:21:35Z</time>
      </trkpt>
      <trkpt lat="47.7364" lon="4.99458">
        <ele>391.4</ele>
        <time>2022-06-02T07:21:36Z</time>
      </trkpt>
      <trkpt lat="47.73637" lon="4.99461">
        <ele>391.61</ele>
        <time>2022-06-02T07:21:39Z</time>
      </trkpt>
      <trkpt lat="47.73635" lon="4.99465">
        <ele>391.84</ele>
        <time>2022-06-02T07:21:42Z</time>
      </trkpt>
      <trkpt lat="47.73633" lon="4.99468">
        <ele>391.94</ele>
        <time>2022-06-02T07:21:45Z</time>
      </trkpt>
      <trkpt lat="47.7363" lon="4.99471">
        <ele>391.92</ele>
        <time>2022-06-02T07:21:47Z</time>
      </trkpt>
      <trkpt lat="47.73628" lon="4.99475">
        <ele>392.12</ele>
        <time>2022-06-02T07:21:51Z</time>
      </trkpt>
      <trkpt lat="47.73626" lon="4.99479">
        <ele>392.42</ele>
        <time>2022-06-02T07:21:52Z</time>
      </trkpt>
      <trkpt lat="47.73625" lon="4.99483">
        <ele>392.86</ele>
        <time>2022-06-02T07:21:56Z</time>
      </trkpt>
      <trkpt lat="47.73623" lon="4.99488">
        <ele>393.48</ele>
        <time>2022-06-02T07:21:59Z</time>
      </trkpt>
      <trkpt lat="47.73622" lon="4.99492">
        <ele>394.05</ele>
        <time>2022-06-02T07:22:01Z</time>
      </trkpt>
      <trkpt lat="47.73621" lon="4.99497">
        <ele>394.83</ele>
        <time>2022-06-02T07:22:04Z</time>
      </trkpt>
      <trkpt lat="47.7362" lon="4.99501">
        <ele>395.5</ele>
        <time>2022-06-02T07:22:06Z</time>
      </trkpt>
      <trkpt lat="47.73618" lon="4.99504">
        <ele>396.04</ele>
        <time>2022-06-02T07:22:09Z</time>
      </trkpt>
      <trkpt lat="47.73617" lon="4.99508">
        <ele>396.62</ele>
        <time>2022-06-02T07:22:11Z</time>
      </trkpt>
      <trkpt lat="47.73617" lon="4.99513">
        <ele>397.28</ele>
        <time>2022-06-02T07:22:16Z</time>
      </trkpt>
      <trkpt lat="47.73615" lon="4.99518">
        <ele>397.94</ele>
        <time>2022-06-02T07:22:20Z</time>
      </trkpt>
      <trkpt lat="47.73615" lon="4.99522">
        <ele>398.43</ele>
        <time>2022-06-02T07:22:22Z</time>
      </trkpt>
      <trkpt lat="47.73614" lon="4.99526">
        <ele>398.89</ele>
        <time>2022-06-02T07:22:26Z</time>
      </trkpt>
      <trkpt lat="47.73613" lon="4.9953">
        <ele>399.46</ele>
        <time>2022-06-02T07:22:28Z</time>
      </trkpt>
      <trkpt lat="47.73612" lon="4.99534">
        <ele>400.14</ele>
        <time>2022-06-02T07:22:32Z</time>
      </trkpt>
      <trkpt lat="47.73612" lon="4.99538">
        <ele>400.85</ele>
        <time>2022-06-02T07:22:36Z</time>
      </trkpt>
      <trkpt lat="47.73611" lon="4.99542">
        <ele>401.55</ele>
        <time>2022-06-02T07:22:38Z</time>
      </trkpt>
      <trkpt lat="47.7361" lon="4.99546">
        <ele>402.2</ele>
        <time>2022-06-02T07:22:42Z</time>
      </trkpt>
      <trkpt lat="47.73609" lon="4.9955">
        <ele>402.85</ele>
        <time>2022-06-02T07:22:46Z</time>
      </trkpt>
      <trkpt lat="47.73608" lon="4.99555">
        <ele>403.68</ele>
        <time>2022-06-02T07:22:49Z</time>
      </trkpt>
      <trkpt lat="47.73607" lon="4.9956">
        <ele>404.42</ele>
        <time>2022-06-02T07:22:53Z</time>
      </trkpt>
      <trkpt lat="47.73606" lon="4.99564">
        <ele>405.02</ele>
        <time>2022-06-02T07:22:54Z</time>
      </trkpt>
      <trkpt lat="47.73606" lon="4.99568">
        <ele>405.67</ele>
        <time>2022-06-02T07:22:59Z</time>
      </trkpt>
      <trkpt lat="47.73605" lon="4.99573">
        <ele>406.49</ele>
        <time>2022-06-02T07:23:02Z</time>
      </trkpt>
      <trkpt lat="47.73605" lon="4.99578">
        <ele>407.33</ele>
        <time>2022-06-02T07:23:06Z</time>
      </trkpt>
      <trkpt lat="47.73604" lon="4.99582">
        <ele>408.03</ele>
        <time>2022-06-02T07:23:10Z</time>
      </trkpt>
      <trkpt lat="47.73603" lon="4.99586">
        <ele>408.48</ele>
        <time>2022-06-02T07:23:12Z</time>
      </trkpt>
      <trkpt lat="47.73602" lon="4.99591">
        <ele>408.88</ele>
        <time>2022-06-02T07:23:16Z</time>
      </trkpt>
      <trkpt lat="47.73601" lon="4.99595">
        <ele>409.2</ele>
        <time>2022-06-02T07:23:19Z</time>
      </trkpt>
      <trkpt lat="47.73601" lon="4.99599">
        <ele>409.49</ele>
        <time>2022-06-02T07:23:23Z</time>
      </trkpt>
      <trkpt lat="47.736" lon="4.99603">
        <ele>409.82</ele>
        <time>2022-06-02T07:23:25Z</time>
      </trkpt>
      <trkpt lat="47.736" lon="4.99607">
        <ele>410.1</ele>
        <time>2022-06-02T07:23:30Z</time>
      </trkpt>
      <trkpt lat="47.73599" lon="4.99612">
        <ele>410.54</ele>
        <time>2022-06-02T07:23:33Z</time>
      </trkpt>
      <trkpt lat="47.73598" lon="4.99616">
        <ele>411.07</ele>
        <time>2022-06-02T07:23:36Z</time>
      </trkpt>
      <trkpt lat="47.73598" lon="4.9962">
        <ele>411.57</ele>
        <time>2022-06-02T07:23:40Z</time>
      </trkpt>
      <trkpt lat="47.73598" lon="4.99625">
        <ele>412.18</ele>
        <time>2022-06-02T07:23:44Z</time>
      </trkpt>
      <trkpt lat="47.73597" lon="4.99629">
        <ele>412.78</ele>
        <time>2022-06-02T07:23:47Z</time>
      </trkpt>
      <trkpt lat="47.73596" lon="4.99633">
        <ele>413.41</ele>
        <time>2022-06-02T07:23:49Z</time>
      </trkpt>
      <trkpt lat="47.73596" lon="4.99637">
        <ele>413.93</ele>
        <time>2022-06-02T07:23:54Z</time>
      </trkpt>
      <trkpt lat="47.73595" lon="4.99642">
        <ele>415.01</ele>
        <time>2022-06-02T07:23:57Z</time>
      </trkpt>
      <trkpt lat="47.73595" lon="4.99646">
        <ele>415.9</ele>
        <time>2022-06-02T07:24:01Z</time>
      </trkpt>
      <trkpt lat="47.73595" lon="4.9965">
        <ele>416.78</ele>
        <time>2022-06-02T07:24:05Z</time>
      </trkpt>
      <trkpt lat="47.73594" lon="4.99655">
        <ele>418.08</ele>
        <time>2022-06-02T07:24:09Z</time>
      </trkpt>
      <trkpt lat="47.73593" lon="4.99659">
        <ele>419.17</ele>
        <time>2022-06-02T07:24:11Z</time>
      </trkpt>
      <trkpt lat="47.73592" lon="4.99663">
        <ele>420.29</ele>
        <time>2022-06-02T07:24:16Z</time>
      </trkpt>
      <trkpt lat="47.73591" lon="4.99667">
        <ele>421.38</ele>
        <time>2022-06-02T07:24:18Z</time>
      </trkpt>
      <trkpt lat="47.7359" lon="4.99671">
        <ele>422.07</ele>
        <time>2022-06-02T07:24:22Z</time>
      </trkpt>
      <trkpt lat="47.73589" lon="4.99675">
        <ele>422.74</ele>
        <time>2022-06-02T07:24:27Z</time>
      </trkpt>
      <trkpt lat="47.73588" lon="4.99679">
        <ele>423.4</ele>
        <time>2022-06-02T07:24:31Z</time>
      </trkpt>
      <trkpt lat="47.73588" lon="4.99683">
        <ele>423.85</ele>
        <time>2022-06-02T07:24:35Z</time>
      </trkpt>
      <trkpt lat="47.73587" lon="4.99687">
        <ele>424.5</ele>
        <time>2022-06-02T07:24:39Z</time>
      </trkpt>
      <trkpt lat="47.73585" lon="4.99692">
        <ele>425.43</ele>
        <time>2022-06-02T07:24:43Z</time>
      </trkpt>
      <trkpt lat="47.73585" lon="4.99697">
        <ele>425.53</ele>
        <time>2022-06-02T07:24:47Z</time>
      </trkpt>
      <trkpt lat="47.73584" lon="4.99701">
        <ele>425.42</ele>
        <time>2022-06-02T07:24:50Z</time>
      </trkpt>
      <trkpt lat="47.73583" lon="4.99705">
        <ele>425.28</ele>
        <time>2022-06-02T07:24:56Z</time>
      </trkpt>
      <trkpt lat="47.73582" lon="4.99709">
        <ele>425.09</ele>
        <time>2022-06-02T07:25:00Z</time>
      </trkpt>
      <trkpt lat="47.73581" lon="4.99713">
        <ele>424.86</ele>
        <time>2022-06-02T07:25:05Z</time>
      </trkpt>
      <trkpt lat="47.73578" lon="4.99714">
        <ele>425.01</ele>
        <time>2022-06-02T07:25:10Z</time>
      </trkpt>
      <trkpt lat="47.73576" lon="4.99716">
        <ele>424.95</ele>
        <time>2022-06-02T07:25:25Z</time>
      </trkpt>
      <trkpt lat="47.73573" lon="4.99715">
        <ele>425.28</ele>
        <time>2022-06-02T07:25:58Z</time>
      </trkpt>
      <trkpt lat="47.73576" lon="4.99714">
        <ele>425.17</ele>
        <time>2022-06-02T07:26:39Z</time>
      </trkpt>
      <trkpt lat="47.73575" lon="4.9971">
        <ele>425.71</ele>
        <time>2022-06-02T07:26:56Z</time>
      </trkpt>
      <trkpt lat="47.73575" lon="4.99714">
        <ele>425.25</ele>
        <time>2022-06-02T07:27:16Z</time>
      </trkpt>
      <trkpt lat="47.73571" lon="4.99716">
        <ele>425.29</ele>
        <time>2022-06-02T07:27:27Z</time>
      </trkpt>
      <trkpt lat="47.73566" lon="4.99717">
        <ele>425.47</ele>
        <time>2022-06-02T07:27:30Z</time>
      </trkpt>
      <trkpt lat="47.73574" lon="4.99717">
        <ele>424.96</ele>
        <time>2022-06-02T07:27:33Z</time>
      </trkpt>
      <trkpt lat="47.73573" lon="4.99713">
        <ele>425.53</ele>
        <time>2022-06-02T07:27:39Z</time>
      </trkpt>
      <trkpt lat="47.73571" lon="4.99709">
        <ele>426.24</ele>
        <time>2022-06-02T07:27:44Z</time>
      </trkpt>
      <trkpt lat="47.73568" lon="4.99704">
        <ele>427.31</ele>
        <time>2022-06-02T07:27:47Z</time>
      </trkpt>
      <trkpt lat="47.73566" lon="4.99701">
        <ele>428.06</ele>
        <time>2022-06-02T07:27:49Z</time>
      </trkpt>
      <trkpt lat="47.73563" lon="4.99698">
        <ele>429.03</ele>
        <time>2022-06-02T07:27:51Z</time>
      </trkpt>
      <trkpt lat="47.7356" lon="4.99696">
        <ele>429.9</ele>
        <time>2022-06-02T07:27:53Z</time>
      </trkpt>
      <trkpt lat="47.73558" lon="4.99694">
        <ele>430.47</ele>
        <time>2022-06-02T07:27:58Z</time>
      </trkpt>
      <trkpt lat="47.73557" lon="4.9969">
        <ele>429.8</ele>
        <time>2022-06-02T07:28:02Z</time>
      </trkpt>
      <trkpt lat="47.73555" lon="4.99687">
        <ele>429.38</ele>
        <time>2022-06-02T07:28:07Z</time>
      </trkpt>
      <trkpt lat="47.73553" lon="4.99684">
        <ele>428.72</ele>
        <time>2022-06-02T07:28:11Z</time>
      </trkpt>
      <trkpt lat="47.7355" lon="4.99682">
        <ele>428.29</ele>
        <time>2022-06-02T07:28:17Z</time>
      </trkpt>
      <trkpt lat="47.73548" lon="4.9968">
        <ele>427.89</ele>
        <time>2022-06-02T07:28:20Z</time>
      </trkpt>
      <trkpt lat="47.73545" lon="4.99678">
        <ele>427.52</ele>
        <time>2022-06-02T07:28:22Z</time>
      </trkpt>
      <trkpt lat="47.73542" lon="4.99677">
        <ele>427.36</ele>
        <time>2022-06-02T07:28:27Z</time>
      </trkpt>
      <trkpt lat="47.7354" lon="4.99675">
        <ele>427.02</ele>
        <time>2022-06-02T07:28:31Z</time>
      </trkpt>
      <trkpt lat="47.73538" lon="4.99673">
        <ele>426.71</ele>
        <time>2022-06-02T07:28:34Z</time>
      </trkpt>
      <trkpt lat="47.73535" lon="4.99671">
        <ele>426.45</ele>
        <time>2022-06-02T07:28:37Z</time>
      </trkpt>
      <trkpt lat="47.73533" lon="4.99668">
        <ele>426.02</ele>
        <time>2022-06-02T07:28:43Z</time>
      </trkpt>
      <trkpt lat="47.73531" lon="4.99665">
        <ele>425.93</ele>
        <time>2022-06-02T07:28:50Z</time>
      </trkpt>
      <trkpt lat="47.73529" lon="4.99663">
        <ele>426.16</ele>
        <time>2022-06-02T07:28:53Z</time>
      </trkpt>
      <trkpt lat="47.73526" lon="4.9966">
        <ele>426.85</ele>
        <time>2022-06-02T07:28:54Z</time>
      </trkpt>
      <trkpt lat="47.73524" lon="4.99657">
        <ele>427.41</ele>
        <time>2022-06-02T07:28:59Z</time>
      </trkpt>
      <trkpt lat="47.73521" lon="4.99654">
        <ele>428.06</ele>
        <time>2022-06-02T07:29:03Z</time>
      </trkpt>
      <trkpt lat="47.73519" lon="4.99652">
        <ele>428.43</ele>
        <time>2022-06-02T07:29:06Z</time>
      </trkpt>
      <trkpt lat="47.73517" lon="4.9965">
        <ele>428.75</ele>
        <time>2022-06-02T07:29:08Z</time>
      </trkpt>
      <trkpt lat="47.73514" lon="4.99647">
        <ele>429.13</ele>
        <time>2022-06-02T07:29:12Z</time>
      </trkpt>
      <trkpt lat="47.73512" lon="4.99645">
        <ele>429.32</ele>
        <time>2022-06-02T07:29:14Z</time>
      </trkpt>
      <trkpt lat="47.73509" lon="4.99642">
        <ele>429.51</ele>
        <time>2022-06-02T07:29:18Z</time>
      </trkpt>
      <trkpt lat="47.73506" lon="4.9964">
        <ele>429.64</ele>
        <time>2022-06-02T07:29:20Z</time>
      </trkpt>
      <trkpt lat="47.73503" lon="4.99638">
        <ele>429.46</ele>
        <time>2022-06-02T07:29:24Z</time>
      </trkpt>
      <trkpt lat="47.735" lon="4.99637">
        <ele>429.32</ele>
        <time>2022-06-02T07:29:26Z</time>
      </trkpt>
      <trkpt lat="47.73497" lon="4.99636">
        <ele>428.44</ele>
        <time>2022-06-02T07:29:30Z</time>
      </trkpt>
      <trkpt lat="47.73495" lon="4.99634">
        <ele>427.4</ele>
        <time>2022-06-02T07:29:33Z</time>
      </trkpt>
      <trkpt lat="47.73492" lon="4.99633">
        <ele>426.56</ele>
        <time>2022-06-02T07:29:34Z</time>
      </trkpt>
      <trkpt lat="47.73489" lon="4.99632">
        <ele>425.74</ele>
        <time>2022-06-02T07:29:39Z</time>
      </trkpt>
      <trkpt lat="47.73486" lon="4.99631">
        <ele>424.93</ele>
        <time>2022-06-02T07:29:43Z</time>
      </trkpt>
      <trkpt lat="47.73482" lon="4.99631">
        <ele>424.29</ele>
        <time>2022-06-02T07:29:46Z</time>
      </trkpt>
      <trkpt lat="47.73478" lon="4.9963">
        <ele>423.35</ele>
        <time>2022-06-02T07:29:50Z</time>
      </trkpt>
      <trkpt lat="47.73475" lon="4.99629">
        <ele>422.58</ele>
        <time>2022-06-02T07:29:52Z</time>
      </trkpt>
      <trkpt lat="47.73472" lon="4.99628">
        <ele>421.89</ele>
        <time>2022-06-02T07:29:54Z</time>
      </trkpt>
      <trkpt lat="47.73469" lon="4.99628">
        <ele>422.19</ele>
        <time>2022-06-02T07:29:56Z</time>
      </trkpt>
      <trkpt lat="47.73466" lon="4.99627">
        <ele>422.18</ele>
        <time>2022-06-02T07:30:00Z</time>
      </trkpt>
      <trkpt lat="47.73463" lon="4.99627">
        <ele>422.48</ele>
        <time>2022-06-02T07:30:02Z</time>
      </trkpt>
      <trkpt lat="47.7346" lon="4.99628">
        <ele>423.11</ele>
        <time>2022-06-02T07:30:07Z</time>
      </trkpt>
      <trkpt lat="47.73456" lon="4.99628">
        <ele>423.51</ele>
        <time>2022-06-02T07:30:08Z</time>
      </trkpt>
      <trkpt lat="47.73453" lon="4.99628">
        <ele>423.82</ele>
        <time>2022-06-02T07:30:13Z</time>
      </trkpt>
      <trkpt lat="47.7345" lon="4.99629">
        <ele>424.5</ele>
        <time>2022-06-02T07:30:15Z</time>
      </trkpt>
      <trkpt lat="47.73447" lon="4.99629">
        <ele>424.81</ele>
        <time>2022-06-02T07:30:19Z</time>
      </trkpt>
      <trkpt lat="47.73443" lon="4.9963">
        <ele>425.51</ele>
        <time>2022-06-02T07:30:21Z</time>
      </trkpt>
      <trkpt lat="47.73441" lon="4.99631">
        <ele>425.91</ele>
        <time>2022-06-02T07:30:24Z</time>
      </trkpt>
      <trkpt lat="47.73436" lon="4.99632">
        <ele>426.27</ele>
        <time>2022-06-02T07:30:26Z</time>
      </trkpt>
      <trkpt lat="47.73433" lon="4.99633">
        <ele>426.54</ele>
        <time>2022-06-02T07:30:28Z</time>
      </trkpt>
      <trkpt lat="47.7343" lon="4.99633">
        <ele>426.51</ele>
        <time>2022-06-02T07:30:31Z</time>
      </trkpt>
      <trkpt lat="47.73427" lon="4.99634">
        <ele>426.69</ele>
        <time>2022-06-02T07:30:32Z</time>
      </trkpt>
      <trkpt lat="47.73425" lon="4.99635">
        <ele>426.84</ele>
        <time>2022-06-02T07:30:35Z</time>
      </trkpt>
      <trkpt lat="47.73422" lon="4.99636">
        <ele>426.91</ele>
        <time>2022-06-02T07:30:38Z</time>
      </trkpt>
      <trkpt lat="47.73419" lon="4.99636">
        <ele>426.79</ele>
        <time>2022-06-02T07:30:41Z</time>
      </trkpt>
      <trkpt lat="47.73416" lon="4.99637">
        <ele>426.82</ele>
        <time>2022-06-02T07:30:44Z</time>
      </trkpt>
      <trkpt lat="47.73413" lon="4.99638">
        <ele>427.02</ele>
        <time>2022-06-02T07:30:47Z</time>
      </trkpt>
      <trkpt lat="47.7341" lon="4.9964">
        <ele>427.46</ele>
        <time>2022-06-02T07:30:50Z</time>
      </trkpt>
      <trkpt lat="47.73406" lon="4.99642">
        <ele>427.97</ele>
        <time>2022-06-02T07:30:54Z</time>
      </trkpt>
      <trkpt lat="47.73403" lon="4.99643">
        <ele>428.23</ele>
        <time>2022-06-02T07:30:55Z</time>
      </trkpt>
      <trkpt lat="47.734" lon="4.99644">
        <ele>428.48</ele>
        <time>2022-06-02T07:30:59Z</time>
      </trkpt>
      <trkpt lat="47.73397" lon="4.99644">
        <ele>428.55</ele>
        <time>2022-06-02T07:31:00Z</time>
      </trkpt>
      <trkpt lat="47.73394" lon="4.99646">
        <ele>428.93</ele>
        <time>2022-06-02T07:31:05Z</time>
      </trkpt>
      <trkpt lat="47.73391" lon="4.99647">
        <ele>429.14</ele>
        <time>2022-06-02T07:31:09Z</time>
      </trkpt>
      <trkpt lat="47.73388" lon="4.99647">
        <ele>429.11</ele>
        <time>2022-06-02T07:31:14Z</time>
      </trkpt>
      <trkpt lat="47.73385" lon="4.99648">
        <ele>429.08</ele>
        <time>2022-06-02T07:31:16Z</time>
      </trkpt>
      <trkpt lat="47.73382" lon="4.99648">
        <ele>428.9</ele>
        <time>2022-06-02T07:31:17Z</time>
      </trkpt>
      <trkpt lat="47.73378" lon="4.99648">
        <ele>428.66</ele>
        <time>2022-06-02T07:31:20Z</time>
      </trkpt>
      <trkpt lat="47.73375" lon="4.99648">
        <ele>428.48</ele>
        <time>2022-06-02T07:31:23Z</time>
      </trkpt>
      <trkpt lat="47.73371" lon="4.99649">
        <ele>428.4</ele>
        <time>2022-06-02T07:31:26Z</time>
      </trkpt>
      <trkpt lat="47.73368" lon="4.9965">
        <ele>428.4</ele>
        <time>2022-06-02T07:31:27Z</time>
      </trkpt>
      <trkpt lat="47.73365" lon="4.99652">
        <ele>428.57</ele>
        <time>2022-06-02T07:31:31Z</time>
      </trkpt>
      <trkpt lat="47.73362" lon="4.99654">
        <ele>428.77</ele>
        <time>2022-06-02T07:31:34Z</time>
      </trkpt>
      <trkpt lat="47.73359" lon="4.99656">
        <ele>428.78</ele>
        <time>2022-06-02T07:31:36Z</time>
      </trkpt>
      <trkpt lat="47.73357" lon="4.99659">
        <ele>429.03</ele>
        <time>2022-06-02T07:31:39Z</time>
      </trkpt>
      <trkpt lat="47.73356" lon="4.99663">
        <ele>429.6</ele>
        <time>2022-06-02T07:31:46Z</time>
      </trkpt>
      <trkpt lat="47.73354" lon="4.99667">
        <ele>430.04</ele>
        <time>2022-06-02T07:31:49Z</time>
      </trkpt>
      <trkpt lat="47.73353" lon="4.99671">
        <ele>430.72</ele>
        <time>2022-06-02T07:31:52Z</time>
      </trkpt>
      <trkpt lat="47.73353" lon="4.99675">
        <ele>431.54</ele>
        <time>2022-06-02T07:31:58Z</time>
      </trkpt>
      <trkpt lat="47.73352" lon="4.99679">
        <ele>432.21</ele>
        <time>2022-06-02T07:32:03Z</time>
      </trkpt>
      <trkpt lat="47.73351" lon="4.99683">
        <ele>432.86</ele>
        <time>2022-06-02T07:32:07Z</time>
      </trkpt>
      <trkpt lat="47.7335" lon="4.99687">
        <ele>433.5</ele>
        <time>2022-06-02T07:32:11Z</time>
      </trkpt>
      <trkpt lat="47.7335" lon="4.99692">
        <ele>434.51</ele>
        <time>2022-06-02T07:32:17Z</time>
      </trkpt>
      <trkpt lat="47.73349" lon="4.99696">
        <ele>435.05</ele>
        <time>2022-06-02T07:32:19Z</time>
      </trkpt>
      <trkpt lat="47.73348" lon="4.997">
        <ele>435.45</ele>
        <time>2022-06-02T07:32:23Z</time>
      </trkpt>
      <trkpt lat="47.73347" lon="4.99704">
        <ele>435.83</ele>
        <time>2022-06-02T07:32:27Z</time>
      </trkpt>
      <trkpt lat="47.73346" lon="4.99708">
        <ele>436.19</ele>
        <time>2022-06-02T07:32:32Z</time>
      </trkpt>
      <trkpt lat="47.73344" lon="4.99712">
        <ele>436.3</ele>
        <time>2022-06-02T07:32:35Z</time>
      </trkpt>
      <trkpt lat="47.73344" lon="4.99716">
        <ele>436.84</ele>
        <time>2022-06-02T07:32:39Z</time>
      </trkpt>
      <trkpt lat="47.73344" lon="4.99721">
        <ele>437.52</ele>
        <time>2022-06-02T07:32:43Z</time>
      </trkpt>
      <trkpt lat="47.73343" lon="4.99725">
        <ele>437.73</ele>
        <time>2022-06-02T07:32:45Z</time>
      </trkpt>
      <trkpt lat="47.73343" lon="4.99729">
        <ele>438.15</ele>
        <time>2022-06-02T07:32:49Z</time>
      </trkpt>
      <trkpt lat="47.73344" lon="4.99734">
        <ele>438.83</ele>
        <time>2022-06-02T07:32:55Z</time>
      </trkpt>
      <trkpt lat="47.73344" lon="4.99738">
        <ele>439.22</ele>
        <time>2022-06-02T07:32:57Z</time>
      </trkpt>
      <trkpt lat="47.73345" lon="4.99743">
        <ele>439.8</ele>
        <time>2022-06-02T07:33:02Z</time>
      </trkpt>
      <trkpt lat="47.73345" lon="4.99748">
        <ele>440.24</ele>
        <time>2022-06-02T07:33:06Z</time>
      </trkpt>
      <trkpt lat="47.73345" lon="4.99752">
        <ele>440.7</ele>
        <time>2022-06-02T07:33:08Z</time>
      </trkpt>
      <trkpt lat="47.73345" lon="4.99757">
        <ele>441.39</ele>
        <time>2022-06-02T07:33:11Z</time>
      </trkpt>
      <trkpt lat="47.73345" lon="4.99761">
        <ele>441.94</ele>
        <time>2022-06-02T07:33:16Z</time>
      </trkpt>
      <trkpt lat="47.73346" lon="4.99765">
        <ele>442.57</ele>
        <time>2022-06-02T07:33:20Z</time>
      </trkpt>
      <trkpt lat="47.73347" lon="4.9977">
        <ele>443.36</ele>
        <time>2022-06-02T07:33:23Z</time>
      </trkpt>
      <trkpt lat="47.73347" lon="4.99774">
        <ele>443.93</ele>
        <time>2022-06-02T07:33:27Z</time>
      </trkpt>
      <trkpt lat="47.73347" lon="4.99779">
        <ele>444.56</ele>
        <time>2022-06-02T07:33:30Z</time>
      </trkpt>
      <trkpt lat="47.73348" lon="4.99783">
        <ele>444.97</ele>
        <time>2022-06-02T07:33:34Z</time>
      </trkpt>
      <trkpt lat="47.73349" lon="4.99787">
        <ele>445.4</ele>
        <time>2022-06-02T07:33:38Z</time>
      </trkpt>
      <trkpt lat="47.73349" lon="4.99791">
        <ele>445.7</ele>
        <time>2022-06-02T07:33:39Z</time>
      </trkpt>
      <trkpt lat="47.7335" lon="4.99796">
        <ele>446.24</ele>
        <time>2022-06-02T07:33:44Z</time>
      </trkpt>
      <trkpt lat="47.73351" lon="4.998">
        <ele>446.73</ele>
        <time>2022-06-02T07:33:45Z</time>
      </trkpt>
      <trkpt lat="47.73352" lon="4.99804">
        <ele>447.23</ele>
        <time>2022-06-02T07:33:48Z</time>
      </trkpt>
      <trkpt lat="47.73352" lon="4.99809">
        <ele>447.69</ele>
        <time>2022-06-02T07:33:51Z</time>
      </trkpt>
      <trkpt lat="47.73353" lon="4.99814">
        <ele>448.4</ele>
        <time>2022-06-02T07:33:56Z</time>
      </trkpt>
      <trkpt lat="47.73353" lon="4.99819">
        <ele>448.91</ele>
        <time>2022-06-02T07:34:00Z</time>
      </trkpt>
      <trkpt lat="47.73354" lon="4.99824">
        <ele>449.7</ele>
        <time>2022-06-02T07:34:03Z</time>
      </trkpt>
      <trkpt lat="47.73356" lon="4.99828">
        <ele>450.72</ele>
        <time>2022-06-02T07:34:07Z</time>
      </trkpt>
      <trkpt lat="47.73358" lon="4.99832">
        <ele>451.82</ele>
        <time>2022-06-02T07:34:10Z</time>
      </trkpt>
      <trkpt lat="47.7336" lon="4.99836">
        <ele>452.84</ele>
        <time>2022-06-02T07:34:12Z</time>
      </trkpt>
      <trkpt lat="47.7336" lon="4.9984">
        <ele>453.14</ele>
        <time>2022-06-02T07:34:16Z</time>
      </trkpt>
      <trkpt lat="47.73361" lon="4.99844">
        <ele>453.74</ele>
        <time>2022-06-02T07:34:18Z</time>
      </trkpt>
      <trkpt lat="47.73361" lon="4.99848">
        <ele>454.02</ele>
        <time>2022-06-02T07:34:21Z</time>
      </trkpt>
      <trkpt lat="47.73361" lon="4.99853">
        <ele>454.39</ele>
        <time>2022-06-02T07:34:25Z</time>
      </trkpt>
      <trkpt lat="47.73363" lon="4.99857">
        <ele>454.78</ele>
        <time>2022-06-02T07:34:28Z</time>
      </trkpt>
      <trkpt lat="47.73363" lon="4.99861">
        <ele>455.06</ele>
        <time>2022-06-02T07:34:32Z</time>
      </trkpt>
      <trkpt lat="47.73363" lon="4.99865">
        <ele>455.2</ele>
        <time>2022-06-02T07:34:35Z</time>
      </trkpt>
      <trkpt lat="47.73362" lon="4.9987">
        <ele>455.34</ele>
        <time>2022-06-02T07:34:39Z</time>
      </trkpt>
      <trkpt lat="47.73363" lon="4.99874">
        <ele>455.5</ele>
        <time>2022-06-02T07:34:42Z</time>
      </trkpt>
      <trkpt lat="47.73363" lon="4.99879">
        <ele>455.67</ele>
        <time>2022-06-02T07:34:45Z</time>
      </trkpt>
      <trkpt lat="47.73364" lon="4.99883">
        <ele>455.81</ele>
        <time>2022-06-02T07:34:49Z</time>
      </trkpt>
      <trkpt lat="47.73365" lon="4.99887">
        <ele>455.94</ele>
        <time>2022-06-02T07:34:51Z</time>
      </trkpt>
      <trkpt lat="47.73366" lon="4.99891">
        <ele>455.86</ele>
        <time>2022-06-02T07:34:53Z</time>
      </trkpt>
      <trkpt lat="47.73367" lon="4.99894">
        <ele>455.67</ele>
        <time>2022-06-02T07:34:57Z</time>
      </trkpt>
      <trkpt lat="47.73368" lon="4.99899">
        <ele>455.36</ele>
        <time>2022-06-02T07:34:59Z</time>
      </trkpt>
      <trkpt lat="47.73368" lon="4.99904">
        <ele>455.05</ele>
        <time>2022-06-02T07:35:01Z</time>
      </trkpt>
      <trkpt lat="47.73369" lon="4.99908">
        <ele>454.82</ele>
        <time>2022-06-02T07:35:05Z</time>
      </trkpt>
      <trkpt lat="47.7337" lon="4.99912">
        <ele>454.6</ele>
        <time>2022-06-02T07:35:09Z</time>
      </trkpt>
      <trkpt lat="47.73371" lon="4.99916">
        <ele>454.4</ele>
        <time>2022-06-02T07:35:11Z</time>
      </trkpt>
      <trkpt lat="47.73371" lon="4.99921">
        <ele>454.04</ele>
        <time>2022-06-02T07:35:13Z</time>
      </trkpt>
      <trkpt lat="47.73372" lon="4.99925">
        <ele>453.79</ele>
        <time>2022-06-02T07:35:16Z</time>
      </trkpt>
      <trkpt lat="47.73372" lon="4.99931">
        <ele>453.36</ele>
        <time>2022-06-02T07:35:20Z</time>
      </trkpt>
      <trkpt lat="47.73372" lon="4.99935">
        <ele>453.07</ele>
        <time>2022-06-02T07:35:21Z</time>
      </trkpt>
      <trkpt lat="47.73372" lon="4.9994">
        <ele>452.71</ele>
        <time>2022-06-02T07:35:25Z</time>
      </trkpt>
      <trkpt lat="47.73373" lon="4.99945">
        <ele>452.38</ele>
        <time>2022-06-02T07:35:27Z</time>
      </trkpt>
      <trkpt lat="47.73374" lon="4.9995">
        <ele>451.96</ele>
        <time>2022-06-02T07:35:31Z</time>
      </trkpt>
      <trkpt lat="47.73375" lon="4.99955">
        <ele>451.55</ele>
        <time>2022-06-02T07:35:33Z</time>
      </trkpt>
      <trkpt lat="47.73376" lon="4.99959">
        <ele>451.24</ele>
        <time>2022-06-02T07:35:36Z</time>
      </trkpt>
      <trkpt lat="47.73377" lon="4.99962">
        <ele>451.04</ele>
        <time>2022-06-02T07:35:38Z</time>
      </trkpt>
      <trkpt lat="47.73378" lon="4.99966">
        <ele>450.75</ele>
        <time>2022-06-02T07:35:42Z</time>
      </trkpt>
      <trkpt lat="47.73379" lon="4.9997">
        <ele>450.48</ele>
        <time>2022-06-02T07:35:44Z</time>
      </trkpt>
      <trkpt lat="47.7338" lon="4.99974">
        <ele>450.34</ele>
        <time>2022-06-02T07:35:48Z</time>
      </trkpt>
      <trkpt lat="47.73381" lon="4.99978">
        <ele>450.34</ele>
        <time>2022-06-02T07:35:53Z</time>
      </trkpt>
      <trkpt lat="47.73381" lon="4.99983">
        <ele>450.26</ele>
        <time>2022-06-02T07:35:55Z</time>
      </trkpt>
      <trkpt lat="47.73381" lon="4.99987">
        <ele>450.2</ele>
        <time>2022-06-02T07:35:58Z</time>
      </trkpt>
      <trkpt lat="47.73382" lon="4.99992">
        <ele>450.15</ele>
        <time>2022-06-02T07:36:01Z</time>
      </trkpt>
      <trkpt lat="47.73382" lon="4.99997">
        <ele>450.05</ele>
        <time>2022-06-02T07:36:03Z</time>
      </trkpt>
      <trkpt lat="47.73382" lon="5.00002">
        <ele>450.09</ele>
        <time>2022-06-02T07:36:06Z</time>
      </trkpt>
      <trkpt lat="47.73382" lon="5.00006">
        <ele>450.27</ele>
        <time>2022-06-02T07:36:10Z</time>
      </trkpt>
      <trkpt lat="47.73382" lon="5.0001">
        <ele>450.45</ele>
        <time>2022-06-02T07:36:13Z</time>
      </trkpt>
      <trkpt lat="47.73382" lon="5.00015">
        <ele>450.67</ele>
        <time>2022-06-02T07:36:15Z</time>
      </trkpt>
      <trkpt lat="47.73383" lon="5.0002">
        <ele>450.87</ele>
        <time>2022-06-02T07:36:19Z</time>
      </trkpt>
      <trkpt lat="47.73383" lon="5.00024">
        <ele>451.05</ele>
        <time>2022-06-02T07:36:23Z</time>
      </trkpt>
      <trkpt lat="47.73384" lon="5.00028">
        <ele>451.17</ele>
        <time>2022-06-02T07:36:24Z</time>
      </trkpt>
      <trkpt lat="47.73384" lon="5.00033">
        <ele>450.95</ele>
        <time>2022-06-02T07:36:26Z</time>
      </trkpt>
      <trkpt lat="47.73384" lon="5.00037">
        <ele>450.79</ele>
        <time>2022-06-02T07:36:30Z</time>
      </trkpt>
      <trkpt lat="47.73386" lon="5.00042">
        <ele>450.54</ele>
        <time>2022-06-02T07:36:34Z</time>
      </trkpt>
      <trkpt lat="47.73387" lon="5.00047">
        <ele>450.33</ele>
        <time>2022-06-02T07:36:37Z</time>
      </trkpt>
      <trkpt lat="47.73388" lon="5.00051">
        <ele>450.17</ele>
        <time>2022-06-02T07:36:38Z</time>
      </trkpt>
      <trkpt lat="47.73388" lon="5.00055">
        <ele>450.02</ele>
        <time>2022-06-02T07:36:42Z</time>
      </trkpt>
      <trkpt lat="47.73388" lon="5.00059">
        <ele>450</ele>
        <time>2022-06-02T07:36:44Z</time>
      </trkpt>
      <trkpt lat="47.73388" lon="5.00064">
        <ele>450.01</ele>
        <time>2022-06-02T07:36:48Z</time>
      </trkpt>
      <trkpt lat="47.73388" lon="5.0007">
        <ele>450.02</ele>
        <time>2022-06-02T07:36:50Z</time>
      </trkpt>
      <trkpt lat="47.73388" lon="5.00074">
        <ele>450.02</ele>
        <time>2022-06-02T07:36:55Z</time>
      </trkpt>
      <trkpt lat="47.73389" lon="5.00078">
        <ele>449.99</ele>
        <time>2022-06-02T07:36:58Z</time>
      </trkpt>
      <trkpt lat="47.73389" lon="5.00083">
        <ele>449.99</ele>
        <time>2022-06-02T07:37:02Z</time>
      </trkpt>
      <trkpt lat="47.73388" lon="5.00087">
        <ele>450.03</ele>
        <time>2022-06-02T07:37:04Z</time>
      </trkpt>
      <trkpt lat="47.73388" lon="5.00093">
        <ele>450.03</ele>
        <time>2022-06-02T07:37:09Z</time>
      </trkpt>
      <trkpt lat="47.73387" lon="5.00098">
        <ele>450.07</ele>
        <time>2022-06-02T07:37:13Z</time>
      </trkpt>
      <trkpt lat="47.73387" lon="5.00102">
        <ele>450.07</ele>
        <time>2022-06-02T07:37:17Z</time>
      </trkpt>
      <trkpt lat="47.73387" lon="5.00107">
        <ele>450.07</ele>
        <time>2022-06-02T07:37:20Z</time>
      </trkpt>
      <trkpt lat="47.73387" lon="5.00112">
        <ele>450.1</ele>
        <time>2022-06-02T07:37:24Z</time>
      </trkpt>
      <trkpt lat="47.73388" lon="5.00116">
        <ele>450.21</ele>
        <time>2022-06-02T07:37:28Z</time>
      </trkpt>
      <trkpt lat="47.73387" lon="5.00121">
        <ele>450.42</ele>
        <time>2022-06-02T07:37:31Z</time>
      </trkpt>
      <trkpt lat="47.73387" lon="5.00125">
        <ele>450.57</ele>
        <time>2022-06-02T07:37:35Z</time>
      </trkpt>
      <trkpt lat="47.73387" lon="5.0013">
        <ele>450.75</ele>
        <time>2022-06-02T07:37:39Z</time>
      </trkpt>
      <trkpt lat="47.73386" lon="5.00134">
        <ele>450.93</ele>
        <time>2022-06-02T07:37:41Z</time>
      </trkpt>
      <trkpt lat="47.73385" lon="5.00139">
        <ele>451.15</ele>
        <time>2022-06-02T07:37:44Z</time>
      </trkpt>
      <trkpt lat="47.73384" lon="5.00143">
        <ele>451.38</ele>
        <time>2022-06-02T07:37:47Z</time>
      </trkpt>
      <trkpt lat="47.73383" lon="5.00147">
        <ele>451.63</ele>
        <time>2022-06-02T07:37:50Z</time>
      </trkpt>
      <trkpt lat="47.73382" lon="5.00151">
        <ele>451.9</ele>
        <time>2022-06-02T07:37:53Z</time>
      </trkpt>
      <trkpt lat="47.73381" lon="5.00155">
        <ele>452.19</ele>
        <time>2022-06-02T07:37:57Z</time>
      </trkpt>
      <trkpt lat="47.73379" lon="5.00159">
        <ele>452.6</ele>
        <time>2022-06-02T07:38:01Z</time>
      </trkpt>
      <trkpt lat="47.73378" lon="5.00163">
        <ele>452.94</ele>
        <time>2022-06-02T07:38:05Z</time>
      </trkpt>
      <trkpt lat="47.73376" lon="5.00167">
        <ele>453.41</ele>
        <time>2022-06-02T07:38:08Z</time>
      </trkpt>
      <trkpt lat="47.73374" lon="5.00171">
        <ele>453.84</ele>
        <time>2022-06-02T07:38:10Z</time>
      </trkpt>
      <trkpt lat="47.73372" lon="5.00174">
        <ele>454.19</ele>
        <time>2022-06-02T07:38:12Z</time>
      </trkpt>
      <trkpt lat="47.73369" lon="5.00177">
        <ele>454.63</ele>
        <time>2022-06-02T07:38:15Z</time>
      </trkpt>
      <trkpt lat="47.73367" lon="5.0018">
        <ele>454.95</ele>
        <time>2022-06-02T07:38:18Z</time>
      </trkpt>
      <trkpt lat="47.73366" lon="5.00184">
        <ele>455.21</ele>
        <time>2022-06-02T07:38:23Z</time>
      </trkpt>
      <trkpt lat="47.73364" lon="5.0019">
        <ele>455.62</ele>
        <time>2022-06-02T07:38:26Z</time>
      </trkpt>
      <trkpt lat="47.73364" lon="5.00194">
        <ele>455.77</ele>
        <time>2022-06-02T07:38:28Z</time>
      </trkpt>
      <trkpt lat="47.73363" lon="5.00198">
        <ele>455.74</ele>
        <time>2022-06-02T07:38:32Z</time>
      </trkpt>
      <trkpt lat="47.73361" lon="5.00202">
        <ele>455.72</ele>
        <time>2022-06-02T07:38:36Z</time>
      </trkpt>
      <trkpt lat="47.7336" lon="5.00205">
        <ele>455.56</ele>
        <time>2022-06-02T07:38:38Z</time>
      </trkpt>
      <trkpt lat="47.73358" lon="5.00209">
        <ele>455.31</ele>
        <time>2022-06-02T07:38:42Z</time>
      </trkpt>
      <trkpt lat="47.73356" lon="5.00212">
        <ele>455.12</ele>
        <time>2022-06-02T07:38:46Z</time>
      </trkpt>
      <trkpt lat="47.73354" lon="5.00215">
        <ele>454.94</ele>
        <time>2022-06-02T07:38:48Z</time>
      </trkpt>
      <trkpt lat="47.73353" lon="5.00219">
        <ele>454.79</ele>
        <time>2022-06-02T07:38:53Z</time>
      </trkpt>
      <trkpt lat="47.73353" lon="5.00224">
        <ele>454.68</ele>
        <time>2022-06-02T07:38:55Z</time>
      </trkpt>
      <trkpt lat="47.73352" lon="5.00228">
        <ele>454.6</ele>
        <time>2022-06-02T07:38:59Z</time>
      </trkpt>
      <trkpt lat="47.73351" lon="5.00232">
        <ele>454.54</ele>
        <time>2022-06-02T07:39:03Z</time>
      </trkpt>
      <trkpt lat="47.73351" lon="5.00237">
        <ele>454.49</ele>
        <time>2022-06-02T07:39:07Z</time>
      </trkpt>
      <trkpt lat="47.73351" lon="5.00241">
        <ele>454.45</ele>
        <time>2022-06-02T07:39:10Z</time>
      </trkpt>
      <trkpt lat="47.7335" lon="5.00246">
        <ele>454.43</ele>
        <time>2022-06-02T07:39:13Z</time>
      </trkpt>
      <trkpt lat="47.73349" lon="5.0025">
        <ele>454.44</ele>
        <time>2022-06-02T07:39:16Z</time>
      </trkpt>
      <trkpt lat="47.7335" lon="5.00255">
        <ele>454.58</ele>
        <time>2022-06-02T07:39:21Z</time>
      </trkpt>
      <trkpt lat="47.7335" lon="5.0026">
        <ele>454.76</ele>
        <time>2022-06-02T07:39:25Z</time>
      </trkpt>
      <trkpt lat="47.73349" lon="5.00264">
        <ele>454.94</ele>
        <time>2022-06-02T07:39:27Z</time>
      </trkpt>
      <trkpt lat="47.73349" lon="5.00269">
        <ele>455.12</ele>
        <time>2022-06-02T07:39:31Z</time>
      </trkpt>
      <trkpt lat="47.73348" lon="5.00274">
        <ele>455.34</ele>
        <time>2022-06-02T07:39:34Z</time>
      </trkpt>
      <trkpt lat="47.73348" lon="5.00279">
        <ele>455.51</ele>
        <time>2022-06-02T07:39:37Z</time>
      </trkpt>
      <trkpt lat="47.73348" lon="5.00284">
        <ele>455.68</ele>
        <time>2022-06-02T07:39:41Z</time>
      </trkpt>
      <trkpt lat="47.73348" lon="5.00288">
        <ele>455.82</ele>
        <time>2022-06-02T07:39:43Z</time>
      </trkpt>
      <trkpt lat="47.73348" lon="5.00294">
        <ele>456.02</ele>
        <time>2022-06-02T07:39:48Z</time>
      </trkpt>
      <trkpt lat="47.73348" lon="5.00298">
        <ele>456.16</ele>
        <time>2022-06-02T07:39:51Z</time>
      </trkpt>
      <trkpt lat="47.73348" lon="5.00303">
        <ele>456.33</ele>
        <time>2022-06-02T07:39:54Z</time>
      </trkpt>
      <trkpt lat="47.73348" lon="5.00308">
        <ele>456.42</ele>
        <time>2022-06-02T07:39:56Z</time>
      </trkpt>
      <trkpt lat="47.73348" lon="5.00312">
        <ele>456.43</ele>
        <time>2022-06-02T07:39:59Z</time>
      </trkpt>
      <trkpt lat="47.73347" lon="5.00316">
        <ele>456.52</ele>
        <time>2022-06-02T07:40:00Z</time>
      </trkpt>
      <trkpt lat="47.73346" lon="5.0032">
        <ele>456.59</ele>
        <time>2022-06-02T07:40:04Z</time>
      </trkpt>
      <trkpt lat="47.73344" lon="5.00325">
        <ele>456.69</ele>
        <time>2022-06-02T07:40:08Z</time>
      </trkpt>
      <trkpt lat="47.73343" lon="5.00329">
        <ele>456.7</ele>
        <time>2022-06-02T07:40:11Z</time>
      </trkpt>
      <trkpt lat="47.73342" lon="5.00334">
        <ele>456.68</ele>
        <time>2022-06-02T07:40:14Z</time>
      </trkpt>
      <trkpt lat="47.73341" lon="5.00338">
        <ele>456.65</ele>
        <time>2022-06-02T07:40:17Z</time>
      </trkpt>
      <trkpt lat="47.7334" lon="5.00342">
        <ele>456.6</ele>
        <time>2022-06-02T07:40:20Z</time>
      </trkpt>
      <trkpt lat="47.73339" lon="5.00347">
        <ele>456.5</ele>
        <time>2022-06-02T07:40:24Z</time>
      </trkpt>
      <trkpt lat="47.73339" lon="5.00352">
        <ele>456.4</ele>
        <time>2022-06-02T07:40:25Z</time>
      </trkpt>
      <trkpt lat="47.73338" lon="5.00356">
        <ele>456.29</ele>
        <time>2022-06-02T07:40:28Z</time>
      </trkpt>
      <trkpt lat="47.73336" lon="5.0036">
        <ele>456.13</ele>
        <time>2022-06-02T07:40:31Z</time>
      </trkpt>
      <trkpt lat="47.73335" lon="5.00365">
        <ele>456.33</ele>
        <time>2022-06-02T07:40:35Z</time>
      </trkpt>
      <trkpt lat="47.73334" lon="5.0037">
        <ele>456.66</ele>
        <time>2022-06-02T07:40:38Z</time>
      </trkpt>
      <trkpt lat="47.73334" lon="5.00374">
        <ele>456.94</ele>
        <time>2022-06-02T07:40:40Z</time>
      </trkpt>
      <trkpt lat="47.73333" lon="5.00379">
        <ele>457.26</ele>
        <time>2022-06-02T07:40:44Z</time>
      </trkpt>
      <trkpt lat="47.73332" lon="5.00384">
        <ele>457.52</ele>
        <time>2022-06-02T07:40:48Z</time>
      </trkpt>
      <trkpt lat="47.73331" lon="5.00387">
        <ele>457.62</ele>
        <time>2022-06-02T07:40:49Z</time>
      </trkpt>
      <trkpt lat="47.7333" lon="5.00393">
        <ele>457.66</ele>
        <time>2022-06-02T07:40:54Z</time>
      </trkpt>
      <trkpt lat="47.73329" lon="5.00397">
        <ele>457.58</ele>
        <time>2022-06-02T07:40:57Z</time>
      </trkpt>
      <trkpt lat="47.73329" lon="5.00403">
        <ele>457.61</ele>
        <time>2022-06-02T07:41:00Z</time>
      </trkpt>
      <trkpt lat="47.73329" lon="5.00407">
        <ele>457.63</ele>
        <time>2022-06-02T07:41:04Z</time>
      </trkpt>
      <trkpt lat="47.73328" lon="5.00411">
        <ele>457.58</ele>
        <time>2022-06-02T07:41:05Z</time>
      </trkpt>
      <trkpt lat="47.73328" lon="5.00416">
        <ele>457.61</ele>
        <time>2022-06-02T07:41:08Z</time>
      </trkpt>
      <trkpt lat="47.73328" lon="5.0042">
        <ele>457.83</ele>
        <time>2022-06-02T07:41:12Z</time>
      </trkpt>
      <trkpt lat="47.73328" lon="5.00425">
        <ele>458.16</ele>
        <time>2022-06-02T07:41:15Z</time>
      </trkpt>
      <trkpt lat="47.73327" lon="5.00429">
        <ele>458.33</ele>
        <time>2022-06-02T07:41:19Z</time>
      </trkpt>
      <trkpt lat="47.73327" lon="5.00433">
        <ele>458.59</ele>
        <time>2022-06-02T07:41:21Z</time>
      </trkpt>
      <trkpt lat="47.73327" lon="5.00438">
        <ele>458.9</ele>
        <time>2022-06-02T07:41:25Z</time>
      </trkpt>
      <trkpt lat="47.73326" lon="5.00442">
        <ele>459.06</ele>
        <time>2022-06-02T07:41:27Z</time>
      </trkpt>
      <trkpt lat="47.73325" lon="5.00447">
        <ele>459.06</ele>
        <time>2022-06-02T07:41:31Z</time>
      </trkpt>
      <trkpt lat="47.73324" lon="5.00451">
        <ele>458.91</ele>
        <time>2022-06-02T07:41:33Z</time>
      </trkpt>
      <trkpt lat="47.73323" lon="5.00454">
        <ele>458.8</ele>
        <time>2022-06-02T07:41:37Z</time>
      </trkpt>
      <trkpt lat="47.73321" lon="5.00458">
        <ele>458.61</ele>
        <time>2022-06-02T07:41:39Z</time>
      </trkpt>
      <trkpt lat="47.73319" lon="5.00462">
        <ele>458.47</ele>
        <time>2022-06-02T07:41:44Z</time>
      </trkpt>
      <trkpt lat="47.73318" lon="5.00466">
        <ele>458.42</ele>
        <time>2022-06-02T07:41:48Z</time>
      </trkpt>
      <trkpt lat="47.73317" lon="5.0047">
        <ele>458.4</ele>
        <time>2022-06-02T07:41:50Z</time>
      </trkpt>
      <trkpt lat="47.73316" lon="5.00474">
        <ele>458.46</ele>
        <time>2022-06-02T07:41:53Z</time>
      </trkpt>
      <trkpt lat="47.73316" lon="5.00478">
        <ele>458.64</ele>
        <time>2022-06-02T07:41:56Z</time>
      </trkpt>
      <trkpt lat="47.73315" lon="5.00482">
        <ele>458.8</ele>
        <time>2022-06-02T07:42:00Z</time>
      </trkpt>
      <trkpt lat="47.73313" lon="5.00486">
        <ele>458.99</ele>
        <time>2022-06-02T07:42:02Z</time>
      </trkpt>
      <trkpt lat="47.73311" lon="5.0049">
        <ele>459.23</ele>
        <time>2022-06-02T07:42:07Z</time>
      </trkpt>
      <trkpt lat="47.73309" lon="5.00493">
        <ele>459.43</ele>
        <time>2022-06-02T07:42:09Z</time>
      </trkpt>
      <trkpt lat="47.73307" lon="5.00497">
        <ele>459.74</ele>
        <time>2022-06-02T07:42:13Z</time>
      </trkpt>
      <trkpt lat="47.73305" lon="5.005">
        <ele>459.92</ele>
        <time>2022-06-02T07:42:16Z</time>
      </trkpt>
      <trkpt lat="47.73304" lon="5.00504">
        <ele>460.34</ele>
        <time>2022-06-02T07:42:19Z</time>
      </trkpt>
      <trkpt lat="47.73302" lon="5.00508">
        <ele>460.6</ele>
        <time>2022-06-02T07:42:23Z</time>
      </trkpt>
      <trkpt lat="47.73301" lon="5.00511">
        <ele>460.86</ele>
        <time>2022-06-02T07:42:26Z</time>
      </trkpt>
      <trkpt lat="47.73299" lon="5.00515">
        <ele>461.09</ele>
        <time>2022-06-02T07:42:30Z</time>
      </trkpt>
      <trkpt lat="47.73298" lon="5.00519">
        <ele>461.46</ele>
        <time>2022-06-02T07:42:31Z</time>
      </trkpt>
      <trkpt lat="47.73297" lon="5.00524">
        <ele>461.96</ele>
        <time>2022-06-02T07:42:36Z</time>
      </trkpt>
      <trkpt lat="47.73295" lon="5.00528">
        <ele>462.12</ele>
        <time>2022-06-02T07:42:38Z</time>
      </trkpt>
      <trkpt lat="47.73294" lon="5.00532">
        <ele>462.22</ele>
        <time>2022-06-02T07:42:42Z</time>
      </trkpt>
      <trkpt lat="47.73294" lon="5.00536">
        <ele>462.51</ele>
        <time>2022-06-02T07:42:44Z</time>
      </trkpt>
      <trkpt lat="47.73294" lon="5.00541">
        <ele>462.87</ele>
        <time>2022-06-02T07:42:48Z</time>
      </trkpt>
      <trkpt lat="47.73293" lon="5.00545">
        <ele>462.98</ele>
        <time>2022-06-02T07:42:50Z</time>
      </trkpt>
      <trkpt lat="47.73293" lon="5.0055">
        <ele>463.34</ele>
        <time>2022-06-02T07:42:53Z</time>
      </trkpt>
      <trkpt lat="47.73292" lon="5.00554">
        <ele>463.45</ele>
        <time>2022-06-02T07:42:55Z</time>
      </trkpt>
      <trkpt lat="47.73291" lon="5.00558">
        <ele>463.46</ele>
        <time>2022-06-02T07:43:00Z</time>
      </trkpt>
      <trkpt lat="47.73289" lon="5.00562">
        <ele>463.21</ele>
        <time>2022-06-02T07:43:03Z</time>
      </trkpt>
      <trkpt lat="47.73288" lon="5.00567">
        <ele>463.14</ele>
        <time>2022-06-02T07:43:06Z</time>
      </trkpt>
      <trkpt lat="47.73287" lon="5.00571">
        <ele>463.03</ele>
        <time>2022-06-02T07:43:10Z</time>
      </trkpt>
      <trkpt lat="47.73285" lon="5.00573">
        <ele>462.63</ele>
        <time>2022-06-02T07:43:11Z</time>
      </trkpt>
      <trkpt lat="47.73283" lon="5.00577">
        <ele>462.23</ele>
        <time>2022-06-02T07:43:17Z</time>
      </trkpt>
      <trkpt lat="47.73282" lon="5.0058">
        <ele>462.03</ele>
        <time>2022-06-02T07:43:21Z</time>
      </trkpt>
      <trkpt lat="47.7328" lon="5.00584">
        <ele>461.6</ele>
        <time>2022-06-02T07:43:25Z</time>
      </trkpt>
      <trkpt lat="47.73279" lon="5.00588">
        <ele>461.62</ele>
        <time>2022-06-02T07:43:29Z</time>
      </trkpt>
      <trkpt lat="47.73278" lon="5.00593">
        <ele>461.74</ele>
        <time>2022-06-02T07:43:33Z</time>
      </trkpt>
      <trkpt lat="47.73276" lon="5.00597">
        <ele>461.63</ele>
        <time>2022-06-02T07:43:35Z</time>
      </trkpt>
      <trkpt lat="47.73275" lon="5.006">
        <ele>461.66</ele>
        <time>2022-06-02T07:43:38Z</time>
      </trkpt>
      <trkpt lat="47.73272" lon="5.00604">
        <ele>461.39</ele>
        <time>2022-06-02T07:43:43Z</time>
      </trkpt>
      <trkpt lat="47.7327" lon="5.00607">
        <ele>461.26</ele>
        <time>2022-06-02T07:43:44Z</time>
      </trkpt>
      <trkpt lat="47.73269" lon="5.0061">
        <ele>461.33</ele>
        <time>2022-06-02T07:43:48Z</time>
      </trkpt>
      <trkpt lat="47.73266" lon="5.00613">
        <ele>460.98</ele>
        <time>2022-06-02T07:43:50Z</time>
      </trkpt>
      <trkpt lat="47.73265" lon="5.00617">
        <ele>461.01</ele>
        <time>2022-06-02T07:43:52Z</time>
      </trkpt>
      <trkpt lat="47.73263" lon="5.00621">
        <ele>460.89</ele>
        <time>2022-06-02T07:43:56Z</time>
      </trkpt>
      <trkpt lat="47.73261" lon="5.00625">
        <ele>460.78</ele>
        <time>2022-06-02T07:43:59Z</time>
      </trkpt>
      <trkpt lat="47.73259" lon="5.00628">
        <ele>460.64</ele>
        <time>2022-06-02T07:44:03Z</time>
      </trkpt>
      <trkpt lat="47.73258" lon="5.00631">
        <ele>460.67</ele>
        <time>2022-06-02T07:44:05Z</time>
      </trkpt>
      <trkpt lat="47.73256" lon="5.00636">
        <ele>460.68</ele>
        <time>2022-06-02T07:44:09Z</time>
      </trkpt>
      <trkpt lat="47.73255" lon="5.0064">
        <ele>460.81</ele>
        <time>2022-06-02T07:44:10Z</time>
      </trkpt>
      <trkpt lat="47.73254" lon="5.00645">
        <ele>461.11</ele>
        <time>2022-06-02T07:44:13Z</time>
      </trkpt>
      <trkpt lat="47.73253" lon="5.00649">
        <ele>461.37</ele>
        <time>2022-06-02T07:44:16Z</time>
      </trkpt>
      <trkpt lat="47.73251" lon="5.00653">
        <ele>461.59</ele>
        <time>2022-06-02T07:44:20Z</time>
      </trkpt>
      <trkpt lat="47.73249" lon="5.00657">
        <ele>461.78</ele>
        <time>2022-06-02T07:44:24Z</time>
      </trkpt>
      <trkpt lat="47.73247" lon="5.0066">
        <ele>461.74</ele>
        <time>2022-06-02T07:44:26Z</time>
      </trkpt>
      <trkpt lat="47.73246" lon="5.00664">
        <ele>461.99</ele>
        <time>2022-06-02T07:44:29Z</time>
      </trkpt>
      <trkpt lat="47.73244" lon="5.00668">
        <ele>462.05</ele>
        <time>2022-06-02T07:44:31Z</time>
      </trkpt>
      <trkpt lat="47.73242" lon="5.00672">
        <ele>462.08</ele>
        <time>2022-06-02T07:44:34Z</time>
      </trkpt>
      <trkpt lat="47.73241" lon="5.00675">
        <ele>462.18</ele>
        <time>2022-06-02T07:44:36Z</time>
      </trkpt>
      <trkpt lat="47.73239" lon="5.00678">
        <ele>462.08</ele>
        <time>2022-06-02T07:44:41Z</time>
      </trkpt>
      <trkpt lat="47.73237" lon="5.00682">
        <ele>462.06</ele>
        <time>2022-06-02T07:44:45Z</time>
      </trkpt>
      <trkpt lat="47.73235" lon="5.00685">
        <ele>461.92</ele>
        <time>2022-06-02T07:44:47Z</time>
      </trkpt>
      <trkpt lat="47.73234" lon="5.0069">
        <ele>462.16</ele>
        <time>2022-06-02T07:44:51Z</time>
      </trkpt>
      <trkpt lat="47.73232" lon="5.00694">
        <ele>462.07</ele>
        <time>2022-06-02T07:44:52Z</time>
      </trkpt>
      <trkpt lat="47.73231" lon="5.00697">
        <ele>462.05</ele>
        <time>2022-06-02T07:44:56Z</time>
      </trkpt>
      <trkpt lat="47.73229" lon="5.00701">
        <ele>461.88</ele>
        <time>2022-06-02T07:44:58Z</time>
      </trkpt>
      <trkpt lat="47.73227" lon="5.00705">
        <ele>461.73</ele>
        <time>2022-06-02T07:44:59Z</time>
      </trkpt>
      <trkpt lat="47.73225" lon="5.00709">
        <ele>461.6</ele>
        <time>2022-06-02T07:45:02Z</time>
      </trkpt>
      <trkpt lat="47.73224" lon="5.00712">
        <ele>461.61</ele>
        <time>2022-06-02T07:45:05Z</time>
      </trkpt>
      <trkpt lat="47.73222" lon="5.00715">
        <ele>461.45</ele>
        <time>2022-06-02T07:45:10Z</time>
      </trkpt>
      <trkpt lat="47.7322" lon="5.00718">
        <ele>461.44</ele>
        <time>2022-06-02T07:45:13Z</time>
      </trkpt>
      <trkpt lat="47.73218" lon="5.00721">
        <ele>461.45</ele>
        <time>2022-06-02T07:45:17Z</time>
      </trkpt>
      <trkpt lat="47.73215" lon="5.00724">
        <ele>461.28</ele>
        <time>2022-06-02T07:45:21Z</time>
      </trkpt>
      <trkpt lat="47.73213" lon="5.00726">
        <ele>461.14</ele>
        <time>2022-06-02T07:45:23Z</time>
      </trkpt>
      <trkpt lat="47.7321" lon="5.00729">
        <ele>460.92</ele>
        <time>2022-06-02T07:45:27Z</time>
      </trkpt>
      <trkpt lat="47.73208" lon="5.00733">
        <ele>460.85</ele>
        <time>2022-06-02T07:45:33Z</time>
      </trkpt>
      <trkpt lat="47.73209" lon="5.00737">
        <ele>461.1</ele>
        <time>2022-06-02T07:45:38Z</time>
      </trkpt>
      <trkpt lat="47.7321" lon="5.00741">
        <ele>461.36</ele>
        <time>2022-06-02T07:45:46Z</time>
      </trkpt>
      <trkpt lat="47.73209" lon="5.00745">
        <ele>461.39</ele>
        <time>2022-06-02T07:45:54Z</time>
      </trkpt>
      <trkpt lat="47.73207" lon="5.00749">
        <ele>461.32</ele>
        <time>2022-06-02T07:46:16Z</time>
      </trkpt>
      <trkpt lat="47.73209" lon="5.00752">
        <ele>461.61</ele>
        <time>2022-06-02T07:47:32Z</time>
      </trkpt>
      <trkpt lat="47.73207" lon="5.00753">
        <ele>461.42</ele>
        <time>2022-06-02T07:47:43Z</time>
      </trkpt>
      <trkpt lat="47.73204" lon="5.00754">
        <ele>461.13</ele>
        <time>2022-06-02T07:47:45Z</time>
      </trkpt>
      <trkpt lat="47.73202" lon="5.00757">
        <ele>461</ele>
        <time>2022-06-02T07:47:48Z</time>
      </trkpt>
      <trkpt lat="47.732" lon="5.0076">
        <ele>460.89</ele>
        <time>2022-06-02T07:47:52Z</time>
      </trkpt>
      <trkpt lat="47.73198" lon="5.00763">
        <ele>460.79</ele>
        <time>2022-06-02T07:47:53Z</time>
      </trkpt>
      <trkpt lat="47.73197" lon="5.00767">
        <ele>460.83</ele>
        <time>2022-06-02T07:47:59Z</time>
      </trkpt>
      <trkpt lat="47.73195" lon="5.00771">
        <ele>460.8</ele>
        <time>2022-06-02T07:48:03Z</time>
      </trkpt>
      <trkpt lat="47.73193" lon="5.00774">
        <ele>460.8</ele>
        <time>2022-06-02T07:48:04Z</time>
      </trkpt>
      <trkpt lat="47.7319" lon="5.00776">
        <ele>460.77</ele>
        <time>2022-06-02T07:48:07Z</time>
      </trkpt>
      <trkpt lat="47.73188" lon="5.00779">
        <ele>460.85</ele>
        <time>2022-06-02T07:48:12Z</time>
      </trkpt>
      <trkpt lat="47.73185" lon="5.00781">
        <ele>460.85</ele>
        <time>2022-06-02T07:48:17Z</time>
      </trkpt>
      <trkpt lat="47.73183" lon="5.00784">
        <ele>460.94</ele>
        <time>2022-06-02T07:48:23Z</time>
      </trkpt>
      <trkpt lat="47.73181" lon="5.00786">
        <ele>460.96</ele>
        <time>2022-06-02T07:48:28Z</time>
      </trkpt>
      <trkpt lat="47.73178" lon="5.00788">
        <ele>460.93</ele>
        <time>2022-06-02T07:48:29Z</time>
      </trkpt>
      <trkpt lat="47.73176" lon="5.00791">
        <ele>460.97</ele>
        <time>2022-06-02T07:48:31Z</time>
      </trkpt>
      <trkpt lat="47.73174" lon="5.00794">
        <ele>461</ele>
        <time>2022-06-02T07:48:33Z</time>
      </trkpt>
      <trkpt lat="47.73171" lon="5.00794">
        <ele>460.83</ele>
        <time>2022-06-02T07:48:36Z</time>
      </trkpt>
      <trkpt lat="47.73168" lon="5.00796">
        <ele>460.74</ele>
        <time>2022-06-02T07:48:38Z</time>
      </trkpt>
      <trkpt lat="47.73166" lon="5.008">
        <ele>460.78</ele>
        <time>2022-06-02T07:48:42Z</time>
      </trkpt>
      <trkpt lat="47.73164" lon="5.00803">
        <ele>460.87</ele>
        <time>2022-06-02T07:48:45Z</time>
      </trkpt>
      <trkpt lat="47.73161" lon="5.00805">
        <ele>460.96</ele>
        <time>2022-06-02T07:48:48Z</time>
      </trkpt>
      <trkpt lat="47.73159" lon="5.00808">
        <ele>461.22</ele>
        <time>2022-06-02T07:48:49Z</time>
      </trkpt>
      <trkpt lat="47.73156" lon="5.00811">
        <ele>461.44</ele>
        <time>2022-06-02T07:48:51Z</time>
      </trkpt>
      <trkpt lat="47.73153" lon="5.00813">
        <ele>461.54</ele>
        <time>2022-06-02T07:48:54Z</time>
      </trkpt>
      <trkpt lat="47.73151" lon="5.00815">
        <ele>461.64</ele>
        <time>2022-06-02T07:48:56Z</time>
      </trkpt>
      <trkpt lat="47.73148" lon="5.00817">
        <ele>461.68</ele>
        <time>2022-06-02T07:49:00Z</time>
      </trkpt>
      <trkpt lat="47.73146" lon="5.00819">
        <ele>461.73</ele>
        <time>2022-06-02T07:49:04Z</time>
      </trkpt>
      <trkpt lat="47.73143" lon="5.00821">
        <ele>461.72</ele>
        <time>2022-06-02T07:49:05Z</time>
      </trkpt>
      <trkpt lat="47.73141" lon="5.00823">
        <ele>461.72</ele>
        <time>2022-06-02T07:49:09Z</time>
      </trkpt>
      <trkpt lat="47.73138" lon="5.00826">
        <ele>461.72</ele>
        <time>2022-06-02T07:49:13Z</time>
      </trkpt>
      <trkpt lat="47.73136" lon="5.00828">
        <ele>461.77</ele>
        <time>2022-06-02T07:49:14Z</time>
      </trkpt>
      <trkpt lat="47.73134" lon="5.00832">
        <ele>461.94</ele>
        <time>2022-06-02T07:49:19Z</time>
      </trkpt>
      <trkpt lat="47.73131" lon="5.00834">
        <ele>462.11</ele>
        <time>2022-06-02T07:49:22Z</time>
      </trkpt>
      <trkpt lat="47.73128" lon="5.00837">
        <ele>462.61</ele>
        <time>2022-06-02T07:49:27Z</time>
      </trkpt>
      <trkpt lat="47.73126" lon="5.00839">
        <ele>462.93</ele>
        <time>2022-06-02T07:49:29Z</time>
      </trkpt>
      <trkpt lat="47.73123" lon="5.00841">
        <ele>463.22</ele>
        <time>2022-06-02T07:49:33Z</time>
      </trkpt>
      <trkpt lat="47.7312" lon="5.00843">
        <ele>463.5</ele>
        <time>2022-06-02T07:49:37Z</time>
      </trkpt>
      <trkpt lat="47.73117" lon="5.00844">
        <ele>463.62</ele>
        <time>2022-06-02T07:49:41Z</time>
      </trkpt>
      <trkpt lat="47.73114" lon="5.00845">
        <ele>463.72</ele>
        <time>2022-06-02T07:49:45Z</time>
      </trkpt>
      <trkpt lat="47.73112" lon="5.00846">
        <ele>463.84</ele>
        <time>2022-06-02T07:49:47Z</time>
      </trkpt>
      <trkpt lat="47.73109" lon="5.00848">
        <ele>463.84</ele>
        <time>2022-06-02T07:49:49Z</time>
      </trkpt>
      <trkpt lat="47.73107" lon="5.00851">
        <ele>463.97</ele>
        <time>2022-06-02T07:49:54Z</time>
      </trkpt>
      <trkpt lat="47.73105" lon="5.00854">
        <ele>464.04</ele>
        <time>2022-06-02T07:49:57Z</time>
      </trkpt>
      <trkpt lat="47.73104" lon="5.00858">
        <ele>464.36</ele>
        <time>2022-06-02T07:50:01Z</time>
      </trkpt>
      <trkpt lat="47.73102" lon="5.00861">
        <ele>464.35</ele>
        <time>2022-06-02T07:50:03Z</time>
      </trkpt>
      <trkpt lat="47.73099" lon="5.00863">
        <ele>463.99</ele>
        <time>2022-06-02T07:50:07Z</time>
      </trkpt>
      <trkpt lat="47.73096" lon="5.00865">
        <ele>463.62</ele>
        <time>2022-06-02T07:50:12Z</time>
      </trkpt>
      <trkpt lat="47.73094" lon="5.00867">
        <ele>463.43</ele>
        <time>2022-06-02T07:50:18Z</time>
      </trkpt>
      <trkpt lat="47.73092" lon="5.00869">
        <ele>463.22</ele>
        <time>2022-06-02T07:50:22Z</time>
      </trkpt>
      <trkpt lat="47.73089" lon="5.00871">
        <ele>462.8</ele>
        <time>2022-06-02T07:50:27Z</time>
      </trkpt>
      <trkpt lat="47.73086" lon="5.00873">
        <ele>462.38</ele>
        <time>2022-06-02T07:50:31Z</time>
      </trkpt>
      <trkpt lat="47.73084" lon="5.00875">
        <ele>462.13</ele>
        <time>2022-06-02T07:50:37Z</time>
      </trkpt>
      <trkpt lat="47.73081" lon="5.00878">
        <ele>462.07</ele>
        <time>2022-06-02T07:50:41Z</time>
      </trkpt>
      <trkpt lat="47.73078" lon="5.0088">
        <ele>462.05</ele>
        <time>2022-06-02T07:50:46Z</time>
      </trkpt>
      <trkpt lat="47.73076" lon="5.00882">
        <ele>462.11</ele>
        <time>2022-06-02T07:50:51Z</time>
      </trkpt>
      <trkpt lat="47.73073" lon="5.00883">
        <ele>462.05</ele>
        <time>2022-06-02T07:50:53Z</time>
      </trkpt>
      <trkpt lat="47.7307" lon="5.00884">
        <ele>462</ele>
        <time>2022-06-02T07:50:57Z</time>
      </trkpt>
      <trkpt lat="47.73067" lon="5.00886">
        <ele>462.08</ele>
        <time>2022-06-02T07:51:02Z</time>
      </trkpt>
      <trkpt lat="47.73065" lon="5.00889">
        <ele>462.37</ele>
        <time>2022-06-02T07:51:06Z</time>
      </trkpt>
      <trkpt lat="47.73063" lon="5.00892">
        <ele>463.04</ele>
        <time>2022-06-02T07:51:11Z</time>
      </trkpt>
      <trkpt lat="47.7306" lon="5.00894">
        <ele>463.51</ele>
        <time>2022-06-02T07:51:19Z</time>
      </trkpt>
      <trkpt lat="47.73057" lon="5.00896">
        <ele>464.05</ele>
        <time>2022-06-02T07:51:20Z</time>
      </trkpt>
      <trkpt lat="47.73054" lon="5.00898">
        <ele>464.51</ele>
        <time>2022-06-02T07:51:27Z</time>
      </trkpt>
      <trkpt lat="47.73052" lon="5.009">
        <ele>464.92</ele>
        <time>2022-06-02T07:51:31Z</time>
      </trkpt>
      <trkpt lat="47.73048" lon="5.00901">
        <ele>464.86</ele>
        <time>2022-06-02T07:51:34Z</time>
      </trkpt>
      <trkpt lat="47.73046" lon="5.00903">
        <ele>465.2</ele>
        <time>2022-06-02T07:51:39Z</time>
      </trkpt>
      <trkpt lat="47.73044" lon="5.00906">
        <ele>465.74</ele>
        <time>2022-06-02T07:51:47Z</time>
      </trkpt>
      <trkpt lat="47.73041" lon="5.00908">
        <ele>465.9</ele>
        <time>2022-06-02T07:51:53Z</time>
      </trkpt>
      <trkpt lat="47.73039" lon="5.00911">
        <ele>466.35</ele>
        <time>2022-06-02T07:51:55Z</time>
      </trkpt>
      <trkpt lat="47.73036" lon="5.00912">
        <ele>466.19</ele>
        <time>2022-06-02T07:52:01Z</time>
      </trkpt>
      <trkpt lat="47.73033" lon="5.00915">
        <ele>466.42</ele>
        <time>2022-06-02T07:52:06Z</time>
      </trkpt>
      <trkpt lat="47.73031" lon="5.00917">
        <ele>466.52</ele>
        <time>2022-06-02T07:52:13Z</time>
      </trkpt>
      <trkpt lat="47.73028" lon="5.00918">
        <ele>466.27</ele>
        <time>2022-06-02T07:52:16Z</time>
      </trkpt>
      <trkpt lat="47.73025" lon="5.00919">
        <ele>466.03</ele>
        <time>2022-06-02T07:52:18Z</time>
      </trkpt>
      <trkpt lat="47.73023" lon="5.0092">
        <ele>465.93</ele>
        <time>2022-06-02T07:52:23Z</time>
      </trkpt>
      <trkpt lat="47.73021" lon="5.00923">
        <ele>466.22</ele>
        <time>2022-06-02T07:52:28Z</time>
      </trkpt>
      <trkpt lat="47.73019" lon="5.00926">
        <ele>466.52</ele>
        <time>2022-06-02T07:52:36Z</time>
      </trkpt>
      <trkpt lat="47.73016" lon="5.00928">
        <ele>466.52</ele>
        <time>2022-06-02T07:52:41Z</time>
      </trkpt>
      <trkpt lat="47.73013" lon="5.00928">
        <ele>466.13</ele>
        <time>2022-06-02T07:52:47Z</time>
      </trkpt>
      <trkpt lat="47.73011" lon="5.00929">
        <ele>466.07</ele>
        <time>2022-06-02T07:52:50Z</time>
      </trkpt>
      <trkpt lat="47.73008" lon="5.00931">
        <ele>466.1</ele>
        <time>2022-06-02T07:52:56Z</time>
      </trkpt>
      <trkpt lat="47.73005" lon="5.00933">
        <ele>466.14</ele>
        <time>2022-06-02T07:53:00Z</time>
      </trkpt>
      <trkpt lat="47.73003" lon="5.00936">
        <ele>466.53</ele>
        <time>2022-06-02T07:53:03Z</time>
      </trkpt>
      <trkpt lat="47.73001" lon="5.00939">
        <ele>466.94</ele>
        <time>2022-06-02T07:53:11Z</time>
      </trkpt>
      <trkpt lat="47.72998" lon="5.00941">
        <ele>466.9</ele>
        <time>2022-06-02T07:53:17Z</time>
      </trkpt>
      <trkpt lat="47.72995" lon="5.00943">
        <ele>466.8</ele>
        <time>2022-06-02T07:53:18Z</time>
      </trkpt>
      <trkpt lat="47.72993" lon="5.00945">
        <ele>466.79</ele>
        <time>2022-06-02T07:53:23Z</time>
      </trkpt>
      <trkpt lat="47.7299" lon="5.00947">
        <ele>466.44</ele>
        <time>2022-06-02T07:53:27Z</time>
      </trkpt>
      <trkpt lat="47.72987" lon="5.00949">
        <ele>466.08</ele>
        <time>2022-06-02T07:53:31Z</time>
      </trkpt>
      <trkpt lat="47.72985" lon="5.00953">
        <ele>466.06</ele>
        <time>2022-06-02T07:53:35Z</time>
      </trkpt>
      <trkpt lat="47.72984" lon="5.00956">
        <ele>466.13</ele>
        <time>2022-06-02T07:53:39Z</time>
      </trkpt>
      <trkpt lat="47.72981" lon="5.00958">
        <ele>465.71</ele>
        <time>2022-06-02T07:53:45Z</time>
      </trkpt>
      <trkpt lat="47.72978" lon="5.00959">
        <ele>465.2</ele>
        <time>2022-06-02T07:53:47Z</time>
      </trkpt>
      <trkpt lat="47.72975" lon="5.00961">
        <ele>464.75</ele>
        <time>2022-06-02T07:53:52Z</time>
      </trkpt>
      <trkpt lat="47.72972" lon="5.00963">
        <ele>464.33</ele>
        <time>2022-06-02T07:53:55Z</time>
      </trkpt>
      <trkpt lat="47.7297" lon="5.00966">
        <ele>464.45</ele>
        <time>2022-06-02T07:53:58Z</time>
      </trkpt>
      <trkpt lat="47.72968" lon="5.00968">
        <ele>464.46</ele>
        <time>2022-06-02T07:54:03Z</time>
      </trkpt>
      <trkpt lat="47.72966" lon="5.00972">
        <ele>464.54</ele>
        <time>2022-06-02T07:54:07Z</time>
      </trkpt>
      <trkpt lat="47.72964" lon="5.00975">
        <ele>464.75</ele>
        <time>2022-06-02T07:54:11Z</time>
      </trkpt>
      <trkpt lat="47.72962" lon="5.00978">
        <ele>464.94</ele>
        <time>2022-06-02T07:54:17Z</time>
      </trkpt>
      <trkpt lat="47.72959" lon="5.0098">
        <ele>464.9</ele>
        <time>2022-06-02T07:54:26Z</time>
      </trkpt>
      <trkpt lat="47.72958" lon="5.00983">
        <ele>465.13</ele>
        <time>2022-06-02T07:54:30Z</time>
      </trkpt>
      <trkpt lat="47.72955" lon="5.00986">
        <ele>465.13</ele>
        <time>2022-06-02T07:54:34Z</time>
      </trkpt>
      <trkpt lat="47.72952" lon="5.00988">
        <ele>464.99</ele>
        <time>2022-06-02T07:54:36Z</time>
      </trkpt>
      <trkpt lat="47.72949" lon="5.00991">
        <ele>464.9</ele>
        <time>2022-06-02T07:54:40Z</time>
      </trkpt>
      <trkpt lat="47.72947" lon="5.00994">
        <ele>464.9</ele>
        <time>2022-06-02T07:54:44Z</time>
      </trkpt>
      <trkpt lat="47.72945" lon="5.00997">
        <ele>464.86</ele>
        <time>2022-06-02T07:54:46Z</time>
      </trkpt>
      <trkpt lat="47.72942" lon="5.00999">
        <ele>464.84</ele>
        <time>2022-06-02T07:54:51Z</time>
      </trkpt>
      <trkpt lat="47.7294" lon="5.01002">
        <ele>465.14</ele>
        <time>2022-06-02T07:54:57Z</time>
      </trkpt>
      <trkpt lat="47.72938" lon="5.01004">
        <ele>465.32</ele>
        <time>2022-06-02T07:55:02Z</time>
      </trkpt>
      <trkpt lat="47.72935" lon="5.01005">
        <ele>465.25</ele>
        <time>2022-06-02T07:55:07Z</time>
      </trkpt>
      <trkpt lat="47.72932" lon="5.01005">
        <ele>465.05</ele>
        <time>2022-06-02T07:55:12Z</time>
      </trkpt>
      <trkpt lat="47.7293" lon="5.01007">
        <ele>465.08</ele>
        <time>2022-06-02T07:55:16Z</time>
      </trkpt>
      <trkpt lat="47.72927" lon="5.01009">
        <ele>464.97</ele>
        <time>2022-06-02T07:55:18Z</time>
      </trkpt>
      <trkpt lat="47.72925" lon="5.01011">
        <ele>464.89</ele>
        <time>2022-06-02T07:55:22Z</time>
      </trkpt>
      <trkpt lat="47.72922" lon="5.01012">
        <ele>464.61</ele>
        <time>2022-06-02T07:55:29Z</time>
      </trkpt>
      <trkpt lat="47.72919" lon="5.01013">
        <ele>464.28</ele>
        <time>2022-06-02T07:55:39Z</time>
      </trkpt>
      <trkpt lat="47.72917" lon="5.01016">
        <ele>464.05</ele>
        <time>2022-06-02T07:55:42Z</time>
      </trkpt>
      <trkpt lat="47.72915" lon="5.01019">
        <ele>463.8</ele>
        <time>2022-06-02T07:55:45Z</time>
      </trkpt>
      <trkpt lat="47.72912" lon="5.01021">
        <ele>463.46</ele>
        <time>2022-06-02T07:55:47Z</time>
      </trkpt>
      <trkpt lat="47.72909" lon="5.01022">
        <ele>463.11</ele>
        <time>2022-06-02T07:55:55Z</time>
      </trkpt>
      <trkpt lat="47.72907" lon="5.01025">
        <ele>462.92</ele>
        <time>2022-06-02T07:56:00Z</time>
      </trkpt>
      <trkpt lat="47.72905" lon="5.01029">
        <ele>462.83</ele>
        <time>2022-06-02T07:56:04Z</time>
      </trkpt>
      <trkpt lat="47.72903" lon="5.01031">
        <ele>462.76</ele>
        <time>2022-06-02T07:56:06Z</time>
      </trkpt>
      <trkpt lat="47.729" lon="5.01032">
        <ele>462.5</ele>
        <time>2022-06-02T07:56:11Z</time>
      </trkpt>
      <trkpt lat="47.72897" lon="5.01035">
        <ele>462.4</ele>
        <time>2022-06-02T07:56:15Z</time>
      </trkpt>
      <trkpt lat="47.72894" lon="5.01038">
        <ele>462.29</ele>
        <time>2022-06-02T07:56:20Z</time>
      </trkpt>
      <trkpt lat="47.72891" lon="5.0104">
        <ele>462.11</ele>
        <time>2022-06-02T07:56:24Z</time>
      </trkpt>
      <trkpt lat="47.72889" lon="5.01042">
        <ele>462.04</ele>
        <time>2022-06-02T07:56:27Z</time>
      </trkpt>
      <trkpt lat="47.72887" lon="5.01045">
        <ele>462.17</ele>
        <time>2022-06-02T07:56:32Z</time>
      </trkpt>
      <trkpt lat="47.72885" lon="5.01048">
        <ele>462.32</ele>
        <time>2022-06-02T07:56:36Z</time>
      </trkpt>
      <trkpt lat="47.72882" lon="5.0105">
        <ele>462.35</ele>
        <time>2022-06-02T07:56:40Z</time>
      </trkpt>
      <trkpt lat="47.7288" lon="5.01052">
        <ele>462.42</ele>
        <time>2022-06-02T07:56:42Z</time>
      </trkpt>
      <trkpt lat="47.72877" lon="5.01054">
        <ele>462.46</ele>
        <time>2022-06-02T07:56:46Z</time>
      </trkpt>
      <trkpt lat="47.72875" lon="5.01057">
        <ele>462.66</ele>
        <time>2022-06-02T07:56:51Z</time>
      </trkpt>
      <trkpt lat="47.72873" lon="5.0106">
        <ele>462.88</ele>
        <time>2022-06-02T07:56:56Z</time>
      </trkpt>
      <trkpt lat="47.7287" lon="5.01062">
        <ele>462.93</ele>
        <time>2022-06-02T07:57:02Z</time>
      </trkpt>
      <trkpt lat="47.72868" lon="5.01065">
        <ele>463.1</ele>
        <time>2022-06-02T07:57:05Z</time>
      </trkpt>
      <trkpt lat="47.72865" lon="5.01067">
        <ele>463.08</ele>
        <time>2022-06-02T07:57:12Z</time>
      </trkpt>
      <trkpt lat="47.72863" lon="5.01069">
        <ele>463.1</ele>
        <time>2022-06-02T07:57:17Z</time>
      </trkpt>
      <trkpt lat="47.72861" lon="5.01072">
        <ele>463.18</ele>
        <time>2022-06-02T07:57:23Z</time>
      </trkpt>
      <trkpt lat="47.72859" lon="5.01074">
        <ele>463.35</ele>
        <time>2022-06-02T07:57:26Z</time>
      </trkpt>
      <trkpt lat="47.72856" lon="5.01075">
        <ele>463.47</ele>
        <time>2022-06-02T07:57:27Z</time>
      </trkpt>
      <trkpt lat="47.72853" lon="5.01077">
        <ele>463.7</ele>
        <time>2022-06-02T07:57:31Z</time>
      </trkpt>
      <trkpt lat="47.72851" lon="5.01079">
        <ele>463.94</ele>
        <time>2022-06-02T07:57:35Z</time>
      </trkpt>
      <trkpt lat="47.72849" lon="5.01081">
        <ele>464.19</ele>
        <time>2022-06-02T07:57:37Z</time>
      </trkpt>
      <trkpt lat="47.72846" lon="5.01084">
        <ele>464.59</ele>
        <time>2022-06-02T07:57:43Z</time>
      </trkpt>
      <trkpt lat="47.72843" lon="5.01086">
        <ele>464.84</ele>
        <time>2022-06-02T07:57:45Z</time>
      </trkpt>
      <trkpt lat="47.7284" lon="5.01088">
        <ele>465.1</ele>
        <time>2022-06-02T07:57:48Z</time>
      </trkpt>
      <trkpt lat="47.72837" lon="5.01089">
        <ele>465.28</ele>
        <time>2022-06-02T07:57:52Z</time>
      </trkpt>
      <trkpt lat="47.72834" lon="5.01091">
        <ele>465.53</ele>
        <time>2022-06-02T07:57:56Z</time>
      </trkpt>
      <trkpt lat="47.72832" lon="5.01093">
        <ele>465.52</ele>
        <time>2022-06-02T07:58:02Z</time>
      </trkpt>
      <trkpt lat="47.72829" lon="5.01095">
        <ele>465.24</ele>
        <time>2022-06-02T07:58:05Z</time>
      </trkpt>
      <trkpt lat="47.72827" lon="5.01097">
        <ele>465.08</ele>
        <time>2022-06-02T07:58:09Z</time>
      </trkpt>
      <trkpt lat="47.72824" lon="5.01099">
        <ele>464.74</ele>
        <time>2022-06-02T07:58:12Z</time>
      </trkpt>
      <trkpt lat="47.72821" lon="5.01101">
        <ele>464.38</ele>
        <time>2022-06-02T07:58:15Z</time>
      </trkpt>
      <trkpt lat="47.72818" lon="5.01102">
        <ele>463.95</ele>
        <time>2022-06-02T07:58:19Z</time>
      </trkpt>
      <trkpt lat="47.72815" lon="5.01104">
        <ele>463.53</ele>
        <time>2022-06-02T07:58:23Z</time>
      </trkpt>
      <trkpt lat="47.72813" lon="5.01106">
        <ele>463.24</ele>
        <time>2022-06-02T07:58:25Z</time>
      </trkpt>
      <trkpt lat="47.7281" lon="5.01108">
        <ele>462.76</ele>
        <time>2022-06-02T07:58:31Z</time>
      </trkpt>
      <trkpt lat="47.72808" lon="5.01111">
        <ele>462.44</ele>
        <time>2022-06-02T07:58:36Z</time>
      </trkpt>
      <trkpt lat="47.72806" lon="5.01114">
        <ele>462.39</ele>
        <time>2022-06-02T07:58:40Z</time>
      </trkpt>
      <trkpt lat="47.72804" lon="5.01116">
        <ele>462.56</ele>
        <time>2022-06-02T07:58:41Z</time>
      </trkpt>
      <trkpt lat="47.72801" lon="5.01119">
        <ele>462.92</ele>
        <time>2022-06-02T07:58:46Z</time>
      </trkpt>
      <trkpt lat="47.72799" lon="5.01122">
        <ele>463.23</ele>
        <time>2022-06-02T07:58:49Z</time>
      </trkpt>
      <trkpt lat="47.72796" lon="5.01124">
        <ele>463.42</ele>
        <time>2022-06-02T07:58:53Z</time>
      </trkpt>
      <trkpt lat="47.72794" lon="5.01126">
        <ele>463.58</ele>
        <time>2022-06-02T07:58:56Z</time>
      </trkpt>
      <trkpt lat="47.72792" lon="5.01128">
        <ele>463.72</ele>
        <time>2022-06-02T07:59:01Z</time>
      </trkpt>
      <trkpt lat="47.72789" lon="5.0113">
        <ele>463.83</ele>
        <time>2022-06-02T07:59:06Z</time>
      </trkpt>
      <trkpt lat="47.72786" lon="5.01132">
        <ele>463.9</ele>
        <time>2022-06-02T07:59:08Z</time>
      </trkpt>
      <trkpt lat="47.72783" lon="5.01133">
        <ele>463.9</ele>
        <time>2022-06-02T07:59:12Z</time>
      </trkpt>
      <trkpt lat="47.7278" lon="5.01134">
        <ele>463.88</ele>
        <time>2022-06-02T07:59:15Z</time>
      </trkpt>
      <trkpt lat="47.72778" lon="5.01137">
        <ele>463.94</ele>
        <time>2022-06-02T07:59:17Z</time>
      </trkpt>
      <trkpt lat="47.72776" lon="5.0114">
        <ele>464.13</ele>
        <time>2022-06-02T07:59:21Z</time>
      </trkpt>
      <trkpt lat="47.72773" lon="5.01142">
        <ele>464.34</ele>
        <time>2022-06-02T07:59:25Z</time>
      </trkpt>
      <trkpt lat="47.7277" lon="5.01144">
        <ele>464.56</ele>
        <time>2022-06-02T07:59:29Z</time>
      </trkpt>
      <trkpt lat="47.72767" lon="5.01144">
        <ele>464.78</ele>
        <time>2022-06-02T07:59:34Z</time>
      </trkpt>
      <trkpt lat="47.72764" lon="5.01144">
        <ele>464.99</ele>
        <time>2022-06-02T07:59:38Z</time>
      </trkpt>
      <trkpt lat="47.72761" lon="5.01146">
        <ele>465.21</ele>
        <time>2022-06-02T07:59:42Z</time>
      </trkpt>
      <trkpt lat="47.72759" lon="5.01148">
        <ele>465.35</ele>
        <time>2022-06-02T07:59:43Z</time>
      </trkpt>
      <trkpt lat="47.72757" lon="5.01152">
        <ele>465.5</ele>
        <time>2022-06-02T07:59:47Z</time>
      </trkpt>
      <trkpt lat="47.72754" lon="5.01155">
        <ele>465.71</ele>
        <time>2022-06-02T07:59:52Z</time>
      </trkpt>
      <trkpt lat="47.72752" lon="5.01157">
        <ele>465.86</ele>
        <time>2022-06-02T07:59:57Z</time>
      </trkpt>
      <trkpt lat="47.72749" lon="5.01158">
        <ele>465.88</ele>
        <time>2022-06-02T08:00:02Z</time>
      </trkpt>
      <trkpt lat="47.72747" lon="5.01162">
        <ele>465.66</ele>
        <time>2022-06-02T08:00:07Z</time>
      </trkpt>
      <trkpt lat="47.72746" lon="5.01166">
        <ele>465.56</ele>
        <time>2022-06-02T08:00:16Z</time>
      </trkpt>
      <trkpt lat="47.72743" lon="5.01169">
        <ele>465.37</ele>
        <time>2022-06-02T08:00:20Z</time>
      </trkpt>
      <trkpt lat="47.7274" lon="5.01171">
        <ele>465.19</ele>
        <time>2022-06-02T08:00:24Z</time>
      </trkpt>
      <trkpt lat="47.72737" lon="5.01172">
        <ele>464.97</ele>
        <time>2022-06-02T08:00:25Z</time>
      </trkpt>
      <trkpt lat="47.72735" lon="5.01174">
        <ele>464.93</ele>
        <time>2022-06-02T08:00:29Z</time>
      </trkpt>
      <trkpt lat="47.72732" lon="5.01177">
        <ele>464.91</ele>
        <time>2022-06-02T08:00:31Z</time>
      </trkpt>
      <trkpt lat="47.72729" lon="5.01178">
        <ele>464.76</ele>
        <time>2022-06-02T08:00:35Z</time>
      </trkpt>
      <trkpt lat="47.72726" lon="5.01178">
        <ele>464.52</ele>
        <time>2022-06-02T08:00:39Z</time>
      </trkpt>
      <trkpt lat="47.72723" lon="5.01178">
        <ele>464.29</ele>
        <time>2022-06-02T08:00:48Z</time>
      </trkpt>
      <trkpt lat="47.7272" lon="5.01177">
        <ele>463.53</ele>
        <time>2022-06-02T08:00:53Z</time>
      </trkpt>
      <trkpt lat="47.72717" lon="5.01176">
        <ele>462.63</ele>
        <time>2022-06-02T08:01:15Z</time>
      </trkpt>
      <trkpt lat="47.72715" lon="5.01175">
        <ele>462</ele>
        <time>2022-06-02T08:01:42Z</time>
      </trkpt>
      <trkpt lat="47.72712" lon="5.01176">
        <ele>461.31</ele>
        <time>2022-06-02T08:02:04Z</time>
      </trkpt>
      <trkpt lat="47.72712" lon="5.01181">
        <ele>461.78</ele>
        <time>2022-06-02T08:02:17Z</time>
      </trkpt>
      <trkpt lat="47.72714" lon="5.01177">
        <ele>461.93</ele>
        <time>2022-06-02T08:02:59Z</time>
      </trkpt>
      <trkpt lat="47.72714" lon="5.01181">
        <ele>462.32</ele>
        <time>2022-06-02T08:04:21Z</time>
      </trkpt>
      <trkpt lat="47.72711" lon="5.01183">
        <ele>461.7</ele>
        <time>2022-06-02T08:04:23Z</time>
      </trkpt>
      <trkpt lat="47.72713" lon="5.01179">
        <ele>461.86</ele>
        <time>2022-06-02T08:04:49Z</time>
      </trkpt>
      <trkpt lat="47.72714" lon="5.01175">
        <ele>461.74</ele>
        <time>2022-06-02T08:04:53Z</time>
      </trkpt>
      <trkpt lat="47.72713" lon="5.01171">
        <ele>461.09</ele>
        <time>2022-06-02T08:05:06Z</time>
      </trkpt>
      <trkpt lat="47.72713" lon="5.01166">
        <ele>460.65</ele>
        <time>2022-06-02T08:05:11Z</time>
      </trkpt>
      <trkpt lat="47.72711" lon="5.01163">
        <ele>460.04</ele>
        <time>2022-06-02T08:05:14Z</time>
      </trkpt>
      <trkpt lat="47.7271" lon="5.01159">
        <ele>459.64</ele>
        <time>2022-06-02T08:05:19Z</time>
      </trkpt>
      <trkpt lat="47.72709" lon="5.01155">
        <ele>459.25</ele>
        <time>2022-06-02T08:05:23Z</time>
      </trkpt>
      <trkpt lat="47.72709" lon="5.0115">
        <ele>459.07</ele>
        <time>2022-06-02T08:05:26Z</time>
      </trkpt>
      <trkpt lat="47.72709" lon="5.01144">
        <ele>458.85</ele>
        <time>2022-06-02T08:05:31Z</time>
      </trkpt>
      <trkpt lat="47.7271" lon="5.01139">
        <ele>458.92</ele>
        <time>2022-06-02T08:05:32Z</time>
      </trkpt>
      <trkpt lat="47.7271" lon="5.01134">
        <ele>458.53</ele>
        <time>2022-06-02T08:05:35Z</time>
      </trkpt>
      <trkpt lat="47.72711" lon="5.0113">
        <ele>458.41</ele>
        <time>2022-06-02T08:05:36Z</time>
      </trkpt>
      <trkpt lat="47.72712" lon="5.01126">
        <ele>458.25</ele>
        <time>2022-06-02T08:05:39Z</time>
      </trkpt>
      <trkpt lat="47.72712" lon="5.01122">
        <ele>457.89</ele>
        <time>2022-06-02T08:05:41Z</time>
      </trkpt>
      <trkpt lat="47.72714" lon="5.01118">
        <ele>457.81</ele>
        <time>2022-06-02T08:05:44Z</time>
      </trkpt>
      <trkpt lat="47.72715" lon="5.01114">
        <ele>457.53</ele>
        <time>2022-06-02T08:05:46Z</time>
      </trkpt>
      <trkpt lat="47.72715" lon="5.01109">
        <ele>456.88</ele>
        <time>2022-06-02T08:05:50Z</time>
      </trkpt>
      <trkpt lat="47.72715" lon="5.01105">
        <ele>456.23</ele>
        <time>2022-06-02T08:05:50Z</time>
      </trkpt>
      <trkpt lat="47.72715" lon="5.01101">
        <ele>455.59</ele>
        <time>2022-06-02T08:05:54Z</time>
      </trkpt>
      <trkpt lat="47.72715" lon="5.01096">
        <ele>454.78</ele>
        <time>2022-06-02T08:05:59Z</time>
      </trkpt>
      <trkpt lat="47.72715" lon="5.01091">
        <ele>453.98</ele>
        <time>2022-06-02T08:06:02Z</time>
      </trkpt>
      <trkpt lat="47.72715" lon="5.01087">
        <ele>453.33</ele>
        <time>2022-06-02T08:06:04Z</time>
      </trkpt>
      <trkpt lat="47.72714" lon="5.01082">
        <ele>452.51</ele>
        <time>2022-06-02T08:06:06Z</time>
      </trkpt>
      <trkpt lat="47.72713" lon="5.01078">
        <ele>451.9</ele>
        <time>2022-06-02T08:06:09Z</time>
      </trkpt>
      <trkpt lat="47.72712" lon="5.01073">
        <ele>451.18</ele>
        <time>2022-06-02T08:06:16Z</time>
      </trkpt>
      <trkpt lat="47.72712" lon="5.01068">
        <ele>450.48</ele>
        <time>2022-06-02T08:06:19Z</time>
      </trkpt>
      <trkpt lat="47.72711" lon="5.01064">
        <ele>449.96</ele>
        <time>2022-06-02T08:06:22Z</time>
      </trkpt>
      <trkpt lat="47.7271" lon="5.0106">
        <ele>449.47</ele>
        <time>2022-06-02T08:06:26Z</time>
      </trkpt>
      <trkpt lat="47.72709" lon="5.01056">
        <ele>449.01</ele>
        <time>2022-06-02T08:06:29Z</time>
      </trkpt>
      <trkpt lat="47.72708" lon="5.01052">
        <ele>448.7</ele>
        <time>2022-06-02T08:06:31Z</time>
      </trkpt>
      <trkpt lat="47.72707" lon="5.01047">
        <ele>448.28</ele>
        <time>2022-06-02T08:06:33Z</time>
      </trkpt>
      <trkpt lat="47.72707" lon="5.01043">
        <ele>447.9</ele>
        <time>2022-06-02T08:06:35Z</time>
      </trkpt>
      <trkpt lat="47.72706" lon="5.01038">
        <ele>447.43</ele>
        <time>2022-06-02T08:06:38Z</time>
      </trkpt>
      <trkpt lat="47.72705" lon="5.01034">
        <ele>447.02</ele>
        <time>2022-06-02T08:06:42Z</time>
      </trkpt>
      <trkpt lat="47.72704" lon="5.0103">
        <ele>446.58</ele>
        <time>2022-06-02T08:06:45Z</time>
      </trkpt>
      <trkpt lat="47.72703" lon="5.01026">
        <ele>446.31</ele>
        <time>2022-06-02T08:06:46Z</time>
      </trkpt>
      <trkpt lat="47.72702" lon="5.01022">
        <ele>446.31</ele>
        <time>2022-06-02T08:06:49Z</time>
      </trkpt>
      <trkpt lat="47.72701" lon="5.01018">
        <ele>446.34</ele>
        <time>2022-06-02T08:06:51Z</time>
      </trkpt>
      <trkpt lat="47.72699" lon="5.01014">
        <ele>446.42</ele>
        <time>2022-06-02T08:06:54Z</time>
      </trkpt>
      <trkpt lat="47.72697" lon="5.0101">
        <ele>446.56</ele>
        <time>2022-06-02T08:06:57Z</time>
      </trkpt>
      <trkpt lat="47.72695" lon="5.01007">
        <ele>446.72</ele>
        <time>2022-06-02T08:06:59Z</time>
      </trkpt>
      <trkpt lat="47.72694" lon="5.01002">
        <ele>446.98</ele>
        <time>2022-06-02T08:07:04Z</time>
      </trkpt>
      <trkpt lat="47.72692" lon="5.00997">
        <ele>447.26</ele>
        <time>2022-06-02T08:07:06Z</time>
      </trkpt>
      <trkpt lat="47.72691" lon="5.00993">
        <ele>447.37</ele>
        <time>2022-06-02T08:07:10Z</time>
      </trkpt>
      <trkpt lat="47.7269" lon="5.00989">
        <ele>447.48</ele>
        <time>2022-06-02T08:07:11Z</time>
      </trkpt>
      <trkpt lat="47.72688" lon="5.00985">
        <ele>447.7</ele>
        <time>2022-06-02T08:07:13Z</time>
      </trkpt>
      <trkpt lat="47.72686" lon="5.00982">
        <ele>447.91</ele>
        <time>2022-06-02T08:07:16Z</time>
      </trkpt>
      <trkpt lat="47.72685" lon="5.00979">
        <ele>448.02</ele>
        <time>2022-06-02T08:07:18Z</time>
      </trkpt>
      <trkpt lat="47.72683" lon="5.00974">
        <ele>448.24</ele>
        <time>2022-06-02T08:07:23Z</time>
      </trkpt>
      <trkpt lat="47.72682" lon="5.00971">
        <ele>448.43</ele>
        <time>2022-06-02T08:07:24Z</time>
      </trkpt>
      <trkpt lat="47.7268" lon="5.00967">
        <ele>448.94</ele>
        <time>2022-06-02T08:07:26Z</time>
      </trkpt>
      <trkpt lat="47.72679" lon="5.00963">
        <ele>449.33</ele>
        <time>2022-06-02T08:07:29Z</time>
      </trkpt>
      <trkpt lat="47.72677" lon="5.00959">
        <ele>449.84</ele>
        <time>2022-06-02T08:07:30Z</time>
      </trkpt>
      <trkpt lat="47.72675" lon="5.00956">
        <ele>450.27</ele>
        <time>2022-06-02T08:07:33Z</time>
      </trkpt>
      <trkpt lat="47.72674" lon="5.00952">
        <ele>450.66</ele>
        <time>2022-06-02T08:07:37Z</time>
      </trkpt>
      <trkpt lat="47.72672" lon="5.00949">
        <ele>451.1</ele>
        <time>2022-06-02T08:07:42Z</time>
      </trkpt>
      <trkpt lat="47.7267" lon="5.00945">
        <ele>451.6</ele>
        <time>2022-06-02T08:07:43Z</time>
      </trkpt>
      <trkpt lat="47.72668" lon="5.00941">
        <ele>451.86</ele>
        <time>2022-06-02T08:07:47Z</time>
      </trkpt>
      <trkpt lat="47.72667" lon="5.00937">
        <ele>451.96</ele>
        <time>2022-06-02T08:07:48Z</time>
      </trkpt>
      <trkpt lat="47.72665" lon="5.00933">
        <ele>452.32</ele>
        <time>2022-06-02T08:07:51Z</time>
      </trkpt>
      <trkpt lat="47.72664" lon="5.00929">
        <ele>452.53</ele>
        <time>2022-06-02T08:07:52Z</time>
      </trkpt>
      <trkpt lat="47.72662" lon="5.00925">
        <ele>452.96</ele>
        <time>2022-06-02T08:07:56Z</time>
      </trkpt>
      <trkpt lat="47.72661" lon="5.0092">
        <ele>453.2</ele>
        <time>2022-06-02T08:08:00Z</time>
      </trkpt>
      <trkpt lat="47.72661" lon="5.00916">
        <ele>453.27</ele>
        <time>2022-06-02T08:08:02Z</time>
      </trkpt>
      <trkpt lat="47.72661" lon="5.00911">
        <ele>453.63</ele>
        <time>2022-06-02T08:08:05Z</time>
      </trkpt>
      <trkpt lat="47.7266" lon="5.00907">
        <ele>454.14</ele>
        <time>2022-06-02T08:08:08Z</time>
      </trkpt>
      <trkpt lat="47.72661" lon="5.00903">
        <ele>454.21</ele>
        <time>2022-06-02T08:08:12Z</time>
      </trkpt>
      <trkpt lat="47.72661" lon="5.00898">
        <ele>454.57</ele>
        <time>2022-06-02T08:08:16Z</time>
      </trkpt>
      <trkpt lat="47.72661" lon="5.00893">
        <ele>454.93</ele>
        <time>2022-06-02T08:08:16Z</time>
      </trkpt>
      <trkpt lat="47.72662" lon="5.00888">
        <ele>455.21</ele>
        <time>2022-06-02T08:08:18Z</time>
      </trkpt>
      <trkpt lat="47.72663" lon="5.00884">
        <ele>455.93</ele>
        <time>2022-06-02T08:08:21Z</time>
      </trkpt>
      <trkpt lat="47.72664" lon="5.0088">
        <ele>456.69</ele>
        <time>2022-06-02T08:08:24Z</time>
      </trkpt>
      <trkpt lat="47.72665" lon="5.00875">
        <ele>457.74</ele>
        <time>2022-06-02T08:08:27Z</time>
      </trkpt>
      <trkpt lat="47.72666" lon="5.0087">
        <ele>458.84</ele>
        <time>2022-06-02T08:08:29Z</time>
      </trkpt>
      <trkpt lat="47.72668" lon="5.00866">
        <ele>459.4</ele>
        <time>2022-06-02T08:08:30Z</time>
      </trkpt>
      <trkpt lat="47.72669" lon="5.00861">
        <ele>460.34</ele>
        <time>2022-06-02T08:08:32Z</time>
      </trkpt>
      <trkpt lat="47.72671" lon="5.00858">
        <ele>460.11</ele>
        <time>2022-06-02T08:08:34Z</time>
      </trkpt>
      <trkpt lat="47.72672" lon="5.00853">
        <ele>460.4</ele>
        <time>2022-06-02T08:08:39Z</time>
      </trkpt>
      <trkpt lat="47.72673" lon="5.00849">
        <ele>460.58</ele>
        <time>2022-06-02T08:08:41Z</time>
      </trkpt>
      <trkpt lat="47.72674" lon="5.00845">
        <ele>460.78</ele>
        <time>2022-06-02T08:08:45Z</time>
      </trkpt>
      <trkpt lat="47.72676" lon="5.00842">
        <ele>460.61</ele>
        <time>2022-06-02T08:08:46Z</time>
      </trkpt>
      <trkpt lat="47.72678" lon="5.00838">
        <ele>460.57</ele>
        <time>2022-06-02T08:08:48Z</time>
      </trkpt>
      <trkpt lat="47.72679" lon="5.00833">
        <ele>460.93</ele>
        <time>2022-06-02T08:08:51Z</time>
      </trkpt>
      <trkpt lat="47.7268" lon="5.00828">
        <ele>461.21</ele>
        <time>2022-06-02T08:08:54Z</time>
      </trkpt>
      <trkpt lat="47.72682" lon="5.00824">
        <ele>461.18</ele>
        <time>2022-06-02T08:08:56Z</time>
      </trkpt>
      <trkpt lat="47.72684" lon="5.00821">
        <ele>461.07</ele>
        <time>2022-06-02T08:08:59Z</time>
      </trkpt>
      <trkpt lat="47.72685" lon="5.00817">
        <ele>461.33</ele>
        <time>2022-06-02T08:09:02Z</time>
      </trkpt>
      <trkpt lat="47.72688" lon="5.00814">
        <ele>461.09</ele>
        <time>2022-06-02T08:09:03Z</time>
      </trkpt>
      <trkpt lat="47.72689" lon="5.00811">
        <ele>461.27</ele>
        <time>2022-06-02T08:09:05Z</time>
      </trkpt>
      <trkpt lat="47.72692" lon="5.00808">
        <ele>461.1</ele>
        <time>2022-06-02T08:09:06Z</time>
      </trkpt>
      <trkpt lat="47.72694" lon="5.00805">
        <ele>461.08</ele>
        <time>2022-06-02T08:09:07Z</time>
      </trkpt>
      <trkpt lat="47.72696" lon="5.00802">
        <ele>460.7</ele>
        <time>2022-06-02T08:09:09Z</time>
      </trkpt>
      <trkpt lat="47.72699" lon="5.00798">
        <ele>460.24</ele>
        <time>2022-06-02T08:09:13Z</time>
      </trkpt>
      <trkpt lat="47.72701" lon="5.00795">
        <ele>460.03</ele>
        <time>2022-06-02T08:09:14Z</time>
      </trkpt>
      <trkpt lat="47.72703" lon="5.00792">
        <ele>459.9</ele>
        <time>2022-06-02T08:09:18Z</time>
      </trkpt>
      <trkpt lat="47.72705" lon="5.00788">
        <ele>459.92</ele>
        <time>2022-06-02T08:09:20Z</time>
      </trkpt>
      <trkpt lat="47.72707" lon="5.00784">
        <ele>460.04</ele>
        <time>2022-06-02T08:09:22Z</time>
      </trkpt>
      <trkpt lat="47.72709" lon="5.00782">
        <ele>460.08</ele>
        <time>2022-06-02T08:09:26Z</time>
      </trkpt>
      <trkpt lat="47.72712" lon="5.0078">
        <ele>460.12</ele>
        <time>2022-06-02T08:09:27Z</time>
      </trkpt>
      <trkpt lat="47.72715" lon="5.00777">
        <ele>460.36</ele>
        <time>2022-06-02T08:09:29Z</time>
      </trkpt>
      <trkpt lat="47.72717" lon="5.00775">
        <ele>460.53</ele>
        <time>2022-06-02T08:09:33Z</time>
      </trkpt>
      <trkpt lat="47.72719" lon="5.00771">
        <ele>460.9</ele>
        <time>2022-06-02T08:09:37Z</time>
      </trkpt>
      <trkpt lat="47.72721" lon="5.00768">
        <ele>461.13</ele>
        <time>2022-06-02T08:09:40Z</time>
      </trkpt>
      <trkpt lat="47.72724" lon="5.00765">
        <ele>461</ele>
        <time>2022-06-02T08:09:42Z</time>
      </trkpt>
      <trkpt lat="47.72727" lon="5.00763">
        <ele>460.55</ele>
        <time>2022-06-02T08:09:43Z</time>
      </trkpt>
      <trkpt lat="47.7273" lon="5.00761">
        <ele>460.07</ele>
        <time>2022-06-02T08:09:45Z</time>
      </trkpt>
      <trkpt lat="47.72732" lon="5.00758">
        <ele>459.87</ele>
        <time>2022-06-02T08:09:48Z</time>
      </trkpt>
      <trkpt lat="47.72735" lon="5.00756">
        <ele>459.33</ele>
        <time>2022-06-02T08:09:50Z</time>
      </trkpt>
      <trkpt lat="47.72737" lon="5.00753">
        <ele>459.07</ele>
        <time>2022-06-02T08:09:54Z</time>
      </trkpt>
      <trkpt lat="47.72739" lon="5.0075">
        <ele>458.77</ele>
        <time>2022-06-02T08:09:55Z</time>
      </trkpt>
      <trkpt lat="47.72742" lon="5.00748">
        <ele>458.16</ele>
        <time>2022-06-02T08:09:59Z</time>
      </trkpt>
      <trkpt lat="47.72744" lon="5.00745">
        <ele>457.87</ele>
        <time>2022-06-02T08:10:00Z</time>
      </trkpt>
      <trkpt lat="47.72746" lon="5.00741">
        <ele>457.66</ele>
        <time>2022-06-02T08:10:05Z</time>
      </trkpt>
      <trkpt lat="47.72748" lon="5.00738">
        <ele>457.37</ele>
        <time>2022-06-02T08:10:06Z</time>
      </trkpt>
      <trkpt lat="47.7275" lon="5.00735">
        <ele>457.08</ele>
        <time>2022-06-02T08:10:09Z</time>
      </trkpt>
      <trkpt lat="47.72753" lon="5.00732">
        <ele>457.19</ele>
        <time>2022-06-02T08:10:11Z</time>
      </trkpt>
      <trkpt lat="47.72755" lon="5.0073">
        <ele>457.26</ele>
        <time>2022-06-02T08:10:14Z</time>
      </trkpt>
      <trkpt lat="47.72758" lon="5.00727">
        <ele>457.37</ele>
        <time>2022-06-02T08:10:16Z</time>
      </trkpt>
      <trkpt lat="47.7276" lon="5.00724">
        <ele>457.51</ele>
        <time>2022-06-02T08:10:19Z</time>
      </trkpt>
      <trkpt lat="47.72763" lon="5.00721">
        <ele>457.69</ele>
        <time>2022-06-02T08:10:21Z</time>
      </trkpt>
      <trkpt lat="47.72765" lon="5.00718">
        <ele>457.99</ele>
        <time>2022-06-02T08:10:23Z</time>
      </trkpt>
      <trkpt lat="47.72767" lon="5.00715">
        <ele>458.27</ele>
        <time>2022-06-02T08:10:26Z</time>
      </trkpt>
      <trkpt lat="47.7277" lon="5.00713">
        <ele>458.37</ele>
        <time>2022-06-02T08:10:29Z</time>
      </trkpt>
      <trkpt lat="47.72772" lon="5.0071">
        <ele>458.62</ele>
        <time>2022-06-02T08:10:30Z</time>
      </trkpt>
      <trkpt lat="47.72774" lon="5.00706">
        <ele>458.97</ele>
        <time>2022-06-02T08:10:33Z</time>
      </trkpt>
      <trkpt lat="47.72776" lon="5.00703">
        <ele>459.18</ele>
        <time>2022-06-02T08:10:34Z</time>
      </trkpt>
      <trkpt lat="47.72778" lon="5.00699">
        <ele>459.49</ele>
        <time>2022-06-02T08:10:37Z</time>
      </trkpt>
      <trkpt lat="47.72781" lon="5.00695">
        <ele>459.6</ele>
        <time>2022-06-02T08:10:39Z</time>
      </trkpt>
      <trkpt lat="47.72783" lon="5.00692">
        <ele>459.63</ele>
        <time>2022-06-02T08:10:40Z</time>
      </trkpt>
      <trkpt lat="47.72785" lon="5.00688">
        <ele>459.74</ele>
        <time>2022-06-02T08:10:43Z</time>
      </trkpt>
      <trkpt lat="47.72788" lon="5.00685">
        <ele>459.7</ele>
        <time>2022-06-02T08:10:45Z</time>
      </trkpt>
      <trkpt lat="47.7279" lon="5.00681">
        <ele>459.86</ele>
        <time>2022-06-02T08:10:46Z</time>
      </trkpt>
      <trkpt lat="47.72792" lon="5.00678">
        <ele>459.95</ele>
        <time>2022-06-02T08:10:49Z</time>
      </trkpt>
      <trkpt lat="47.72794" lon="5.00674">
        <ele>460.15</ele>
        <time>2022-06-02T08:10:50Z</time>
      </trkpt>
      <trkpt lat="47.72797" lon="5.00672">
        <ele>460.1</ele>
        <time>2022-06-02T08:10:54Z</time>
      </trkpt>
      <trkpt lat="47.72799" lon="5.00669">
        <ele>460.24</ele>
        <time>2022-06-02T08:10:56Z</time>
      </trkpt>
      <trkpt lat="47.728" lon="5.00665">
        <ele>460.53</ele>
        <time>2022-06-02T08:11:00Z</time>
      </trkpt>
      <trkpt lat="47.72802" lon="5.00661">
        <ele>460.69</ele>
        <time>2022-06-02T08:11:01Z</time>
      </trkpt>
      <trkpt lat="47.72804" lon="5.00657">
        <ele>460.83</ele>
        <time>2022-06-02T08:11:02Z</time>
      </trkpt>
      <trkpt lat="47.72806" lon="5.00653">
        <ele>460.89</ele>
        <time>2022-06-02T08:11:04Z</time>
      </trkpt>
      <trkpt lat="47.72808" lon="5.0065">
        <ele>460.69</ele>
        <time>2022-06-02T08:11:05Z</time>
      </trkpt>
      <trkpt lat="47.7281" lon="5.00647">
        <ele>460.52</ele>
        <time>2022-06-02T08:11:07Z</time>
      </trkpt>
      <trkpt lat="47.72812" lon="5.00643">
        <ele>460.48</ele>
        <time>2022-06-02T08:11:09Z</time>
      </trkpt>
      <trkpt lat="47.72814" lon="5.0064">
        <ele>460.38</ele>
        <time>2022-06-02T08:11:11Z</time>
      </trkpt>
      <trkpt lat="47.72817" lon="5.00637">
        <ele>460.1</ele>
        <time>2022-06-02T08:11:14Z</time>
      </trkpt>
      <trkpt lat="47.72819" lon="5.00634">
        <ele>460.02</ele>
        <time>2022-06-02T08:11:15Z</time>
      </trkpt>
      <trkpt lat="47.72821" lon="5.00632">
        <ele>459.85</ele>
        <time>2022-06-02T08:11:17Z</time>
      </trkpt>
      <trkpt lat="47.72823" lon="5.00629">
        <ele>459.8</ele>
        <time>2022-06-02T08:11:20Z</time>
      </trkpt>
      <trkpt lat="47.72825" lon="5.00625">
        <ele>459.85</ele>
        <time>2022-06-02T08:11:20Z</time>
      </trkpt>
      <trkpt lat="47.72827" lon="5.00622">
        <ele>459.83</ele>
        <time>2022-06-02T08:11:22Z</time>
      </trkpt>
      <trkpt lat="47.72829" lon="5.00618">
        <ele>459.92</ele>
        <time>2022-06-02T08:11:25Z</time>
      </trkpt>
      <trkpt lat="47.72832" lon="5.00615">
        <ele>459.78</ele>
        <time>2022-06-02T08:11:27Z</time>
      </trkpt>
      <trkpt lat="47.72833" lon="5.00612">
        <ele>459.95</ele>
        <time>2022-06-02T08:11:29Z</time>
      </trkpt>
      <trkpt lat="47.72835" lon="5.00608">
        <ele>459.77</ele>
        <time>2022-06-02T08:11:31Z</time>
      </trkpt>
      <trkpt lat="47.72837" lon="5.00605">
        <ele>459.5</ele>
        <time>2022-06-02T08:11:35Z</time>
      </trkpt>
      <trkpt lat="47.72839" lon="5.00602">
        <ele>459.25</ele>
        <time>2022-06-02T08:11:37Z</time>
      </trkpt>
      <trkpt lat="47.72841" lon="5.00599">
        <ele>459.02</ele>
        <time>2022-06-02T08:11:39Z</time>
      </trkpt>
      <trkpt lat="47.72843" lon="5.00594">
        <ele>458.82</ele>
        <time>2022-06-02T08:11:40Z</time>
      </trkpt>
      <trkpt lat="47.72844" lon="5.00591">
        <ele>458.74</ele>
        <time>2022-06-02T08:11:45Z</time>
      </trkpt>
      <trkpt lat="47.72846" lon="5.00587">
        <ele>458.57</ele>
        <time>2022-06-02T08:11:46Z</time>
      </trkpt>
      <trkpt lat="47.72848" lon="5.00584">
        <ele>458.4</ele>
        <time>2022-06-02T08:11:51Z</time>
      </trkpt>
      <trkpt lat="47.72849" lon="5.00581">
        <ele>458.39</ele>
        <time>2022-06-02T08:11:52Z</time>
      </trkpt>
      <trkpt lat="47.72851" lon="5.00578">
        <ele>458.28</ele>
        <time>2022-06-02T08:11:56Z</time>
      </trkpt>
      <trkpt lat="47.72853" lon="5.00573">
        <ele>458.25</ele>
        <time>2022-06-02T08:11:58Z</time>
      </trkpt>
      <trkpt lat="47.72855" lon="5.00569">
        <ele>458.18</ele>
        <time>2022-06-02T08:11:59Z</time>
      </trkpt>
      <trkpt lat="47.72856" lon="5.00565">
        <ele>458.21</ele>
        <time>2022-06-02T08:12:01Z</time>
      </trkpt>
      <trkpt lat="47.72857" lon="5.00561">
        <ele>458.25</ele>
        <time>2022-06-02T08:12:03Z</time>
      </trkpt>
      <trkpt lat="47.72858" lon="5.00556">
        <ele>458.32</ele>
        <time>2022-06-02T08:12:06Z</time>
      </trkpt>
      <trkpt lat="47.72859" lon="5.00552">
        <ele>458.63</ele>
        <time>2022-06-02T08:12:08Z</time>
      </trkpt>
      <trkpt lat="47.7286" lon="5.00547">
        <ele>459.07</ele>
        <time>2022-06-02T08:12:11Z</time>
      </trkpt>
      <trkpt lat="47.72861" lon="5.00542">
        <ele>459.48</ele>
        <time>2022-06-02T08:12:12Z</time>
      </trkpt>
      <trkpt lat="47.72861" lon="5.00538">
        <ele>459.91</ele>
        <time>2022-06-02T08:12:14Z</time>
      </trkpt>
      <trkpt lat="47.72862" lon="5.00533">
        <ele>460.17</ele>
        <time>2022-06-02T08:12:17Z</time>
      </trkpt>
      <trkpt lat="47.72863" lon="5.00528">
        <ele>460.37</ele>
        <time>2022-06-02T08:12:18Z</time>
      </trkpt>
      <trkpt lat="47.72863" lon="5.00524">
        <ele>460.4</ele>
        <time>2022-06-02T08:12:21Z</time>
      </trkpt>
      <trkpt lat="47.72864" lon="5.0052">
        <ele>460.09</ele>
        <time>2022-06-02T08:12:23Z</time>
      </trkpt>
      <trkpt lat="47.72864" lon="5.00515">
        <ele>460.11</ele>
        <time>2022-06-02T08:12:24Z</time>
      </trkpt>
      <trkpt lat="47.72864" lon="5.0051">
        <ele>460.13</ele>
        <time>2022-06-02T08:12:26Z</time>
      </trkpt>
      <trkpt lat="47.72864" lon="5.00506">
        <ele>460.15</ele>
        <time>2022-06-02T08:12:29Z</time>
      </trkpt>
      <trkpt lat="47.72864" lon="5.00501">
        <ele>460.16</ele>
        <time>2022-06-02T08:12:31Z</time>
      </trkpt>
      <trkpt lat="47.72865" lon="5.00497">
        <ele>459.75</ele>
        <time>2022-06-02T08:12:33Z</time>
      </trkpt>
      <trkpt lat="47.72866" lon="5.00492">
        <ele>459.32</ele>
        <time>2022-06-02T08:12:35Z</time>
      </trkpt>
      <trkpt lat="47.72867" lon="5.00488">
        <ele>458.99</ele>
        <time>2022-06-02T08:12:38Z</time>
      </trkpt>
      <trkpt lat="47.72867" lon="5.00483">
        <ele>458.86</ele>
        <time>2022-06-02T08:12:40Z</time>
      </trkpt>
      <trkpt lat="47.72867" lon="5.00479">
        <ele>458.75</ele>
        <time>2022-06-02T08:12:43Z</time>
      </trkpt>
      <trkpt lat="47.72868" lon="5.00474">
        <ele>458.54</ele>
        <time>2022-06-02T08:12:45Z</time>
      </trkpt>
      <trkpt lat="47.72868" lon="5.00469">
        <ele>458.42</ele>
        <time>2022-06-02T08:12:47Z</time>
      </trkpt>
      <trkpt lat="47.72868" lon="5.00464">
        <ele>458.28</ele>
        <time>2022-06-02T08:12:51Z</time>
      </trkpt>
      <trkpt lat="47.72868" lon="5.0046">
        <ele>458.17</ele>
        <time>2022-06-02T08:12:52Z</time>
      </trkpt>
      <trkpt lat="47.72868" lon="5.00455">
        <ele>458.03</ele>
        <time>2022-06-02T08:12:54Z</time>
      </trkpt>
      <trkpt lat="47.72868" lon="5.00451">
        <ele>457.92</ele>
        <time>2022-06-02T08:12:57Z</time>
      </trkpt>
      <trkpt lat="47.72868" lon="5.00447">
        <ele>457.81</ele>
        <time>2022-06-02T08:12:58Z</time>
      </trkpt>
      <trkpt lat="47.72869" lon="5.00442">
        <ele>458.17</ele>
        <time>2022-06-02T08:13:03Z</time>
      </trkpt>
      <trkpt lat="47.72869" lon="5.00438">
        <ele>458.68</ele>
        <time>2022-06-02T08:13:04Z</time>
      </trkpt>
      <trkpt lat="47.7287" lon="5.00434">
        <ele>459.24</ele>
        <time>2022-06-02T08:13:08Z</time>
      </trkpt>
      <trkpt lat="47.7287" lon="5.00429">
        <ele>459.85</ele>
        <time>2022-06-02T08:13:09Z</time>
      </trkpt>
      <trkpt lat="47.7287" lon="5.00425">
        <ele>460.34</ele>
        <time>2022-06-02T08:13:11Z</time>
      </trkpt>
      <trkpt lat="47.7287" lon="5.0042">
        <ele>460.95</ele>
        <time>2022-06-02T08:13:14Z</time>
      </trkpt>
      <trkpt lat="47.7287" lon="5.00416">
        <ele>461.3</ele>
        <time>2022-06-02T08:13:14Z</time>
      </trkpt>
      <trkpt lat="47.7287" lon="5.00411">
        <ele>460.81</ele>
        <time>2022-06-02T08:13:17Z</time>
      </trkpt>
      <trkpt lat="47.72869" lon="5.00407">
        <ele>460.49</ele>
        <time>2022-06-02T08:13:19Z</time>
      </trkpt>
      <trkpt lat="47.72869" lon="5.00403">
        <ele>460.1</ele>
        <time>2022-06-02T08:13:21Z</time>
      </trkpt>
      <trkpt lat="47.72868" lon="5.00399">
        <ele>459.75</ele>
        <time>2022-06-02T08:13:23Z</time>
      </trkpt>
      <trkpt lat="47.72868" lon="5.00394">
        <ele>459.26</ele>
        <time>2022-06-02T08:13:25Z</time>
      </trkpt>
      <trkpt lat="47.72868" lon="5.0039">
        <ele>458.86</ele>
        <time>2022-06-02T08:13:27Z</time>
      </trkpt>
      <trkpt lat="47.72867" lon="5.00385">
        <ele>458.62</ele>
        <time>2022-06-02T08:13:29Z</time>
      </trkpt>
      <trkpt lat="47.72866" lon="5.0038">
        <ele>458.45</ele>
        <time>2022-06-02T08:13:32Z</time>
      </trkpt>
      <trkpt lat="47.72866" lon="5.00375">
        <ele>458.24</ele>
        <time>2022-06-02T08:13:34Z</time>
      </trkpt>
      <trkpt lat="47.72866" lon="5.0037">
        <ele>458.02</ele>
        <time>2022-06-02T08:13:36Z</time>
      </trkpt>
      <trkpt lat="47.72865" lon="5.00365">
        <ele>457.88</ele>
        <time>2022-06-02T08:13:38Z</time>
      </trkpt>
      <trkpt lat="47.72864" lon="5.0036">
        <ele>457.79</ele>
        <time>2022-06-02T08:13:40Z</time>
      </trkpt>
      <trkpt lat="47.72864" lon="5.00356">
        <ele>457.77</ele>
        <time>2022-06-02T08:13:43Z</time>
      </trkpt>
      <trkpt lat="47.72863" lon="5.00352">
        <ele>457.84</ele>
        <time>2022-06-02T08:13:47Z</time>
      </trkpt>
      <trkpt lat="47.72863" lon="5.00347">
        <ele>457.83</ele>
        <time>2022-06-02T08:13:49Z</time>
      </trkpt>
      <trkpt lat="47.72863" lon="5.00341">
        <ele>457.81</ele>
        <time>2022-06-02T08:13:50Z</time>
      </trkpt>
      <trkpt lat="47.72864" lon="5.00337">
        <ele>457.7</ele>
        <time>2022-06-02T08:13:51Z</time>
      </trkpt>
      <trkpt lat="47.72864" lon="5.00333">
        <ele>457.7</ele>
        <time>2022-06-02T08:13:53Z</time>
      </trkpt>
      <trkpt lat="47.72865" lon="5.00328">
        <ele>457.75</ele>
        <time>2022-06-02T08:13:55Z</time>
      </trkpt>
      <trkpt lat="47.72865" lon="5.00323">
        <ele>457.9</ele>
        <time>2022-06-02T08:13:57Z</time>
      </trkpt>
      <trkpt lat="47.72865" lon="5.00319">
        <ele>458.02</ele>
        <time>2022-06-02T08:13:59Z</time>
      </trkpt>
      <trkpt lat="47.72865" lon="5.00315">
        <ele>458.15</ele>
        <time>2022-06-02T08:14:01Z</time>
      </trkpt>
      <trkpt lat="47.72864" lon="5.00309">
        <ele>458.47</ele>
        <time>2022-06-02T08:14:03Z</time>
      </trkpt>
      <trkpt lat="47.72863" lon="5.00303">
        <ele>458.91</ele>
        <time>2022-06-02T08:14:07Z</time>
      </trkpt>
      <trkpt lat="47.72863" lon="5.00299">
        <ele>459.2</ele>
        <time>2022-06-02T08:14:08Z</time>
      </trkpt>
      <trkpt lat="47.72862" lon="5.00293">
        <ele>459.78</ele>
        <time>2022-06-02T08:14:11Z</time>
      </trkpt>
      <trkpt lat="47.72861" lon="5.00287">
        <ele>460.35</ele>
        <time>2022-06-02T08:14:13Z</time>
      </trkpt>
      <trkpt lat="47.7286" lon="5.00283">
        <ele>460.69</ele>
        <time>2022-06-02T08:14:14Z</time>
      </trkpt>
      <trkpt lat="47.72859" lon="5.00279">
        <ele>461</ele>
        <time>2022-06-02T08:14:17Z</time>
      </trkpt>
      <trkpt lat="47.72859" lon="5.00274">
        <ele>460.82</ele>
        <time>2022-06-02T08:14:18Z</time>
      </trkpt>
      <trkpt lat="47.72858" lon="5.00269">
        <ele>460.55</ele>
        <time>2022-06-02T08:14:20Z</time>
      </trkpt>
      <trkpt lat="47.72858" lon="5.00265">
        <ele>460.3</ele>
        <time>2022-06-02T08:14:23Z</time>
      </trkpt>
      <trkpt lat="47.72858" lon="5.00261">
        <ele>460.04</ele>
        <time>2022-06-02T08:14:24Z</time>
      </trkpt>
      <trkpt lat="47.72858" lon="5.00256">
        <ele>459.72</ele>
        <time>2022-06-02T08:14:26Z</time>
      </trkpt>
      <trkpt lat="47.72857" lon="5.00251">
        <ele>459.51</ele>
        <time>2022-06-02T08:14:29Z</time>
      </trkpt>
      <trkpt lat="47.72857" lon="5.00247">
        <ele>459.34</ele>
        <time>2022-06-02T08:14:31Z</time>
      </trkpt>
      <trkpt lat="47.72856" lon="5.00241">
        <ele>459.23</ele>
        <time>2022-06-02T08:14:33Z</time>
      </trkpt>
      <trkpt lat="47.72856" lon="5.00237">
        <ele>459.08</ele>
        <time>2022-06-02T08:14:36Z</time>
      </trkpt>
      <trkpt lat="47.72855" lon="5.00233">
        <ele>459.05</ele>
        <time>2022-06-02T08:14:36Z</time>
      </trkpt>
      <trkpt lat="47.72854" lon="5.00229">
        <ele>459.01</ele>
        <time>2022-06-02T08:14:39Z</time>
      </trkpt>
      <trkpt lat="47.72852" lon="5.00224">
        <ele>459.05</ele>
        <time>2022-06-02T08:14:43Z</time>
      </trkpt>
      <trkpt lat="47.72851" lon="5.0022">
        <ele>458.72</ele>
        <time>2022-06-02T08:14:44Z</time>
      </trkpt>
      <trkpt lat="47.7285" lon="5.00216">
        <ele>458.17</ele>
        <time>2022-06-02T08:14:47Z</time>
      </trkpt>
      <trkpt lat="47.72849" lon="5.00212">
        <ele>457.63</ele>
        <time>2022-06-02T08:14:49Z</time>
      </trkpt>
      <trkpt lat="47.72847" lon="5.00208">
        <ele>457.22</ele>
        <time>2022-06-02T08:14:52Z</time>
      </trkpt>
      <trkpt lat="47.72846" lon="5.00204">
        <ele>456.71</ele>
        <time>2022-06-02T08:14:55Z</time>
      </trkpt>
      <trkpt lat="47.72846" lon="5.00199">
        <ele>455.91</ele>
        <time>2022-06-02T08:14:58Z</time>
      </trkpt>
      <trkpt lat="47.72845" lon="5.00194">
        <ele>455.29</ele>
        <time>2022-06-02T08:15:02Z</time>
      </trkpt>
      <trkpt lat="47.72844" lon="5.00189">
        <ele>455.12</ele>
        <time>2022-06-02T08:15:04Z</time>
      </trkpt>
      <trkpt lat="47.72843" lon="5.00185">
        <ele>455.03</ele>
        <time>2022-06-02T08:15:05Z</time>
      </trkpt>
      <trkpt lat="47.72842" lon="5.0018">
        <ele>454.91</ele>
        <time>2022-06-02T08:15:07Z</time>
      </trkpt>
      <trkpt lat="47.7284" lon="5.00176">
        <ele>455.06</ele>
        <time>2022-06-02T08:15:09Z</time>
      </trkpt>
      <trkpt lat="47.72839" lon="5.00172">
        <ele>455.05</ele>
        <time>2022-06-02T08:15:12Z</time>
      </trkpt>
      <trkpt lat="47.72837" lon="5.00168">
        <ele>455.27</ele>
        <time>2022-06-02T08:15:16Z</time>
      </trkpt>
      <trkpt lat="47.72836" lon="5.00164">
        <ele>455.21</ele>
        <time>2022-06-02T08:15:19Z</time>
      </trkpt>
      <trkpt lat="47.72834" lon="5.0016">
        <ele>455.36</ele>
        <time>2022-06-02T08:15:20Z</time>
      </trkpt>
      <trkpt lat="47.72833" lon="5.00157">
        <ele>455.37</ele>
        <time>2022-06-02T08:15:21Z</time>
      </trkpt>
      <trkpt lat="47.72832" lon="5.00152">
        <ele>455.23</ele>
        <time>2022-06-02T08:15:23Z</time>
      </trkpt>
      <trkpt lat="47.72831" lon="5.00147">
        <ele>455.12</ele>
        <time>2022-06-02T08:15:26Z</time>
      </trkpt>
      <trkpt lat="47.7283" lon="5.00143">
        <ele>455.1</ele>
        <time>2022-06-02T08:15:31Z</time>
      </trkpt>
      <trkpt lat="47.72828" lon="5.00138">
        <ele>455.25</ele>
        <time>2022-06-02T08:15:33Z</time>
      </trkpt>
      <trkpt lat="47.72826" lon="5.00134">
        <ele>455.32</ele>
        <time>2022-06-02T08:15:34Z</time>
      </trkpt>
      <trkpt lat="47.72824" lon="5.00131">
        <ele>455.5</ele>
        <time>2022-06-02T08:15:35Z</time>
      </trkpt>
      <trkpt lat="47.72822" lon="5.00127">
        <ele>455.57</ele>
        <time>2022-06-02T08:15:38Z</time>
      </trkpt>
      <trkpt lat="47.7282" lon="5.00125">
        <ele>455.86</ele>
        <time>2022-06-02T08:15:39Z</time>
      </trkpt>
      <trkpt lat="47.72818" lon="5.00122">
        <ele>456.04</ele>
        <time>2022-06-02T08:15:41Z</time>
      </trkpt>
      <trkpt lat="47.72815" lon="5.00118">
        <ele>456.36</ele>
        <time>2022-06-02T08:15:46Z</time>
      </trkpt>
      <trkpt lat="47.72813" lon="5.00115">
        <ele>456.54</ele>
        <time>2022-06-02T08:15:48Z</time>
      </trkpt>
      <trkpt lat="47.72811" lon="5.00112">
        <ele>456.72</ele>
        <time>2022-06-02T08:15:49Z</time>
      </trkpt>
      <trkpt lat="47.72809" lon="5.00109">
        <ele>456.84</ele>
        <time>2022-06-02T08:15:52Z</time>
      </trkpt>
      <trkpt lat="47.72806" lon="5.00106">
        <ele>457.15</ele>
        <time>2022-06-02T08:15:54Z</time>
      </trkpt>
      <trkpt lat="47.72804" lon="5.00104">
        <ele>457.07</ele>
        <time>2022-06-02T08:15:56Z</time>
      </trkpt>
      <trkpt lat="47.72801" lon="5.00101">
        <ele>456.81</ele>
        <time>2022-06-02T08:16:00Z</time>
      </trkpt>
      <trkpt lat="47.72798" lon="5.00098">
        <ele>456.53</ele>
        <time>2022-06-02T08:16:02Z</time>
      </trkpt>
      <trkpt lat="47.72796" lon="5.00096">
        <ele>456.32</ele>
        <time>2022-06-02T08:16:04Z</time>
      </trkpt>
      <trkpt lat="47.72793" lon="5.00093">
        <ele>456</ele>
        <time>2022-06-02T08:16:05Z</time>
      </trkpt>
      <trkpt lat="47.7279" lon="5.00091">
        <ele>455.82</ele>
        <time>2022-06-02T08:16:07Z</time>
      </trkpt>
      <trkpt lat="47.72787" lon="5.0009">
        <ele>455.79</ele>
        <time>2022-06-02T08:16:10Z</time>
      </trkpt>
      <trkpt lat="47.72784" lon="5.00088">
        <ele>455.58</ele>
        <time>2022-06-02T08:16:10Z</time>
      </trkpt>
      <trkpt lat="47.7278" lon="5.00086">
        <ele>455.39</ele>
        <time>2022-06-02T08:16:12Z</time>
      </trkpt>
      <trkpt lat="47.72777" lon="5.00084">
        <ele>455.07</ele>
        <time>2022-06-02T08:16:14Z</time>
      </trkpt>
      <trkpt lat="47.72774" lon="5.00083">
        <ele>454.65</ele>
        <time>2022-06-02T08:16:19Z</time>
      </trkpt>
      <trkpt lat="47.72771" lon="5.00082">
        <ele>454.19</ele>
        <time>2022-06-02T08:16:22Z</time>
      </trkpt>
      <trkpt lat="47.72768" lon="5.00081">
        <ele>453.74</ele>
        <time>2022-06-02T08:16:24Z</time>
      </trkpt>
      <trkpt lat="47.72764" lon="5.0008">
        <ele>453.23</ele>
        <time>2022-06-02T08:16:26Z</time>
      </trkpt>
      <trkpt lat="47.72761" lon="5.00078">
        <ele>452.56</ele>
        <time>2022-06-02T08:16:28Z</time>
      </trkpt>
      <trkpt lat="47.72758" lon="5.00078">
        <ele>452.37</ele>
        <time>2022-06-02T08:16:32Z</time>
      </trkpt>
      <trkpt lat="47.72755" lon="5.00077">
        <ele>451.95</ele>
        <time>2022-06-02T08:16:35Z</time>
      </trkpt>
      <trkpt lat="47.72752" lon="5.00077">
        <ele>451.76</ele>
        <time>2022-06-02T08:16:37Z</time>
      </trkpt>
      <trkpt lat="47.72749" lon="5.00077">
        <ele>451.58</ele>
        <time>2022-06-02T08:16:39Z</time>
      </trkpt>
      <trkpt lat="47.72746" lon="5.00076">
        <ele>451.2</ele>
        <time>2022-06-02T08:16:44Z</time>
      </trkpt>
      <trkpt lat="47.72743" lon="5.00077">
        <ele>451.24</ele>
        <time>2022-06-02T08:16:48Z</time>
      </trkpt>
      <trkpt lat="47.7274" lon="5.00078">
        <ele>451.27</ele>
        <time>2022-06-02T08:16:51Z</time>
      </trkpt>
      <trkpt lat="47.72737" lon="5.00079">
        <ele>451.27</ele>
        <time>2022-06-02T08:16:54Z</time>
      </trkpt>
      <trkpt lat="47.72734" lon="5.00081">
        <ele>451.44</ele>
        <time>2022-06-02T08:16:57Z</time>
      </trkpt>
      <trkpt lat="47.72731" lon="5.00083">
        <ele>451.58</ele>
        <time>2022-06-02T08:17:00Z</time>
      </trkpt>
      <trkpt lat="47.72729" lon="5.00085">
        <ele>451.86</ele>
        <time>2022-06-02T08:17:02Z</time>
      </trkpt>
      <trkpt lat="47.72725" lon="5.00086">
        <ele>451.79</ele>
        <time>2022-06-02T08:17:06Z</time>
      </trkpt>
      <trkpt lat="47.72722" lon="5.00088">
        <ele>451.98</ele>
        <time>2022-06-02T08:17:08Z</time>
      </trkpt>
      <trkpt lat="47.7272" lon="5.00089">
        <ele>451.92</ele>
        <time>2022-06-02T08:17:11Z</time>
      </trkpt>
      <trkpt lat="47.72717" lon="5.0009">
        <ele>451.7</ele>
        <time>2022-06-02T08:17:14Z</time>
      </trkpt>
      <trkpt lat="47.72714" lon="5.0009">
        <ele>451.27</ele>
        <time>2022-06-02T08:17:19Z</time>
      </trkpt>
      <trkpt lat="47.72712" lon="5.00088">
        <ele>450.66</ele>
        <time>2022-06-02T08:17:37Z</time>
      </trkpt>
      <trkpt lat="47.72709" lon="5.00088">
        <ele>450.26</ele>
        <time>2022-06-02T08:17:43Z</time>
      </trkpt>
      <trkpt lat="47.72706" lon="5.0009">
        <ele>450.13</ele>
        <time>2022-06-02T08:17:49Z</time>
      </trkpt>
      <trkpt lat="47.72705" lon="5.00094">
        <ele>450.49</ele>
        <time>2022-06-02T08:17:56Z</time>
      </trkpt>
      <trkpt lat="47.72702" lon="5.00095">
        <ele>450.11</ele>
        <time>2022-06-02T08:23:31Z</time>
      </trkpt>
      <trkpt lat="47.727" lon="5.00098">
        <ele>450.08</ele>
        <time>2022-06-02T08:27:30Z</time>
      </trkpt>
      <trkpt lat="47.72698" lon="5.001">
        <ele>449.89</ele>
        <time>2022-06-02T08:27:34Z</time>
      </trkpt>
      <trkpt lat="47.72695" lon="5.00101">
        <ele>449.38</ele>
        <time>2022-06-02T08:27:37Z</time>
      </trkpt>
      <trkpt lat="47.72692" lon="5.00103">
        <ele>449.06</ele>
        <time>2022-06-02T08:27:41Z</time>
      </trkpt>
      <trkpt lat="47.72689" lon="5.00104">
        <ele>448.7</ele>
        <time>2022-06-02T08:27:42Z</time>
      </trkpt>
      <trkpt lat="47.72686" lon="5.00106">
        <ele>448.42</ele>
        <time>2022-06-02T08:27:45Z</time>
      </trkpt>
      <trkpt lat="47.72683" lon="5.00107">
        <ele>448.06</ele>
        <time>2022-06-02T08:27:48Z</time>
      </trkpt>
      <trkpt lat="47.7268" lon="5.00109">
        <ele>447.77</ele>
        <time>2022-06-02T08:27:51Z</time>
      </trkpt>
      <trkpt lat="47.72677" lon="5.0011">
        <ele>447.41</ele>
        <time>2022-06-02T08:27:54Z</time>
      </trkpt>
      <trkpt lat="47.72674" lon="5.00111">
        <ele>447.05</ele>
        <time>2022-06-02T08:27:59Z</time>
      </trkpt>
      <trkpt lat="47.72671" lon="5.00112">
        <ele>446.72</ele>
        <time>2022-06-02T08:28:00Z</time>
      </trkpt>
      <trkpt lat="47.72668" lon="5.00114">
        <ele>446.51</ele>
        <time>2022-06-02T08:28:01Z</time>
      </trkpt>
      <trkpt lat="47.72666" lon="5.00116">
        <ele>446.55</ele>
        <time>2022-06-02T08:28:03Z</time>
      </trkpt>
      <trkpt lat="47.72664" lon="5.00119">
        <ele>446.92</ele>
        <time>2022-06-02T08:28:08Z</time>
      </trkpt>
      <trkpt lat="47.72661" lon="5.00121">
        <ele>447.2</ele>
        <time>2022-06-02T08:28:09Z</time>
      </trkpt>
      <trkpt lat="47.72658" lon="5.00123">
        <ele>447.46</ele>
        <time>2022-06-02T08:28:13Z</time>
      </trkpt>
      <trkpt lat="47.72655" lon="5.00125">
        <ele>447.71</ele>
        <time>2022-06-02T08:28:14Z</time>
      </trkpt>
      <trkpt lat="47.72652" lon="5.00126">
        <ele>447.85</ele>
        <time>2022-06-02T08:28:15Z</time>
      </trkpt>
      <trkpt lat="47.72649" lon="5.00127">
        <ele>447.99</ele>
        <time>2022-06-02T08:28:17Z</time>
      </trkpt>
      <trkpt lat="47.72645" lon="5.00127">
        <ele>448.05</ele>
        <time>2022-06-02T08:28:20Z</time>
      </trkpt>
      <trkpt lat="47.72642" lon="5.00128">
        <ele>448.17</ele>
        <time>2022-06-02T08:28:21Z</time>
      </trkpt>
      <trkpt lat="47.72638" lon="5.0013">
        <ele>448.24</ele>
        <time>2022-06-02T08:28:23Z</time>
      </trkpt>
      <trkpt lat="47.72635" lon="5.00132">
        <ele>447.98</ele>
        <time>2022-06-02T08:28:27Z</time>
      </trkpt>
      <trkpt lat="47.72632" lon="5.00134">
        <ele>447.7</ele>
        <time>2022-06-02T08:28:29Z</time>
      </trkpt>
      <trkpt lat="47.72629" lon="5.00136">
        <ele>447.41</ele>
        <time>2022-06-02T08:28:30Z</time>
      </trkpt>
      <trkpt lat="47.72626" lon="5.00138">
        <ele>447.09</ele>
        <time>2022-06-02T08:28:33Z</time>
      </trkpt>
      <trkpt lat="47.72624" lon="5.0014">
        <ele>446.92</ele>
        <time>2022-06-02T08:28:36Z</time>
      </trkpt>
      <trkpt lat="47.72621" lon="5.00142">
        <ele>446.61</ele>
        <time>2022-06-02T08:28:40Z</time>
      </trkpt>
      <trkpt lat="47.72618" lon="5.00145">
        <ele>446.38</ele>
        <time>2022-06-02T08:28:41Z</time>
      </trkpt>
      <trkpt lat="47.72615" lon="5.00147">
        <ele>446.1</ele>
        <time>2022-06-02T08:28:43Z</time>
      </trkpt>
      <trkpt lat="47.72613" lon="5.00149">
        <ele>445.98</ele>
        <time>2022-06-02T08:28:44Z</time>
      </trkpt>
      <trkpt lat="47.72609" lon="5.00151">
        <ele>445.53</ele>
        <time>2022-06-02T08:28:48Z</time>
      </trkpt>
      <trkpt lat="47.72606" lon="5.00152">
        <ele>445.12</ele>
        <time>2022-06-02T08:28:50Z</time>
      </trkpt>
      <trkpt lat="47.72602" lon="5.00153">
        <ele>444.54</ele>
        <time>2022-06-02T08:28:52Z</time>
      </trkpt>
      <trkpt lat="47.72598" lon="5.00155">
        <ele>444</ele>
        <time>2022-06-02T08:28:53Z</time>
      </trkpt>
      <trkpt lat="47.72595" lon="5.00156">
        <ele>443.55</ele>
        <time>2022-06-02T08:28:56Z</time>
      </trkpt>
      <trkpt lat="47.72591" lon="5.00158">
        <ele>442.98</ele>
        <time>2022-06-02T08:28:58Z</time>
      </trkpt>
      <trkpt lat="47.72589" lon="5.0016">
        <ele>442.73</ele>
        <time>2022-06-02T08:28:58Z</time>
      </trkpt>
      <trkpt lat="47.72586" lon="5.00162">
        <ele>442.3</ele>
        <time>2022-06-02T08:29:02Z</time>
      </trkpt>
      <trkpt lat="47.72583" lon="5.00165">
        <ele>441.91</ele>
        <time>2022-06-02T08:29:06Z</time>
      </trkpt>
      <trkpt lat="47.7258" lon="5.00168">
        <ele>441.83</ele>
        <time>2022-06-02T08:29:08Z</time>
      </trkpt>
      <trkpt lat="47.72577" lon="5.0017">
        <ele>441.77</ele>
        <time>2022-06-02T08:29:09Z</time>
      </trkpt>
      <trkpt lat="47.72574" lon="5.00172">
        <ele>441.7</ele>
        <time>2022-06-02T08:29:10Z</time>
      </trkpt>
      <trkpt lat="47.72572" lon="5.00173">
        <ele>441.59</ele>
        <time>2022-06-02T08:29:12Z</time>
      </trkpt>
      <trkpt lat="47.72569" lon="5.00175">
        <ele>441.5</ele>
        <time>2022-06-02T08:29:15Z</time>
      </trkpt>
      <trkpt lat="47.72566" lon="5.00177">
        <ele>441.38</ele>
        <time>2022-06-02T08:29:15Z</time>
      </trkpt>
      <trkpt lat="47.72563" lon="5.00179">
        <ele>441.25</ele>
        <time>2022-06-02T08:29:17Z</time>
      </trkpt>
      <trkpt lat="47.7256" lon="5.00181">
        <ele>441.11</ele>
        <time>2022-06-02T08:29:21Z</time>
      </trkpt>
      <trkpt lat="47.72557" lon="5.00183">
        <ele>440.95</ele>
        <time>2022-06-02T08:29:22Z</time>
      </trkpt>
      <trkpt lat="47.72555" lon="5.00184">
        <ele>440.93</ele>
        <time>2022-06-02T08:29:25Z</time>
      </trkpt>
      <trkpt lat="47.72552" lon="5.00186">
        <ele>441.46</ele>
        <time>2022-06-02T08:29:26Z</time>
      </trkpt>
      <trkpt lat="47.72549" lon="5.00188">
        <ele>441.94</ele>
        <time>2022-06-02T08:29:30Z</time>
      </trkpt>
      <trkpt lat="47.72546" lon="5.00189">
        <ele>442.3</ele>
        <time>2022-06-02T08:29:34Z</time>
      </trkpt>
      <trkpt lat="47.72543" lon="5.00191">
        <ele>442.7</ele>
        <time>2022-06-02T08:29:35Z</time>
      </trkpt>
      <trkpt lat="47.7254" lon="5.00193">
        <ele>443.05</ele>
        <time>2022-06-02T08:29:38Z</time>
      </trkpt>
      <trkpt lat="47.72537" lon="5.00195">
        <ele>443.42</ele>
        <time>2022-06-02T08:29:41Z</time>
      </trkpt>
      <trkpt lat="47.72535" lon="5.00196">
        <ele>443.7</ele>
        <time>2022-06-02T08:29:44Z</time>
      </trkpt>
      <trkpt lat="47.72531" lon="5.00198">
        <ele>444.28</ele>
        <time>2022-06-02T08:29:46Z</time>
      </trkpt>
      <trkpt lat="47.72529" lon="5.00199">
        <ele>444.57</ele>
        <time>2022-06-02T08:29:47Z</time>
      </trkpt>
      <trkpt lat="47.72526" lon="5.002">
        <ele>444.88</ele>
        <time>2022-06-02T08:29:50Z</time>
      </trkpt>
      <trkpt lat="47.72522" lon="5.00201">
        <ele>445.2</ele>
        <time>2022-06-02T08:29:52Z</time>
      </trkpt>
      <trkpt lat="47.72519" lon="5.00202">
        <ele>445.49</ele>
        <time>2022-06-02T08:29:55Z</time>
      </trkpt>
      <trkpt lat="47.72516" lon="5.00203">
        <ele>445.79</ele>
        <time>2022-06-02T08:29:57Z</time>
      </trkpt>
      <trkpt lat="47.72513" lon="5.00204">
        <ele>446.09</ele>
        <time>2022-06-02T08:29:59Z</time>
      </trkpt>
      <trkpt lat="47.72509" lon="5.00205">
        <ele>446.45</ele>
        <time>2022-06-02T08:30:02Z</time>
      </trkpt>
      <trkpt lat="47.72505" lon="5.00204">
        <ele>446.48</ele>
        <time>2022-06-02T08:30:04Z</time>
      </trkpt>
      <trkpt lat="47.72502" lon="5.00204">
        <ele>446.62</ele>
        <time>2022-06-02T08:30:08Z</time>
      </trkpt>
      <trkpt lat="47.72498" lon="5.00205">
        <ele>446.87</ele>
        <time>2022-06-02T08:30:10Z</time>
      </trkpt>
      <trkpt lat="47.72495" lon="5.00206">
        <ele>447.01</ele>
        <time>2022-06-02T08:30:11Z</time>
      </trkpt>
      <trkpt lat="47.72491" lon="5.00207">
        <ele>447.11</ele>
        <time>2022-06-02T08:30:15Z</time>
      </trkpt>
      <trkpt lat="47.72488" lon="5.00207">
        <ele>447.06</ele>
        <time>2022-06-02T08:30:15Z</time>
      </trkpt>
      <trkpt lat="47.72485" lon="5.00208">
        <ele>447.18</ele>
        <time>2022-06-02T08:30:19Z</time>
      </trkpt>
      <trkpt lat="47.72482" lon="5.00209">
        <ele>447.28</ele>
        <time>2022-06-02T08:30:22Z</time>
      </trkpt>
      <trkpt lat="47.72479" lon="5.00209">
        <ele>447.22</ele>
        <time>2022-06-02T08:30:23Z</time>
      </trkpt>
      <trkpt lat="47.72475" lon="5.0021">
        <ele>447.3</ele>
        <time>2022-06-02T08:30:25Z</time>
      </trkpt>
      <trkpt lat="47.72472" lon="5.00211">
        <ele>447.39</ele>
        <time>2022-06-02T08:30:26Z</time>
      </trkpt>
      <trkpt lat="47.72469" lon="5.00212">
        <ele>447.64</ele>
        <time>2022-06-02T08:30:28Z</time>
      </trkpt>
      <trkpt lat="47.72466" lon="5.00213">
        <ele>447.9</ele>
        <time>2022-06-02T08:30:30Z</time>
      </trkpt>
      <trkpt lat="47.72464" lon="5.00214">
        <ele>448.11</ele>
        <time>2022-06-02T08:30:32Z</time>
      </trkpt>
      <trkpt lat="47.72461" lon="5.00216">
        <ele>448.51</ele>
        <time>2022-06-02T08:30:34Z</time>
      </trkpt>
      <trkpt lat="47.72458" lon="5.00218">
        <ele>448.9</ele>
        <time>2022-06-02T08:30:38Z</time>
      </trkpt>
      <trkpt lat="47.72455" lon="5.00219">
        <ele>449.16</ele>
        <time>2022-06-02T08:30:42Z</time>
      </trkpt>
      <trkpt lat="47.72452" lon="5.0022">
        <ele>449.41</ele>
        <time>2022-06-02T08:30:42Z</time>
      </trkpt>
      <trkpt lat="47.72449" lon="5.00221">
        <ele>449.66</ele>
        <time>2022-06-02T08:30:44Z</time>
      </trkpt>
      <trkpt lat="47.72446" lon="5.00222">
        <ele>449.91</ele>
        <time>2022-06-02T08:30:48Z</time>
      </trkpt>
      <trkpt lat="47.72443" lon="5.00224">
        <ele>450.26</ele>
        <time>2022-06-02T08:30:51Z</time>
      </trkpt>
      <trkpt lat="47.7244" lon="5.00224">
        <ele>450.15</ele>
        <time>2022-06-02T08:30:53Z</time>
      </trkpt>
      <trkpt lat="47.72437" lon="5.00225">
        <ele>450.21</ele>
        <time>2022-06-02T08:30:54Z</time>
      </trkpt>
      <trkpt lat="47.72434" lon="5.00225">
        <ele>450.09</ele>
        <time>2022-06-02T08:30:56Z</time>
      </trkpt>
      <trkpt lat="47.7243" lon="5.00226">
        <ele>450.09</ele>
        <time>2022-06-02T08:30:59Z</time>
      </trkpt>
      <trkpt lat="47.72426" lon="5.00227">
        <ele>450.08</ele>
        <time>2022-06-02T08:30:59Z</time>
      </trkpt>
      <trkpt lat="47.72423" lon="5.00228">
        <ele>450.11</ele>
        <time>2022-06-02T08:31:01Z</time>
      </trkpt>
      <trkpt lat="47.7242" lon="5.00228">
        <ele>449.98</ele>
        <time>2022-06-02T08:31:02Z</time>
      </trkpt>
      <trkpt lat="47.72417" lon="5.00228">
        <ele>449.85</ele>
        <time>2022-06-02T08:31:04Z</time>
      </trkpt>
      <trkpt lat="47.72414" lon="5.00228">
        <ele>449.5</ele>
        <time>2022-06-02T08:31:08Z</time>
      </trkpt>
      <trkpt lat="47.72411" lon="5.00229">
        <ele>449.26</ele>
        <time>2022-06-02T08:31:09Z</time>
      </trkpt>
      <trkpt lat="47.72407" lon="5.00228">
        <ele>448.64</ele>
        <time>2022-06-02T08:31:11Z</time>
      </trkpt>
      <trkpt lat="47.72405" lon="5.00229">
        <ele>448.51</ele>
        <time>2022-06-02T08:31:12Z</time>
      </trkpt>
      <trkpt lat="47.72402" lon="5.00229">
        <ele>448.13</ele>
        <time>2022-06-02T08:31:12Z</time>
      </trkpt>
      <trkpt lat="47.72399" lon="5.00229">
        <ele>447.76</ele>
        <time>2022-06-02T08:31:14Z</time>
      </trkpt>
      <trkpt lat="47.72396" lon="5.00229">
        <ele>447.38</ele>
        <time>2022-06-02T08:31:16Z</time>
      </trkpt>
      <trkpt lat="47.72393" lon="5.00228">
        <ele>446.92</ele>
        <time>2022-06-02T08:31:18Z</time>
      </trkpt>
      <trkpt lat="47.72389" lon="5.00228">
        <ele>446.43</ele>
        <time>2022-06-02T08:31:21Z</time>
      </trkpt>
      <trkpt lat="47.72386" lon="5.00227">
        <ele>445.79</ele>
        <time>2022-06-02T08:31:25Z</time>
      </trkpt>
      <trkpt lat="47.72383" lon="5.00228">
        <ele>445.32</ele>
        <time>2022-06-02T08:31:27Z</time>
      </trkpt>
      <trkpt lat="47.7238" lon="5.00228">
        <ele>444.76</ele>
        <time>2022-06-02T08:31:28Z</time>
      </trkpt>
      <trkpt lat="47.72377" lon="5.00228">
        <ele>444.2</ele>
        <time>2022-06-02T08:31:31Z</time>
      </trkpt>
      <trkpt lat="47.72374" lon="5.00228">
        <ele>443.65</ele>
        <time>2022-06-02T08:31:31Z</time>
      </trkpt>
      <trkpt lat="47.72372" lon="5.00228">
        <ele>443.27</ele>
        <time>2022-06-02T08:31:33Z</time>
      </trkpt>
      <trkpt lat="47.72369" lon="5.00227">
        <ele>442.54</ele>
        <time>2022-06-02T08:31:35Z</time>
      </trkpt>
      <trkpt lat="47.72365" lon="5.00227">
        <ele>441.78</ele>
        <time>2022-06-02T08:31:36Z</time>
      </trkpt>
      <trkpt lat="47.72363" lon="5.00227">
        <ele>441.39</ele>
        <time>2022-06-02T08:31:38Z</time>
      </trkpt>
      <trkpt lat="47.72359" lon="5.00228">
        <ele>441.26</ele>
        <time>2022-06-02T08:31:40Z</time>
      </trkpt>
      <trkpt lat="47.72356" lon="5.00229">
        <ele>441.51</ele>
        <time>2022-06-02T08:31:42Z</time>
      </trkpt>
      <trkpt lat="47.72353" lon="5.00229">
        <ele>441.54</ele>
        <time>2022-06-02T08:31:46Z</time>
      </trkpt>
      <trkpt lat="47.72349" lon="5.0023">
        <ele>441.8</ele>
        <time>2022-06-02T08:31:48Z</time>
      </trkpt>
      <trkpt lat="47.72346" lon="5.0023">
        <ele>441.83</ele>
        <time>2022-06-02T08:31:49Z</time>
      </trkpt>
      <trkpt lat="47.72343" lon="5.0023">
        <ele>441.86</ele>
        <time>2022-06-02T08:31:50Z</time>
      </trkpt>
      <trkpt lat="47.72339" lon="5.00231">
        <ele>442.15</ele>
        <time>2022-06-02T08:31:53Z</time>
      </trkpt>
      <trkpt lat="47.72336" lon="5.00231">
        <ele>442.18</ele>
        <time>2022-06-02T08:31:53Z</time>
      </trkpt>
      <trkpt lat="47.72333" lon="5.00231">
        <ele>442.22</ele>
        <time>2022-06-02T08:31:55Z</time>
      </trkpt>
      <trkpt lat="47.7233" lon="5.00232">
        <ele>442.56</ele>
        <time>2022-06-02T08:31:57Z</time>
      </trkpt>
      <trkpt lat="47.72327" lon="5.00232">
        <ele>442.64</ele>
        <time>2022-06-02T08:32:00Z</time>
      </trkpt>
      <trkpt lat="47.72324" lon="5.00233">
        <ele>443.03</ele>
        <time>2022-06-02T08:32:00Z</time>
      </trkpt>
      <trkpt lat="47.72321" lon="5.00234">
        <ele>443.47</ele>
        <time>2022-06-02T08:32:03Z</time>
      </trkpt>
      <trkpt lat="47.72318" lon="5.00235">
        <ele>443.94</ele>
        <time>2022-06-02T08:32:05Z</time>
      </trkpt>
      <trkpt lat="47.72315" lon="5.00236">
        <ele>444.45</ele>
        <time>2022-06-02T08:32:07Z</time>
      </trkpt>
      <trkpt lat="47.72312" lon="5.00237">
        <ele>445</ele>
        <time>2022-06-02T08:32:09Z</time>
      </trkpt>
      <trkpt lat="47.72309" lon="5.00239">
        <ele>446</ele>
        <time>2022-06-02T08:32:11Z</time>
      </trkpt>
      <trkpt lat="47.72305" lon="5.00241">
        <ele>447.09</ele>
        <time>2022-06-02T08:32:14Z</time>
      </trkpt>
      <trkpt lat="47.72302" lon="5.00242">
        <ele>447.42</ele>
        <time>2022-06-02T08:32:16Z</time>
      </trkpt>
      <trkpt lat="47.723" lon="5.00243">
        <ele>447.78</ele>
        <time>2022-06-02T08:32:18Z</time>
      </trkpt>
      <trkpt lat="47.72296" lon="5.00244">
        <ele>448.06</ele>
        <time>2022-06-02T08:32:21Z</time>
      </trkpt>
      <trkpt lat="47.72293" lon="5.00244">
        <ele>447.96</ele>
        <time>2022-06-02T08:32:22Z</time>
      </trkpt>
      <trkpt lat="47.7229" lon="5.00245">
        <ele>448.28</ele>
        <time>2022-06-02T08:32:26Z</time>
      </trkpt>
      <trkpt lat="47.72287" lon="5.00246">
        <ele>448.6</ele>
        <time>2022-06-02T08:32:28Z</time>
      </trkpt>
      <trkpt lat="47.72284" lon="5.00247">
        <ele>448.93</ele>
        <time>2022-06-02T08:32:30Z</time>
      </trkpt>
      <trkpt lat="47.72281" lon="5.00248">
        <ele>449.25</ele>
        <time>2022-06-02T08:32:33Z</time>
      </trkpt>
      <trkpt lat="47.72278" lon="5.00249">
        <ele>449.58</ele>
        <time>2022-06-02T08:32:33Z</time>
      </trkpt>
      <trkpt lat="47.72274" lon="5.00249">
        <ele>449.32</ele>
        <time>2022-06-02T08:32:36Z</time>
      </trkpt>
      <trkpt lat="47.72272" lon="5.0025">
        <ele>449.58</ele>
        <time>2022-06-02T08:32:38Z</time>
      </trkpt>
      <trkpt lat="47.72269" lon="5.0025">
        <ele>449.37</ele>
        <time>2022-06-02T08:32:40Z</time>
      </trkpt>
      <trkpt lat="47.72265" lon="5.00249">
        <ele>448.73</ele>
        <time>2022-06-02T08:32:43Z</time>
      </trkpt>
      <trkpt lat="47.72262" lon="5.00249">
        <ele>448.53</ele>
        <time>2022-06-02T08:32:47Z</time>
      </trkpt>
      <trkpt lat="47.72259" lon="5.00249">
        <ele>448.34</ele>
        <time>2022-06-02T08:32:48Z</time>
      </trkpt>
      <trkpt lat="47.72256" lon="5.0025">
        <ele>448.43</ele>
        <time>2022-06-02T08:32:51Z</time>
      </trkpt>
      <trkpt lat="47.72253" lon="5.0025">
        <ele>448.22</ele>
        <time>2022-06-02T08:32:53Z</time>
      </trkpt>
      <trkpt lat="47.7225" lon="5.0025">
        <ele>448</ele>
        <time>2022-06-02T08:32:55Z</time>
      </trkpt>
      <trkpt lat="47.72247" lon="5.0025">
        <ele>447.78</ele>
        <time>2022-06-02T08:32:57Z</time>
      </trkpt>
      <trkpt lat="47.72243" lon="5.0025">
        <ele>447.5</ele>
        <time>2022-06-02T08:33:01Z</time>
      </trkpt>
      <trkpt lat="47.7224" lon="5.00249">
        <ele>447.09</ele>
        <time>2022-06-02T08:33:03Z</time>
      </trkpt>
      <trkpt lat="47.72236" lon="5.00249">
        <ele>446.83</ele>
        <time>2022-06-02T08:33:04Z</time>
      </trkpt>
      <trkpt lat="47.72233" lon="5.00249">
        <ele>446.63</ele>
        <time>2022-06-02T08:33:06Z</time>
      </trkpt>
      <trkpt lat="47.7223" lon="5.00249">
        <ele>446.44</ele>
        <time>2022-06-02T08:33:07Z</time>
      </trkpt>
      <trkpt lat="47.72226" lon="5.00249">
        <ele>446.18</ele>
        <time>2022-06-02T08:33:08Z</time>
      </trkpt>
      <trkpt lat="47.72223" lon="5.00248">
        <ele>445.9</ele>
        <time>2022-06-02T08:33:09Z</time>
      </trkpt>
      <trkpt lat="47.7222" lon="5.00247">
        <ele>445.98</ele>
        <time>2022-06-02T08:33:11Z</time>
      </trkpt>
      <trkpt lat="47.72217" lon="5.00246">
        <ele>446.2</ele>
        <time>2022-06-02T08:33:12Z</time>
      </trkpt>
      <trkpt lat="47.72214" lon="5.00244">
        <ele>446.42</ele>
        <time>2022-06-02T08:33:14Z</time>
      </trkpt>
      <trkpt lat="47.72211" lon="5.00241">
        <ele>446.68</ele>
        <time>2022-06-02T08:33:15Z</time>
      </trkpt>
      <trkpt lat="47.72208" lon="5.00239">
        <ele>447.04</ele>
        <time>2022-06-02T08:33:18Z</time>
      </trkpt>
      <trkpt lat="47.72205" lon="5.00238">
        <ele>447.45</ele>
        <time>2022-06-02T08:33:19Z</time>
      </trkpt>
      <trkpt lat="47.72203" lon="5.00235">
        <ele>447.8</ele>
        <time>2022-06-02T08:33:21Z</time>
      </trkpt>
      <trkpt lat="47.722" lon="5.00232">
        <ele>448.38</ele>
        <time>2022-06-02T08:33:24Z</time>
      </trkpt>
      <trkpt lat="47.72197" lon="5.00229">
        <ele>449.05</ele>
        <time>2022-06-02T08:33:26Z</time>
      </trkpt>
      <trkpt lat="47.72194" lon="5.00227">
        <ele>449.77</ele>
        <time>2022-06-02T08:33:29Z</time>
      </trkpt>
      <trkpt lat="47.7219" lon="5.00223">
        <ele>451.07</ele>
        <time>2022-06-02T08:33:33Z</time>
      </trkpt>
      <trkpt lat="47.72187" lon="5.00219">
        <ele>451.79</ele>
        <time>2022-06-02T08:33:34Z</time>
      </trkpt>
      <trkpt lat="47.72184" lon="5.00216">
        <ele>452.49</ele>
        <time>2022-06-02T08:33:36Z</time>
      </trkpt>
      <trkpt lat="47.72181" lon="5.00212">
        <ele>453.2</ele>
        <time>2022-06-02T08:33:40Z</time>
      </trkpt>
      <trkpt lat="47.72178" lon="5.00209">
        <ele>453.95</ele>
        <time>2022-06-02T08:33:42Z</time>
      </trkpt>
      <trkpt lat="47.72175" lon="5.00206">
        <ele>454.72</ele>
        <time>2022-06-02T08:33:43Z</time>
      </trkpt>
      <trkpt lat="47.72172" lon="5.00204">
        <ele>455.53</ele>
        <time>2022-06-02T08:33:47Z</time>
      </trkpt>
      <trkpt lat="47.72169" lon="5.00201">
        <ele>456.35</ele>
        <time>2022-06-02T08:33:48Z</time>
      </trkpt>
      <trkpt lat="47.72166" lon="5.00199">
        <ele>457.08</ele>
        <time>2022-06-02T08:33:50Z</time>
      </trkpt>
      <trkpt lat="47.72163" lon="5.00197">
        <ele>457.41</ele>
        <time>2022-06-02T08:33:52Z</time>
      </trkpt>
      <trkpt lat="47.72161" lon="5.00195">
        <ele>457.62</ele>
        <time>2022-06-02T08:33:54Z</time>
      </trkpt>
      <trkpt lat="47.72158" lon="5.00192">
        <ele>457.84</ele>
        <time>2022-06-02T08:33:57Z</time>
      </trkpt>
      <trkpt lat="47.72154" lon="5.0019">
        <ele>458.27</ele>
        <time>2022-06-02T08:34:00Z</time>
      </trkpt>
      <trkpt lat="47.72152" lon="5.00187">
        <ele>458.47</ele>
        <time>2022-06-02T08:34:02Z</time>
      </trkpt>
      <trkpt lat="47.72149" lon="5.00185">
        <ele>458.88</ele>
        <time>2022-06-02T08:34:05Z</time>
      </trkpt>
      <trkpt lat="47.72146" lon="5.00183">
        <ele>459.33</ele>
        <time>2022-06-02T08:34:06Z</time>
      </trkpt>
      <trkpt lat="47.72143" lon="5.00181">
        <ele>459.83</ele>
        <time>2022-06-02T08:34:10Z</time>
      </trkpt>
      <trkpt lat="47.72141" lon="5.00179">
        <ele>460.2</ele>
        <time>2022-06-02T08:34:10Z</time>
      </trkpt>
      <trkpt lat="47.72137" lon="5.00176">
        <ele>460.71</ele>
        <time>2022-06-02T08:34:15Z</time>
      </trkpt>
      <trkpt lat="47.72134" lon="5.00175">
        <ele>460.82</ele>
        <time>2022-06-02T08:34:16Z</time>
      </trkpt>
      <trkpt lat="47.72131" lon="5.00172">
        <ele>461.04</ele>
        <time>2022-06-02T08:34:20Z</time>
      </trkpt>
      <trkpt lat="47.72128" lon="5.0017">
        <ele>461.22</ele>
        <time>2022-06-02T08:34:22Z</time>
      </trkpt>
      <trkpt lat="47.72125" lon="5.00167">
        <ele>461.48</ele>
        <time>2022-06-02T08:34:23Z</time>
      </trkpt>
      <trkpt lat="47.72122" lon="5.00164">
        <ele>461.61</ele>
        <time>2022-06-02T08:34:28Z</time>
      </trkpt>
      <trkpt lat="47.7212" lon="5.00161">
        <ele>461.68</ele>
        <time>2022-06-02T08:34:29Z</time>
      </trkpt>
      <trkpt lat="47.72117" lon="5.00158">
        <ele>461.79</ele>
        <time>2022-06-02T08:34:33Z</time>
      </trkpt>
      <trkpt lat="47.72115" lon="5.00156">
        <ele>461.86</ele>
        <time>2022-06-02T08:34:33Z</time>
      </trkpt>
      <trkpt lat="47.72112" lon="5.00154">
        <ele>461.97</ele>
        <time>2022-06-02T08:34:36Z</time>
      </trkpt>
      <trkpt lat="47.7211" lon="5.00152">
        <ele>462.14</ele>
        <time>2022-06-02T08:34:38Z</time>
      </trkpt>
      <trkpt lat="47.72107" lon="5.0015">
        <ele>462.53</ele>
        <time>2022-06-02T08:34:40Z</time>
      </trkpt>
      <trkpt lat="47.72104" lon="5.00148">
        <ele>462.94</ele>
        <time>2022-06-02T08:34:45Z</time>
      </trkpt>
      <trkpt lat="47.72102" lon="5.00146">
        <ele>463.23</ele>
        <time>2022-06-02T08:34:48Z</time>
      </trkpt>
      <trkpt lat="47.72099" lon="5.00143">
        <ele>463.68</ele>
        <time>2022-06-02T08:34:49Z</time>
      </trkpt>
      <trkpt lat="47.72096" lon="5.0014">
        <ele>464.15</ele>
        <time>2022-06-02T08:34:51Z</time>
      </trkpt>
      <trkpt lat="47.72094" lon="5.00137">
        <ele>464.26</ele>
        <time>2022-06-02T08:34:53Z</time>
      </trkpt>
      <trkpt lat="47.72092" lon="5.00133">
        <ele>464.12</ele>
        <time>2022-06-02T08:34:55Z</time>
      </trkpt>
      <trkpt lat="47.72089" lon="5.00131">
        <ele>464.33</ele>
        <time>2022-06-02T08:34:57Z</time>
      </trkpt>
      <trkpt lat="47.72087" lon="5.00128">
        <ele>464.3</ele>
        <time>2022-06-02T08:34:59Z</time>
      </trkpt>
      <trkpt lat="47.72085" lon="5.00124">
        <ele>464.15</ele>
        <time>2022-06-02T08:35:02Z</time>
      </trkpt>
      <trkpt lat="47.72083" lon="5.00121">
        <ele>464.1</ele>
        <time>2022-06-02T08:35:05Z</time>
      </trkpt>
      <trkpt lat="47.7208" lon="5.00118">
        <ele>464.01</ele>
        <time>2022-06-02T08:35:08Z</time>
      </trkpt>
      <trkpt lat="47.72078" lon="5.00115">
        <ele>463.83</ele>
        <time>2022-06-02T08:35:10Z</time>
      </trkpt>
      <trkpt lat="47.72075" lon="5.00113">
        <ele>463.82</ele>
        <time>2022-06-02T08:35:11Z</time>
      </trkpt>
      <trkpt lat="47.72073" lon="5.00111">
        <ele>463.73</ele>
        <time>2022-06-02T08:35:13Z</time>
      </trkpt>
      <trkpt lat="47.7207" lon="5.00108">
        <ele>463.57</ele>
        <time>2022-06-02T08:35:15Z</time>
      </trkpt>
      <trkpt lat="47.72068" lon="5.00105">
        <ele>463.3</ele>
        <time>2022-06-02T08:35:17Z</time>
      </trkpt>
      <trkpt lat="47.72066" lon="5.00102">
        <ele>462.98</ele>
        <time>2022-06-02T08:35:19Z</time>
      </trkpt>
      <trkpt lat="47.72064" lon="5.00098">
        <ele>462.46</ele>
        <time>2022-06-02T08:35:23Z</time>
      </trkpt>
      <trkpt lat="47.72062" lon="5.00095">
        <ele>462.04</ele>
        <time>2022-06-02T08:35:24Z</time>
      </trkpt>
      <trkpt lat="47.72059" lon="5.00091">
        <ele>461.4</ele>
        <time>2022-06-02T08:35:28Z</time>
      </trkpt>
      <trkpt lat="47.72057" lon="5.00088">
        <ele>460.87</ele>
        <time>2022-06-02T08:35:28Z</time>
      </trkpt>
      <trkpt lat="47.72054" lon="5.00084">
        <ele>460.06</ele>
        <time>2022-06-02T08:35:32Z</time>
      </trkpt>
      <trkpt lat="47.72051" lon="5.00081">
        <ele>459.51</ele>
        <time>2022-06-02T08:35:34Z</time>
      </trkpt>
      <trkpt lat="47.72048" lon="5.00079">
        <ele>459.15</ele>
        <time>2022-06-02T08:35:35Z</time>
      </trkpt>
      <trkpt lat="47.72045" lon="5.00076">
        <ele>458.66</ele>
        <time>2022-06-02T08:35:36Z</time>
      </trkpt>
      <trkpt lat="47.72043" lon="5.00074">
        <ele>458.36</ele>
        <time>2022-06-02T08:35:39Z</time>
      </trkpt>
      <trkpt lat="47.7204" lon="5.00072">
        <ele>458.04</ele>
        <time>2022-06-02T08:35:40Z</time>
      </trkpt>
      <trkpt lat="47.72038" lon="5.0007">
        <ele>457.75</ele>
        <time>2022-06-02T08:35:41Z</time>
      </trkpt>
      <trkpt lat="47.72035" lon="5.00067">
        <ele>457.34</ele>
        <time>2022-06-02T08:35:43Z</time>
      </trkpt>
      <trkpt lat="47.72032" lon="5.00064">
        <ele>456.96</ele>
        <time>2022-06-02T08:35:47Z</time>
      </trkpt>
      <trkpt lat="47.7203" lon="5.00061">
        <ele>456.6</ele>
        <time>2022-06-02T08:35:49Z</time>
      </trkpt>
      <trkpt lat="47.72027" lon="5.00058">
        <ele>456.35</ele>
        <time>2022-06-02T08:35:51Z</time>
      </trkpt>
      <trkpt lat="47.72025" lon="5.00055">
        <ele>456.15</ele>
        <time>2022-06-02T08:35:53Z</time>
      </trkpt>
      <trkpt lat="47.72022" lon="5.00051">
        <ele>455.45</ele>
        <time>2022-06-02T08:35:56Z</time>
      </trkpt>
      <trkpt lat="47.72019" lon="5.00048">
        <ele>455.12</ele>
        <time>2022-06-02T08:35:59Z</time>
      </trkpt>
      <trkpt lat="47.72017" lon="5.00046">
        <ele>454.95</ele>
        <time>2022-06-02T08:36:01Z</time>
      </trkpt>
      <trkpt lat="47.72015" lon="5.00044">
        <ele>454.82</ele>
        <time>2022-06-02T08:36:03Z</time>
      </trkpt>
      <trkpt lat="47.72013" lon="5.00041">
        <ele>454.52</ele>
        <time>2022-06-02T08:36:06Z</time>
      </trkpt>
      <trkpt lat="47.7201" lon="5.00038">
        <ele>454.48</ele>
        <time>2022-06-02T08:36:08Z</time>
      </trkpt>
      <trkpt lat="47.7201" lon="5.00034">
        <ele>453.7</ele>
        <time>2022-06-02T08:36:18Z</time>
      </trkpt>
      <trkpt lat="47.72012" lon="5.00031">
        <ele>452.64</ele>
        <time>2022-06-02T08:38:53Z</time>
      </trkpt>
      <trkpt lat="47.72014" lon="5.00032">
        <ele>452.39</ele>
        <time>2022-06-02T08:40:10Z</time>
      </trkpt>
      <trkpt lat="47.72017" lon="5.00031">
        <ele>451.46</ele>
        <time>2022-06-02T08:40:39Z</time>
      </trkpt>
      <trkpt lat="47.7202" lon="5.0003">
        <ele>450.51</ele>
        <time>2022-06-02T08:40:43Z</time>
      </trkpt>
      <trkpt lat="47.72023" lon="5.00029">
        <ele>449.53</ele>
        <time>2022-06-02T08:40:45Z</time>
      </trkpt>
      <trkpt lat="47.72026" lon="5.00027">
        <ele>448.34</ele>
        <time>2022-06-02T08:40:47Z</time>
      </trkpt>
      <trkpt lat="47.72029" lon="5.00027">
        <ele>447.93</ele>
        <time>2022-06-02T08:40:49Z</time>
      </trkpt>
      <trkpt lat="47.72032" lon="5.00027">
        <ele>448.04</ele>
        <time>2022-06-02T08:40:52Z</time>
      </trkpt>
      <trkpt lat="47.72035" lon="5.00024">
        <ele>447.68</ele>
        <time>2022-06-02T08:40:56Z</time>
      </trkpt>
      <trkpt lat="47.72038" lon="5.00022">
        <ele>447.46</ele>
        <time>2022-06-02T08:40:57Z</time>
      </trkpt>
      <trkpt lat="47.72041" lon="5.0002">
        <ele>447.22</ele>
        <time>2022-06-02T08:41:00Z</time>
      </trkpt>
      <trkpt lat="47.72044" lon="5.00019">
        <ele>447.14</ele>
        <time>2022-06-02T08:41:02Z</time>
      </trkpt>
      <trkpt lat="47.72047" lon="5.00017">
        <ele>446.87</ele>
        <time>2022-06-02T08:41:04Z</time>
      </trkpt>
      <trkpt lat="47.72049" lon="5.00015">
        <ele>446.57</ele>
        <time>2022-06-02T08:41:08Z</time>
      </trkpt>
      <trkpt lat="47.72051" lon="5.00012">
        <ele>446.09</ele>
        <time>2022-06-02T08:41:10Z</time>
      </trkpt>
      <trkpt lat="47.72054" lon="5.0001">
        <ele>445.78</ele>
        <time>2022-06-02T08:41:11Z</time>
      </trkpt>
      <trkpt lat="47.72056" lon="5.00008">
        <ele>445.39</ele>
        <time>2022-06-02T08:41:14Z</time>
      </trkpt>
      <trkpt lat="47.72059" lon="5.00005">
        <ele>444.49</ele>
        <time>2022-06-02T08:41:17Z</time>
      </trkpt>
      <trkpt lat="47.72061" lon="5.00001">
        <ele>443.42</ele>
        <time>2022-06-02T08:41:19Z</time>
      </trkpt>
      <trkpt lat="47.72063" lon="4.99998">
        <ele>442.41</ele>
        <time>2022-06-02T08:41:23Z</time>
      </trkpt>
      <trkpt lat="47.72065" lon="4.99995">
        <ele>441.38</ele>
        <time>2022-06-02T08:41:24Z</time>
      </trkpt>
      <trkpt lat="47.72067" lon="4.99991">
        <ele>440.16</ele>
        <time>2022-06-02T08:41:26Z</time>
      </trkpt>
      <trkpt lat="47.72069" lon="4.99988">
        <ele>439.24</ele>
        <time>2022-06-02T08:41:30Z</time>
      </trkpt>
      <trkpt lat="47.72071" lon="4.99985">
        <ele>438.36</ele>
        <time>2022-06-02T08:41:32Z</time>
      </trkpt>
      <trkpt lat="47.72074" lon="4.99982">
        <ele>437.45</ele>
        <time>2022-06-02T08:41:33Z</time>
      </trkpt>
      <trkpt lat="47.72076" lon="4.9998">
        <ele>436.89</ele>
        <time>2022-06-02T08:41:35Z</time>
      </trkpt>
      <trkpt lat="47.72079" lon="4.99977">
        <ele>436.1</ele>
        <time>2022-06-02T08:41:39Z</time>
      </trkpt>
      <trkpt lat="47.72082" lon="4.99975">
        <ele>435.56</ele>
        <time>2022-06-02T08:41:41Z</time>
      </trkpt>
      <trkpt lat="47.72084" lon="4.99974">
        <ele>435.27</ele>
        <time>2022-06-02T08:41:43Z</time>
      </trkpt>
      <trkpt lat="47.72087" lon="4.99973">
        <ele>434.88</ele>
        <time>2022-06-02T08:41:46Z</time>
      </trkpt>
      <trkpt lat="47.72091" lon="4.99972">
        <ele>434.42</ele>
        <time>2022-06-02T08:41:48Z</time>
      </trkpt>
      <trkpt lat="47.72094" lon="4.99971">
        <ele>434.07</ele>
        <time>2022-06-02T08:41:51Z</time>
      </trkpt>
      <trkpt lat="47.72097" lon="4.99971">
        <ele>433.84</ele>
        <time>2022-06-02T08:41:53Z</time>
      </trkpt>
      <trkpt lat="47.721" lon="4.99971">
        <ele>433.62</ele>
        <time>2022-06-02T08:41:55Z</time>
      </trkpt>
      <trkpt lat="47.72103" lon="4.99971">
        <ele>433.39</ele>
        <time>2022-06-02T08:41:57Z</time>
      </trkpt>
      <trkpt lat="47.72107" lon="4.9997">
        <ele>432.92</ele>
        <time>2022-06-02T08:42:01Z</time>
      </trkpt>
      <trkpt lat="47.72111" lon="4.9997">
        <ele>432.61</ele>
        <time>2022-06-02T08:42:02Z</time>
      </trkpt>
      <trkpt lat="47.72113" lon="4.9997">
        <ele>432.33</ele>
        <time>2022-06-02T08:42:04Z</time>
      </trkpt>
      <trkpt lat="47.72117" lon="4.9997">
        <ele>431.77</ele>
        <time>2022-06-02T08:42:07Z</time>
      </trkpt>
      <trkpt lat="47.7212" lon="4.99969">
        <ele>431.18</ele>
        <time>2022-06-02T08:42:08Z</time>
      </trkpt>
      <trkpt lat="47.72123" lon="4.9997">
        <ele>430.92</ele>
        <time>2022-06-02T08:42:12Z</time>
      </trkpt>
      <trkpt lat="47.72126" lon="4.9997">
        <ele>430.5</ele>
        <time>2022-06-02T08:42:14Z</time>
      </trkpt>
      <trkpt lat="47.72129" lon="4.9997">
        <ele>430.08</ele>
        <time>2022-06-02T08:42:14Z</time>
      </trkpt>
      <trkpt lat="47.72132" lon="4.9997">
        <ele>429.65</ele>
        <time>2022-06-02T08:42:18Z</time>
      </trkpt>
      <trkpt lat="47.72135" lon="4.99971">
        <ele>429.38</ele>
        <time>2022-06-02T08:42:20Z</time>
      </trkpt>
      <trkpt lat="47.72138" lon="4.99971">
        <ele>428.95</ele>
        <time>2022-06-02T08:42:21Z</time>
      </trkpt>
      <trkpt lat="47.72141" lon="4.99972">
        <ele>428.67</ele>
        <time>2022-06-02T08:42:25Z</time>
      </trkpt>
      <trkpt lat="47.72144" lon="4.99972">
        <ele>428.24</ele>
        <time>2022-06-02T08:42:27Z</time>
      </trkpt>
      <trkpt lat="47.72146" lon="4.99973">
        <ele>428.15</ele>
        <time>2022-06-02T08:42:28Z</time>
      </trkpt>
      <trkpt lat="47.7215" lon="4.99973">
        <ele>427.58</ele>
        <time>2022-06-02T08:42:31Z</time>
      </trkpt>
      <trkpt lat="47.72153" lon="4.99973">
        <ele>427.15</ele>
        <time>2022-06-02T08:42:33Z</time>
      </trkpt>
      <trkpt lat="47.72155" lon="4.99973">
        <ele>426.86</ele>
        <time>2022-06-02T08:42:36Z</time>
      </trkpt>
      <trkpt lat="47.72158" lon="4.99973">
        <ele>426.44</ele>
        <time>2022-06-02T08:42:40Z</time>
      </trkpt>
      <trkpt lat="47.72161" lon="4.99974">
        <ele>426.25</ele>
        <time>2022-06-02T08:42:42Z</time>
      </trkpt>
      <trkpt lat="47.72165" lon="4.99973">
        <ele>425.43</ele>
        <time>2022-06-02T08:42:43Z</time>
      </trkpt>
      <trkpt lat="47.72168" lon="4.99974">
        <ele>425.52</ele>
        <time>2022-06-02T08:42:47Z</time>
      </trkpt>
      <trkpt lat="47.72171" lon="4.99974">
        <ele>425.69</ele>
        <time>2022-06-02T08:42:48Z</time>
      </trkpt>
      <trkpt lat="47.72174" lon="4.99975">
        <ele>426.04</ele>
        <time>2022-06-02T08:42:50Z</time>
      </trkpt>
      <trkpt lat="47.72177" lon="4.99977">
        <ele>426.5</ele>
        <time>2022-06-02T08:42:53Z</time>
      </trkpt>
      <trkpt lat="47.7218" lon="4.99978">
        <ele>426.72</ele>
        <time>2022-06-02T08:42:57Z</time>
      </trkpt>
      <trkpt lat="47.72184" lon="4.99979">
        <ele>426.89</ele>
        <time>2022-06-02T08:42:59Z</time>
      </trkpt>
      <trkpt lat="47.72186" lon="4.9998">
        <ele>426.99</ele>
        <time>2022-06-02T08:43:00Z</time>
      </trkpt>
      <trkpt lat="47.7219" lon="4.99982">
        <ele>427.07</ele>
        <time>2022-06-02T08:43:02Z</time>
      </trkpt>
      <trkpt lat="47.72193" lon="4.99984">
        <ele>427.05</ele>
        <time>2022-06-02T08:43:04Z</time>
      </trkpt>
      <trkpt lat="47.72196" lon="4.99985">
        <ele>426.9</ele>
        <time>2022-06-02T08:43:06Z</time>
      </trkpt>
      <trkpt lat="47.72198" lon="4.99986">
        <ele>426.75</ele>
        <time>2022-06-02T08:43:09Z</time>
      </trkpt>
      <trkpt lat="47.72201" lon="4.99988">
        <ele>426.43</ele>
        <time>2022-06-02T08:43:11Z</time>
      </trkpt>
      <trkpt lat="47.72204" lon="4.99989">
        <ele>426.1</ele>
        <time>2022-06-02T08:43:12Z</time>
      </trkpt>
      <trkpt lat="47.72207" lon="4.9999">
        <ele>425.72</ele>
        <time>2022-06-02T08:43:16Z</time>
      </trkpt>
      <trkpt lat="47.7221" lon="4.99991">
        <ele>425.29</ele>
        <time>2022-06-02T08:43:17Z</time>
      </trkpt>
      <trkpt lat="47.72212" lon="4.99992">
        <ele>424.93</ele>
        <time>2022-06-02T08:43:21Z</time>
      </trkpt>
      <trkpt lat="47.72215" lon="4.99994">
        <ele>424.26</ele>
        <time>2022-06-02T08:43:22Z</time>
      </trkpt>
      <trkpt lat="47.72218" lon="4.99996">
        <ele>423.49</ele>
        <time>2022-06-02T08:43:26Z</time>
      </trkpt>
      <trkpt lat="47.72221" lon="4.99998">
        <ele>422.63</ele>
        <time>2022-06-02T08:43:27Z</time>
      </trkpt>
      <trkpt lat="47.72224" lon="5">
        <ele>421.42</ele>
        <time>2022-06-02T08:43:28Z</time>
      </trkpt>
      <trkpt lat="47.72226" lon="5.00002">
        <ele>420.93</ele>
        <time>2022-06-02T08:43:30Z</time>
      </trkpt>
      <trkpt lat="47.72229" lon="5.00004">
        <ele>420.13</ele>
        <time>2022-06-02T08:43:33Z</time>
      </trkpt>
      <trkpt lat="47.72232" lon="5.00005">
        <ele>419.26</ele>
        <time>2022-06-02T08:43:37Z</time>
      </trkpt>
      <trkpt lat="47.72235" lon="5.00007">
        <ele>418.48</ele>
        <time>2022-06-02T08:43:40Z</time>
      </trkpt>
      <trkpt lat="47.72238" lon="5.00008">
        <ele>417.63</ele>
        <time>2022-06-02T08:43:43Z</time>
      </trkpt>
      <trkpt lat="47.72241" lon="5.00009">
        <ele>416.78</ele>
        <time>2022-06-02T08:43:43Z</time>
      </trkpt>
      <trkpt lat="47.72244" lon="5.0001">
        <ele>415.95</ele>
        <time>2022-06-02T08:43:47Z</time>
      </trkpt>
      <trkpt lat="47.72247" lon="5.00011">
        <ele>415.12</ele>
        <time>2022-06-02T08:43:48Z</time>
      </trkpt>
      <trkpt lat="47.7225" lon="5.00013">
        <ele>414.4</ele>
        <time>2022-06-02T08:43:52Z</time>
      </trkpt>
      <trkpt lat="47.72253" lon="5.00014">
        <ele>413.76</ele>
        <time>2022-06-02T08:43:52Z</time>
      </trkpt>
      <trkpt lat="47.72257" lon="5.00015">
        <ele>412.86</ele>
        <time>2022-06-02T08:43:56Z</time>
      </trkpt>
      <trkpt lat="47.7226" lon="5.00015">
        <ele>412.1</ele>
        <time>2022-06-02T08:43:57Z</time>
      </trkpt>
      <trkpt lat="47.72263" lon="5.00016">
        <ele>411.45</ele>
        <time>2022-06-02T08:43:59Z</time>
      </trkpt>
      <trkpt lat="47.72266" lon="5.00017">
        <ele>410.8</ele>
        <time>2022-06-02T08:44:02Z</time>
      </trkpt>
      <trkpt lat="47.72269" lon="5.00017">
        <ele>410.05</ele>
        <time>2022-06-02T08:44:04Z</time>
      </trkpt>
      <trkpt lat="47.72272" lon="5.00017">
        <ele>409.29</ele>
        <time>2022-06-02T08:44:06Z</time>
      </trkpt>
      <trkpt lat="47.72275" lon="5.00016">
        <ele>408.43</ele>
        <time>2022-06-02T08:44:10Z</time>
      </trkpt>
      <trkpt lat="47.72278" lon="5.00014">
        <ele>407.52</ele>
        <time>2022-06-02T08:44:12Z</time>
      </trkpt>
      <trkpt lat="47.72281" lon="5.00012">
        <ele>407.49</ele>
        <time>2022-06-02T08:44:13Z</time>
      </trkpt>
      <trkpt lat="47.72284" lon="5.00009">
        <ele>407.43</ele>
        <time>2022-06-02T08:44:17Z</time>
      </trkpt>
      <trkpt lat="47.72286" lon="5.00008">
        <ele>407.5</ele>
        <time>2022-06-02T08:44:17Z</time>
      </trkpt>
      <trkpt lat="47.72289" lon="5.00007">
        <ele>407.66</ele>
        <time>2022-06-02T08:44:19Z</time>
      </trkpt>
      <trkpt lat="47.72292" lon="5.00006">
        <ele>407.85</ele>
        <time>2022-06-02T08:44:21Z</time>
      </trkpt>
      <trkpt lat="47.72295" lon="5.00004">
        <ele>408.02</ele>
        <time>2022-06-02T08:44:24Z</time>
      </trkpt>
      <trkpt lat="47.72298" lon="5.00002">
        <ele>408.24</ele>
        <time>2022-06-02T08:44:27Z</time>
      </trkpt>
      <trkpt lat="47.72301" lon="5.00001">
        <ele>408.53</ele>
        <time>2022-06-02T08:44:29Z</time>
      </trkpt>
      <trkpt lat="47.72303" lon="5">
        <ele>408.72</ele>
        <time>2022-06-02T08:44:32Z</time>
      </trkpt>
      <trkpt lat="47.72306" lon="4.99998">
        <ele>408.88</ele>
        <time>2022-06-02T08:44:33Z</time>
      </trkpt>
      <trkpt lat="47.72309" lon="4.99995">
        <ele>408.51</ele>
        <time>2022-06-02T08:44:35Z</time>
      </trkpt>
      <trkpt lat="47.72311" lon="4.99994">
        <ele>408.32</ele>
        <time>2022-06-02T08:44:37Z</time>
      </trkpt>
      <trkpt lat="47.72314" lon="4.99992">
        <ele>408.06</ele>
        <time>2022-06-02T08:44:39Z</time>
      </trkpt>
      <trkpt lat="47.72318" lon="4.99991">
        <ele>407.77</ele>
        <time>2022-06-02T08:44:43Z</time>
      </trkpt>
      <trkpt lat="47.7232" lon="4.9999">
        <ele>407.64</ele>
        <time>2022-06-02T08:44:43Z</time>
      </trkpt>
      <trkpt lat="47.72323" lon="4.99989">
        <ele>407.47</ele>
        <time>2022-06-02T08:44:45Z</time>
      </trkpt>
      <trkpt lat="47.72327" lon="4.99988">
        <ele>407.25</ele>
        <time>2022-06-02T08:44:48Z</time>
      </trkpt>
      <trkpt lat="47.7233" lon="4.99987">
        <ele>407.13</ele>
        <time>2022-06-02T08:44:50Z</time>
      </trkpt>
      <trkpt lat="47.72333" lon="4.99985">
        <ele>407.1</ele>
        <time>2022-06-02T08:44:52Z</time>
      </trkpt>
      <trkpt lat="47.72336" lon="4.99984">
        <ele>406.93</ele>
        <time>2022-06-02T08:44:56Z</time>
      </trkpt>
      <trkpt lat="47.72339" lon="4.99982">
        <ele>406.77</ele>
        <time>2022-06-02T08:44:56Z</time>
      </trkpt>
      <trkpt lat="47.72342" lon="4.99981">
        <ele>406.51</ele>
        <time>2022-06-02T08:44:59Z</time>
      </trkpt>
      <trkpt lat="47.72345" lon="4.9998">
        <ele>406.23</ele>
        <time>2022-06-02T08:45:01Z</time>
      </trkpt>
      <trkpt lat="47.72349" lon="4.99979">
        <ele>405.81</ele>
        <time>2022-06-02T08:45:05Z</time>
      </trkpt>
      <trkpt lat="47.72351" lon="4.99978">
        <ele>405.57</ele>
        <time>2022-06-02T08:45:07Z</time>
      </trkpt>
      <trkpt lat="47.72355" lon="4.99977">
        <ele>405.07</ele>
        <time>2022-06-02T08:45:08Z</time>
      </trkpt>
      <trkpt lat="47.72358" lon="4.99976">
        <ele>404.66</ele>
        <time>2022-06-02T08:45:10Z</time>
      </trkpt>
      <trkpt lat="47.72361" lon="4.99975">
        <ele>404.21</ele>
        <time>2022-06-02T08:45:13Z</time>
      </trkpt>
      <trkpt lat="47.72363" lon="4.99975">
        <ele>404.17</ele>
        <time>2022-06-02T08:45:14Z</time>
      </trkpt>
      <trkpt lat="47.72366" lon="4.99974">
        <ele>404.08</ele>
        <time>2022-06-02T08:45:18Z</time>
      </trkpt>
      <trkpt lat="47.72369" lon="4.99973">
        <ele>404.02</ele>
        <time>2022-06-02T08:45:19Z</time>
      </trkpt>
      <trkpt lat="47.72372" lon="4.99972">
        <ele>404.03</ele>
        <time>2022-06-02T08:45:24Z</time>
      </trkpt>
      <trkpt lat="47.72375" lon="4.99971">
        <ele>404.13</ele>
        <time>2022-06-02T08:45:25Z</time>
      </trkpt>
      <trkpt lat="47.72378" lon="4.99969">
        <ele>404.27</ele>
        <time>2022-06-02T08:45:28Z</time>
      </trkpt>
      <trkpt lat="47.72381" lon="4.99968">
        <ele>404.26</ele>
        <time>2022-06-02T08:45:32Z</time>
      </trkpt>
      <trkpt lat="47.72384" lon="4.99967">
        <ele>404.2</ele>
        <time>2022-06-02T08:45:34Z</time>
      </trkpt>
      <trkpt lat="47.72386" lon="4.99966">
        <ele>404.14</ele>
        <time>2022-06-02T08:45:35Z</time>
      </trkpt>
      <trkpt lat="47.7239" lon="4.99964">
        <ele>403.97</ele>
        <time>2022-06-02T08:45:37Z</time>
      </trkpt>
      <trkpt lat="47.72392" lon="4.99963">
        <ele>403.93</ele>
        <time>2022-06-02T08:45:39Z</time>
      </trkpt>
      <trkpt lat="47.72395" lon="4.99961">
        <ele>403.87</ele>
        <time>2022-06-02T08:45:43Z</time>
      </trkpt>
      <trkpt lat="47.72397" lon="4.99959">
        <ele>403.85</ele>
        <time>2022-06-02T08:45:45Z</time>
      </trkpt>
      <trkpt lat="47.724" lon="4.99957">
        <ele>403.82</ele>
        <time>2022-06-02T08:45:47Z</time>
      </trkpt>
      <trkpt lat="47.72403" lon="4.99956">
        <ele>403.79</ele>
        <time>2022-06-02T08:45:48Z</time>
      </trkpt>
      <trkpt lat="47.72407" lon="4.99954">
        <ele>403.78</ele>
        <time>2022-06-02T08:45:52Z</time>
      </trkpt>
      <trkpt lat="47.7241" lon="4.99953">
        <ele>403.77</ele>
        <time>2022-06-02T08:45:53Z</time>
      </trkpt>
      <trkpt lat="47.72413" lon="4.99952">
        <ele>403.76</ele>
        <time>2022-06-02T08:45:56Z</time>
      </trkpt>
      <trkpt lat="47.72416" lon="4.9995">
        <ele>403.8</ele>
        <time>2022-06-02T08:45:59Z</time>
      </trkpt>
      <trkpt lat="47.72419" lon="4.99948">
        <ele>403.51</ele>
        <time>2022-06-02T08:46:00Z</time>
      </trkpt>
      <trkpt lat="47.72422" lon="4.99947">
        <ele>403.04</ele>
        <time>2022-06-02T08:46:02Z</time>
      </trkpt>
      <trkpt lat="47.72425" lon="4.99945">
        <ele>402.51</ele>
        <time>2022-06-02T08:46:04Z</time>
      </trkpt>
      <trkpt lat="47.72428" lon="4.99944">
        <ele>401.97</ele>
        <time>2022-06-02T08:46:08Z</time>
      </trkpt>
      <trkpt lat="47.72431" lon="4.99942">
        <ele>401.52</ele>
        <time>2022-06-02T08:46:10Z</time>
      </trkpt>
      <trkpt lat="47.72433" lon="4.99942">
        <ele>401.19</ele>
        <time>2022-06-02T08:46:12Z</time>
      </trkpt>
      <trkpt lat="47.72436" lon="4.99941">
        <ele>400.79</ele>
        <time>2022-06-02T08:46:14Z</time>
      </trkpt>
      <trkpt lat="47.72439" lon="4.99939">
        <ele>400.53</ele>
        <time>2022-06-02T08:46:18Z</time>
      </trkpt>
      <trkpt lat="47.72442" lon="4.99938">
        <ele>400.25</ele>
        <time>2022-06-02T08:46:21Z</time>
      </trkpt>
      <trkpt lat="47.72445" lon="4.99936">
        <ele>400.16</ele>
        <time>2022-06-02T08:46:23Z</time>
      </trkpt>
      <trkpt lat="47.72448" lon="4.99935">
        <ele>399.98</ele>
        <time>2022-06-02T08:46:25Z</time>
      </trkpt>
      <trkpt lat="47.7245" lon="4.99933">
        <ele>400.05</ele>
        <time>2022-06-02T08:46:27Z</time>
      </trkpt>
      <trkpt lat="47.72453" lon="4.99931">
        <ele>400.01</ele>
        <time>2022-06-02T08:46:31Z</time>
      </trkpt>
      <trkpt lat="47.72456" lon="4.99929">
        <ele>399.98</ele>
        <time>2022-06-02T08:46:33Z</time>
      </trkpt>
      <trkpt lat="47.72459" lon="4.99927">
        <ele>399.94</ele>
        <time>2022-06-02T08:46:34Z</time>
      </trkpt>
      <trkpt lat="47.72461" lon="4.99925">
        <ele>400.01</ele>
        <time>2022-06-02T08:46:37Z</time>
      </trkpt>
      <trkpt lat="47.72464" lon="4.99922">
        <ele>400.12</ele>
        <time>2022-06-02T08:46:40Z</time>
      </trkpt>
      <trkpt lat="47.72466" lon="4.9992">
        <ele>400.19</ele>
        <time>2022-06-02T08:46:42Z</time>
      </trkpt>
      <trkpt lat="47.72469" lon="4.99918">
        <ele>400.16</ele>
        <time>2022-06-02T08:46:45Z</time>
      </trkpt>
      <trkpt lat="47.72472" lon="4.99916">
        <ele>400.12</ele>
        <time>2022-06-02T08:46:46Z</time>
      </trkpt>
      <trkpt lat="47.72475" lon="4.99914">
        <ele>400.46</ele>
        <time>2022-06-02T08:46:48Z</time>
      </trkpt>
      <trkpt lat="47.72477" lon="4.99912">
        <ele>400.79</ele>
        <time>2022-06-02T08:46:50Z</time>
      </trkpt>
      <trkpt lat="47.7248" lon="4.9991">
        <ele>401.11</ele>
        <time>2022-06-02T08:46:53Z</time>
      </trkpt>
      <trkpt lat="47.72484" lon="4.99908">
        <ele>401.41</ele>
        <time>2022-06-02T08:46:56Z</time>
      </trkpt>
      <trkpt lat="47.72488" lon="4.99905">
        <ele>401.77</ele>
        <time>2022-06-02T08:47:00Z</time>
      </trkpt>
      <trkpt lat="47.7249" lon="4.99903">
        <ele>401.98</ele>
        <time>2022-06-02T08:47:02Z</time>
      </trkpt>
      <trkpt lat="47.72493" lon="4.99901">
        <ele>402.16</ele>
        <time>2022-06-02T08:47:02Z</time>
      </trkpt>
      <trkpt lat="47.72496" lon="4.99899">
        <ele>402.31</ele>
        <time>2022-06-02T08:47:05Z</time>
      </trkpt>
      <trkpt lat="47.72498" lon="4.99897">
        <ele>402.45</ele>
        <time>2022-06-02T08:47:07Z</time>
      </trkpt>
      <trkpt lat="47.72501" lon="4.99895">
        <ele>402.33</ele>
        <time>2022-06-02T08:47:09Z</time>
      </trkpt>
      <trkpt lat="47.72504" lon="4.99892">
        <ele>401.82</ele>
        <time>2022-06-02T08:47:12Z</time>
      </trkpt>
      <trkpt lat="47.72507" lon="4.9989">
        <ele>401.19</ele>
        <time>2022-06-02T08:47:15Z</time>
      </trkpt>
      <trkpt lat="47.72509" lon="4.99888">
        <ele>400.77</ele>
        <time>2022-06-02T08:47:16Z</time>
      </trkpt>
      <trkpt lat="47.72512" lon="4.99886">
        <ele>400.12</ele>
        <time>2022-06-02T08:47:18Z</time>
      </trkpt>
      <trkpt lat="47.72515" lon="4.99884">
        <ele>399.49</ele>
        <time>2022-06-02T08:47:21Z</time>
      </trkpt>
      <trkpt lat="47.72517" lon="4.99881">
        <ele>399.17</ele>
        <time>2022-06-02T08:47:24Z</time>
      </trkpt>
      <trkpt lat="47.7252" lon="4.99879">
        <ele>398.57</ele>
        <time>2022-06-02T08:47:26Z</time>
      </trkpt>
      <trkpt lat="47.72522" lon="4.99876">
        <ele>398.29</ele>
        <time>2022-06-02T08:47:27Z</time>
      </trkpt>
      <trkpt lat="47.72525" lon="4.99874">
        <ele>397.72</ele>
        <time>2022-06-02T08:47:30Z</time>
      </trkpt>
      <trkpt lat="47.72528" lon="4.99872">
        <ele>397.17</ele>
        <time>2022-06-02T08:47:34Z</time>
      </trkpt>
      <trkpt lat="47.7253" lon="4.99869">
        <ele>396.99</ele>
        <time>2022-06-02T08:47:36Z</time>
      </trkpt>
      <trkpt lat="47.72533" lon="4.99867">
        <ele>396.56</ele>
        <time>2022-06-02T08:47:36Z</time>
      </trkpt>
      <trkpt lat="47.72536" lon="4.99865">
        <ele>396.16</ele>
        <time>2022-06-02T08:47:38Z</time>
      </trkpt>
      <trkpt lat="47.72538" lon="4.99863">
        <ele>395.97</ele>
        <time>2022-06-02T08:47:41Z</time>
      </trkpt>
      <trkpt lat="47.72541" lon="4.99861">
        <ele>395.63</ele>
        <time>2022-06-02T08:47:44Z</time>
      </trkpt>
      <trkpt lat="47.72544" lon="4.99859">
        <ele>395.19</ele>
        <time>2022-06-02T08:47:46Z</time>
      </trkpt>
      <trkpt lat="47.72546" lon="4.99857">
        <ele>394.92</ele>
        <time>2022-06-02T08:47:50Z</time>
      </trkpt>
      <trkpt lat="47.72549" lon="4.99855">
        <ele>394.45</ele>
        <time>2022-06-02T08:47:52Z</time>
      </trkpt>
      <trkpt lat="47.72552" lon="4.99853">
        <ele>393.97</ele>
        <time>2022-06-02T08:47:53Z</time>
      </trkpt>
      <trkpt lat="47.72555" lon="4.9985">
        <ele>393.51</ele>
        <time>2022-06-02T08:47:57Z</time>
      </trkpt>
      <trkpt lat="47.72557" lon="4.99848">
        <ele>393.24</ele>
        <time>2022-06-02T08:47:58Z</time>
      </trkpt>
      <trkpt lat="47.7256" lon="4.99845">
        <ele>392.87</ele>
        <time>2022-06-02T08:48:01Z</time>
      </trkpt>
      <trkpt lat="47.72563" lon="4.99843">
        <ele>392.49</ele>
        <time>2022-06-02T08:48:03Z</time>
      </trkpt>
      <trkpt lat="47.72565" lon="4.99841">
        <ele>392.27</ele>
        <time>2022-06-02T08:48:05Z</time>
      </trkpt>
      <trkpt lat="47.72568" lon="4.99839">
        <ele>391.91</ele>
        <time>2022-06-02T08:48:09Z</time>
      </trkpt>
      <trkpt lat="47.72571" lon="4.99836">
        <ele>391.63</ele>
        <time>2022-06-02T08:48:11Z</time>
      </trkpt>
      <trkpt lat="47.72574" lon="4.99834">
        <ele>391.3</ele>
        <time>2022-06-02T08:48:11Z</time>
      </trkpt>
      <trkpt lat="47.72576" lon="4.99832">
        <ele>391.1</ele>
        <time>2022-06-02T08:48:14Z</time>
      </trkpt>
      <trkpt lat="47.72579" lon="4.9983">
        <ele>390.79</ele>
        <time>2022-06-02T08:48:17Z</time>
      </trkpt>
      <trkpt lat="47.72581" lon="4.99828">
        <ele>390.66</ele>
        <time>2022-06-02T08:48:18Z</time>
      </trkpt>
      <trkpt lat="47.72584" lon="4.99825">
        <ele>390.56</ele>
        <time>2022-06-02T08:48:20Z</time>
      </trkpt>
      <trkpt lat="47.72587" lon="4.99824">
        <ele>390.45</ele>
        <time>2022-06-02T08:48:21Z</time>
      </trkpt>
      <trkpt lat="47.72589" lon="4.99822">
        <ele>390.45</ele>
        <time>2022-06-02T08:48:25Z</time>
      </trkpt>
      <trkpt lat="47.72592" lon="4.9982">
        <ele>390.35</ele>
        <time>2022-06-02T08:48:25Z</time>
      </trkpt>
      <trkpt lat="47.72595" lon="4.99818">
        <ele>390.22</ele>
        <time>2022-06-02T08:48:27Z</time>
      </trkpt>
      <trkpt lat="47.72598" lon="4.99816">
        <ele>390.06</ele>
        <time>2022-06-02T08:48:31Z</time>
      </trkpt>
      <trkpt lat="47.72601" lon="4.99813">
        <ele>389.9</ele>
        <time>2022-06-02T08:48:33Z</time>
      </trkpt>
      <trkpt lat="47.72604" lon="4.99812">
        <ele>389.65</ele>
        <time>2022-06-02T08:48:33Z</time>
      </trkpt>
      <trkpt lat="47.72606" lon="4.9981">
        <ele>389.49</ele>
        <time>2022-06-02T08:48:36Z</time>
      </trkpt>
      <trkpt lat="47.72609" lon="4.99807">
        <ele>389.22</ele>
        <time>2022-06-02T08:48:39Z</time>
      </trkpt>
      <trkpt lat="47.72611" lon="4.99804">
        <ele>389.29</ele>
        <time>2022-06-02T08:48:40Z</time>
      </trkpt>
      <trkpt lat="47.72614" lon="4.99802">
        <ele>389.2</ele>
        <time>2022-06-02T08:48:42Z</time>
      </trkpt>
      <trkpt lat="47.72617" lon="4.998">
        <ele>389.07</ele>
        <time>2022-06-02T08:48:44Z</time>
      </trkpt>
      <trkpt lat="47.7262" lon="4.99797">
        <ele>389.06</ele>
        <time>2022-06-02T08:48:48Z</time>
      </trkpt>
      <trkpt lat="47.72623" lon="4.99795">
        <ele>388.86</ele>
        <time>2022-06-02T08:48:49Z</time>
      </trkpt>
      <trkpt lat="47.72625" lon="4.99793">
        <ele>388.81</ele>
        <time>2022-06-02T08:48:51Z</time>
      </trkpt>
      <trkpt lat="47.72628" lon="4.99791">
        <ele>388.55</ele>
        <time>2022-06-02T08:48:53Z</time>
      </trkpt>
      <trkpt lat="47.7263" lon="4.99788">
        <ele>388.58</ele>
        <time>2022-06-02T08:48:55Z</time>
      </trkpt>
      <trkpt lat="47.72633" lon="4.99786">
        <ele>388.26</ele>
        <time>2022-06-02T08:48:57Z</time>
      </trkpt>
      <trkpt lat="47.72636" lon="4.99783">
        <ele>388.02</ele>
        <time>2022-06-02T08:49:01Z</time>
      </trkpt>
      <trkpt lat="47.72639" lon="4.99781">
        <ele>387.61</ele>
        <time>2022-06-02T08:49:02Z</time>
      </trkpt>
      <trkpt lat="47.72642" lon="4.99779">
        <ele>386.78</ele>
        <time>2022-06-02T08:49:06Z</time>
      </trkpt>
      <trkpt lat="47.72644" lon="4.99776">
        <ele>386.28</ele>
        <time>2022-06-02T08:49:08Z</time>
      </trkpt>
      <trkpt lat="47.72647" lon="4.99773">
        <ele>385.5</ele>
        <time>2022-06-02T08:49:10Z</time>
      </trkpt>
      <trkpt lat="47.7265" lon="4.99771">
        <ele>384.73</ele>
        <time>2022-06-02T08:49:13Z</time>
      </trkpt>
      <trkpt lat="47.72653" lon="4.99768">
        <ele>384.17</ele>
        <time>2022-06-02T08:49:17Z</time>
      </trkpt>
      <trkpt lat="47.72656" lon="4.99765">
        <ele>383.72</ele>
        <time>2022-06-02T08:49:18Z</time>
      </trkpt>
      <trkpt lat="47.72658" lon="4.99762">
        <ele>383.64</ele>
        <time>2022-06-02T08:49:20Z</time>
      </trkpt>
      <trkpt lat="47.7266" lon="4.9976">
        <ele>383.47</ele>
        <time>2022-06-02T08:49:22Z</time>
      </trkpt>
      <trkpt lat="47.72663" lon="4.99758">
        <ele>383.12</ele>
        <time>2022-06-02T08:49:24Z</time>
      </trkpt>
      <trkpt lat="47.72666" lon="4.99754">
        <ele>383.27</ele>
        <time>2022-06-02T08:49:28Z</time>
      </trkpt>
      <trkpt lat="47.72669" lon="4.99752">
        <ele>382.87</ele>
        <time>2022-06-02T08:49:30Z</time>
      </trkpt>
      <trkpt lat="47.72671" lon="4.9975">
        <ele>382.6</ele>
        <time>2022-06-02T08:49:31Z</time>
      </trkpt>
      <trkpt lat="47.72674" lon="4.99748">
        <ele>381.77</ele>
        <time>2022-06-02T08:49:34Z</time>
      </trkpt>
      <trkpt lat="47.72677" lon="4.99746">
        <ele>381.01</ele>
        <time>2022-06-02T08:49:36Z</time>
      </trkpt>
      <trkpt lat="47.7268" lon="4.99744">
        <ele>380.31</ele>
        <time>2022-06-02T08:49:38Z</time>
      </trkpt>
      <trkpt lat="47.72683" lon="4.99741">
        <ele>379.79</ele>
        <time>2022-06-02T08:49:40Z</time>
      </trkpt>
      <trkpt lat="47.72685" lon="4.99739">
        <ele>379.5</ele>
        <time>2022-06-02T08:49:42Z</time>
      </trkpt>
      <trkpt lat="47.72688" lon="4.99738">
        <ele>378.85</ele>
        <time>2022-06-02T08:49:43Z</time>
      </trkpt>
      <trkpt lat="47.72691" lon="4.99736">
        <ele>378.39</ele>
        <time>2022-06-02T08:49:45Z</time>
      </trkpt>
      <trkpt lat="47.72694" lon="4.99735">
        <ele>377.81</ele>
        <time>2022-06-02T08:49:48Z</time>
      </trkpt>
      <trkpt lat="47.72696" lon="4.99733">
        <ele>378.08</ele>
        <time>2022-06-02T08:49:50Z</time>
      </trkpt>
      <trkpt lat="47.72699" lon="4.99731">
        <ele>378.47</ele>
        <time>2022-06-02T08:49:53Z</time>
      </trkpt>
      <trkpt lat="47.72702" lon="4.99729">
        <ele>378.85</ele>
        <time>2022-06-02T08:49:56Z</time>
      </trkpt>
      <trkpt lat="47.72706" lon="4.99727">
        <ele>379.21</ele>
        <time>2022-06-02T08:49:57Z</time>
      </trkpt>
      <trkpt lat="47.72708" lon="4.99726">
        <ele>379.39</ele>
        <time>2022-06-02T08:49:59Z</time>
      </trkpt>
      <trkpt lat="47.72711" lon="4.99725">
        <ele>379.56</ele>
        <time>2022-06-02T08:50:01Z</time>
      </trkpt>
      <trkpt lat="47.72714" lon="4.99724">
        <ele>379.73</ele>
        <time>2022-06-02T08:50:03Z</time>
      </trkpt>
      <trkpt lat="47.72717" lon="4.99722">
        <ele>380.03</ele>
        <time>2022-06-02T08:50:06Z</time>
      </trkpt>
      <trkpt lat="47.7272" lon="4.99721">
        <ele>380.12</ele>
        <time>2022-06-02T08:50:11Z</time>
      </trkpt>
      <trkpt lat="47.72723" lon="4.99719">
        <ele>380.11</ele>
        <time>2022-06-02T08:50:13Z</time>
      </trkpt>
      <trkpt lat="47.72726" lon="4.99717">
        <ele>379.78</ele>
        <time>2022-06-02T08:50:16Z</time>
      </trkpt>
      <trkpt lat="47.72728" lon="4.99714">
        <ele>379.64</ele>
        <time>2022-06-02T08:50:17Z</time>
      </trkpt>
      <trkpt lat="47.72731" lon="4.99712">
        <ele>379.24</ele>
        <time>2022-06-02T08:50:21Z</time>
      </trkpt>
      <trkpt lat="47.72734" lon="4.99711">
        <ele>378.77</ele>
        <time>2022-06-02T08:50:24Z</time>
      </trkpt>
      <trkpt lat="47.72737" lon="4.99708">
        <ele>378.35</ele>
        <time>2022-06-02T08:50:27Z</time>
      </trkpt>
      <trkpt lat="47.7274" lon="4.99707">
        <ele>377.83</ele>
        <time>2022-06-02T08:50:28Z</time>
      </trkpt>
      <trkpt lat="47.72743" lon="4.99705">
        <ele>377.32</ele>
        <time>2022-06-02T08:50:30Z</time>
      </trkpt>
      <trkpt lat="47.72746" lon="4.99703">
        <ele>376.78</ele>
        <time>2022-06-02T08:50:32Z</time>
      </trkpt>
      <trkpt lat="47.72748" lon="4.99701">
        <ele>376.4</ele>
        <time>2022-06-02T08:50:34Z</time>
      </trkpt>
      <trkpt lat="47.72751" lon="4.99699">
        <ele>376.19</ele>
        <time>2022-06-02T08:50:36Z</time>
      </trkpt>
      <trkpt lat="47.72754" lon="4.99696">
        <ele>376.73</ele>
        <time>2022-06-02T08:50:39Z</time>
      </trkpt>
      <trkpt lat="47.72757" lon="4.99693">
        <ele>377.32</ele>
        <time>2022-06-02T08:50:41Z</time>
      </trkpt>
      <trkpt lat="47.72759" lon="4.9969">
        <ele>377.74</ele>
        <time>2022-06-02T08:50:45Z</time>
      </trkpt>
      <trkpt lat="47.72761" lon="4.99688">
        <ele>378.03</ele>
        <time>2022-06-02T08:50:47Z</time>
      </trkpt>
      <trkpt lat="47.72764" lon="4.99685">
        <ele>378.34</ele>
        <time>2022-06-02T08:50:48Z</time>
      </trkpt>
      <trkpt lat="47.72766" lon="4.99682">
        <ele>378.42</ele>
        <time>2022-06-02T08:50:52Z</time>
      </trkpt>
      <trkpt lat="47.72769" lon="4.9968">
        <ele>378.49</ele>
        <time>2022-06-02T08:50:52Z</time>
      </trkpt>
      <trkpt lat="47.72771" lon="4.99677">
        <ele>378.34</ele>
        <time>2022-06-02T08:50:54Z</time>
      </trkpt>
      <trkpt lat="47.72774" lon="4.99674">
        <ele>378.08</ele>
        <time>2022-06-02T08:50:57Z</time>
      </trkpt>
      <trkpt lat="47.72776" lon="4.99671">
        <ele>377.68</ele>
        <time>2022-06-02T08:50:59Z</time>
      </trkpt>
      <trkpt lat="47.72778" lon="4.99668">
        <ele>377.22</ele>
        <time>2022-06-02T08:51:01Z</time>
      </trkpt>
      <trkpt lat="47.72781" lon="4.99665">
        <ele>377.32</ele>
        <time>2022-06-02T08:51:04Z</time>
      </trkpt>
      <trkpt lat="47.72783" lon="4.99661">
        <ele>377.41</ele>
        <time>2022-06-02T08:51:08Z</time>
      </trkpt>
      <trkpt lat="47.72785" lon="4.99658">
        <ele>377.46</ele>
        <time>2022-06-02T08:51:09Z</time>
      </trkpt>
      <trkpt lat="47.72787" lon="4.99654">
        <ele>377.39</ele>
        <time>2022-06-02T08:51:13Z</time>
      </trkpt>
      <trkpt lat="47.72789" lon="4.99651">
        <ele>377.3</ele>
        <time>2022-06-02T08:51:14Z</time>
      </trkpt>
      <trkpt lat="47.72791" lon="4.99648">
        <ele>377.15</ele>
        <time>2022-06-02T08:51:16Z</time>
      </trkpt>
      <trkpt lat="47.72793" lon="4.99645">
        <ele>376.93</ele>
        <time>2022-06-02T08:51:20Z</time>
      </trkpt>
      <trkpt lat="47.72796" lon="4.99642">
        <ele>376.64</ele>
        <time>2022-06-02T08:51:22Z</time>
      </trkpt>
      <trkpt lat="47.72798" lon="4.99639">
        <ele>376.28</ele>
        <time>2022-06-02T08:51:24Z</time>
      </trkpt>
      <trkpt lat="47.728" lon="4.99636">
        <ele>376.05</ele>
        <time>2022-06-02T08:51:26Z</time>
      </trkpt>
      <trkpt lat="47.72802" lon="4.99633">
        <ele>375.79</ele>
        <time>2022-06-02T08:51:30Z</time>
      </trkpt>
      <trkpt lat="47.72804" lon="4.99629">
        <ele>375.4</ele>
        <time>2022-06-02T08:51:32Z</time>
      </trkpt>
      <trkpt lat="47.72806" lon="4.99627">
        <ele>375.15</ele>
        <time>2022-06-02T08:51:33Z</time>
      </trkpt>
      <trkpt lat="47.72809" lon="4.99624">
        <ele>374.92</ele>
        <time>2022-06-02T08:51:36Z</time>
      </trkpt>
      <trkpt lat="47.72811" lon="4.99621">
        <ele>374.66</ele>
        <time>2022-06-02T08:51:40Z</time>
      </trkpt>
      <trkpt lat="47.72813" lon="4.99618">
        <ele>374.36</ele>
        <time>2022-06-02T08:51:42Z</time>
      </trkpt>
      <trkpt lat="47.72815" lon="4.99615">
        <ele>374.04</ele>
        <time>2022-06-02T08:51:43Z</time>
      </trkpt>
      <trkpt lat="47.72817" lon="4.99611">
        <ele>373.58</ele>
        <time>2022-06-02T08:51:45Z</time>
      </trkpt>
      <trkpt lat="47.72819" lon="4.99607">
        <ele>373.29</ele>
        <time>2022-06-02T08:51:48Z</time>
      </trkpt>
      <trkpt lat="47.72821" lon="4.99604">
        <ele>373.07</ele>
        <time>2022-06-02T08:51:50Z</time>
      </trkpt>
      <trkpt lat="47.72823" lon="4.99601">
        <ele>372.87</ele>
        <time>2022-06-02T08:51:52Z</time>
      </trkpt>
      <trkpt lat="47.72825" lon="4.99597">
        <ele>372.64</ele>
        <time>2022-06-02T08:51:54Z</time>
      </trkpt>
      <trkpt lat="47.72827" lon="4.99594">
        <ele>372.47</ele>
        <time>2022-06-02T08:51:56Z</time>
      </trkpt>
      <trkpt lat="47.7283" lon="4.9959">
        <ele>372.27</ele>
        <time>2022-06-02T08:51:59Z</time>
      </trkpt>
      <trkpt lat="47.72833" lon="4.99586">
        <ele>372.1</ele>
        <time>2022-06-02T08:52:01Z</time>
      </trkpt>
      <trkpt lat="47.72835" lon="4.99583">
        <ele>372</ele>
        <time>2022-06-02T08:52:04Z</time>
      </trkpt>
      <trkpt lat="47.72837" lon="4.99581">
        <ele>371.97</ele>
        <time>2022-06-02T08:52:07Z</time>
      </trkpt>
      <trkpt lat="47.7284" lon="4.99578">
        <ele>371.86</ele>
        <time>2022-06-02T08:52:08Z</time>
      </trkpt>
      <trkpt lat="47.72842" lon="4.99575">
        <ele>371.72</ele>
        <time>2022-06-02T08:52:11Z</time>
      </trkpt>
      <trkpt lat="47.72845" lon="4.99571">
        <ele>371.44</ele>
        <time>2022-06-02T08:52:16Z</time>
      </trkpt>
      <trkpt lat="47.72847" lon="4.99568">
        <ele>371.19</ele>
        <time>2022-06-02T08:52:18Z</time>
      </trkpt>
      <trkpt lat="47.7285" lon="4.99564">
        <ele>370.75</ele>
        <time>2022-06-02T08:52:19Z</time>
      </trkpt>
      <trkpt lat="47.72852" lon="4.99562">
        <ele>370.45</ele>
        <time>2022-06-02T08:52:20Z</time>
      </trkpt>
      <trkpt lat="47.72854" lon="4.99559">
        <ele>370.04</ele>
        <time>2022-06-02T08:52:24Z</time>
      </trkpt>
      <trkpt lat="47.72857" lon="4.99557">
        <ele>369.58</ele>
        <time>2022-06-02T08:52:26Z</time>
      </trkpt>
      <trkpt lat="47.72859" lon="4.99554">
        <ele>369.12</ele>
        <time>2022-06-02T08:52:27Z</time>
      </trkpt>
      <trkpt lat="47.72862" lon="4.99551">
        <ele>368.52</ele>
        <time>2022-06-02T08:52:29Z</time>
      </trkpt>
      <trkpt lat="47.72864" lon="4.99549">
        <ele>368.03</ele>
        <time>2022-06-02T08:52:32Z</time>
      </trkpt>
      <trkpt lat="47.72867" lon="4.99546">
        <ele>367.32</ele>
        <time>2022-06-02T08:52:34Z</time>
      </trkpt>
      <trkpt lat="47.72869" lon="4.99544">
        <ele>366.87</ele>
        <time>2022-06-02T08:52:35Z</time>
      </trkpt>
      <trkpt lat="47.72872" lon="4.99541">
        <ele>366.2</ele>
        <time>2022-06-02T08:52:38Z</time>
      </trkpt>
      <trkpt lat="47.72874" lon="4.99538">
        <ele>365.71</ele>
        <time>2022-06-02T08:52:41Z</time>
      </trkpt>
      <trkpt lat="47.72876" lon="4.99535">
        <ele>365.24</ele>
        <time>2022-06-02T08:52:41Z</time>
      </trkpt>
      <trkpt lat="47.72879" lon="4.99533">
        <ele>364.68</ele>
        <time>2022-06-02T08:52:44Z</time>
      </trkpt>
      <trkpt lat="47.72882" lon="4.99529">
        <ele>364.05</ele>
        <time>2022-06-02T08:52:48Z</time>
      </trkpt>
      <trkpt lat="47.72885" lon="4.99527">
        <ele>363.58</ele>
        <time>2022-06-02T08:52:50Z</time>
      </trkpt>
      <trkpt lat="47.72887" lon="4.99525">
        <ele>363.37</ele>
        <time>2022-06-02T08:52:52Z</time>
      </trkpt>
      <trkpt lat="47.7289" lon="4.99522">
        <ele>363.25</ele>
        <time>2022-06-02T08:52:52Z</time>
      </trkpt>
      <trkpt lat="47.72893" lon="4.9952">
        <ele>363.37</ele>
        <time>2022-06-02T08:52:55Z</time>
      </trkpt>
      <trkpt lat="47.72896" lon="4.99518">
        <ele>363.41</ele>
        <time>2022-06-02T08:53:00Z</time>
      </trkpt>
      <trkpt lat="47.72899" lon="4.99516">
        <ele>363.38</ele>
        <time>2022-06-02T08:53:02Z</time>
      </trkpt>
      <trkpt lat="47.72902" lon="4.99514">
        <ele>363.27</ele>
        <time>2022-06-02T08:53:03Z</time>
      </trkpt>
      <trkpt lat="47.72904" lon="4.99511">
        <ele>363.05</ele>
        <time>2022-06-02T08:53:06Z</time>
      </trkpt>
      <trkpt lat="47.72908" lon="4.99509">
        <ele>362.73</ele>
        <time>2022-06-02T08:53:10Z</time>
      </trkpt>
      <trkpt lat="47.72911" lon="4.99508">
        <ele>362.47</ele>
        <time>2022-06-02T08:53:12Z</time>
      </trkpt>
      <trkpt lat="47.72914" lon="4.99506">
        <ele>362.05</ele>
        <time>2022-06-02T08:53:15Z</time>
      </trkpt>
      <trkpt lat="47.72918" lon="4.99504">
        <ele>361.81</ele>
        <time>2022-06-02T08:53:16Z</time>
      </trkpt>
      <trkpt lat="47.72921" lon="4.99502">
        <ele>362.06</ele>
        <time>2022-06-02T08:53:18Z</time>
      </trkpt>
      <trkpt lat="47.72924" lon="4.99501">
        <ele>362.45</ele>
        <time>2022-06-02T08:53:20Z</time>
      </trkpt>
      <trkpt lat="47.72927" lon="4.99499">
        <ele>362.82</ele>
        <time>2022-06-02T08:53:22Z</time>
      </trkpt>
      <trkpt lat="47.7293" lon="4.99497">
        <ele>363.24</ele>
        <time>2022-06-02T08:53:24Z</time>
      </trkpt>
      <trkpt lat="47.72933" lon="4.99494">
        <ele>363.56</ele>
        <time>2022-06-02T08:53:25Z</time>
      </trkpt>
      <trkpt lat="47.72936" lon="4.99492">
        <ele>363.88</ele>
        <time>2022-06-02T08:53:27Z</time>
      </trkpt>
      <trkpt lat="47.72939" lon="4.9949">
        <ele>364.15</ele>
        <time>2022-06-02T08:53:31Z</time>
      </trkpt>
      <trkpt lat="47.72942" lon="4.99489">
        <ele>364.48</ele>
        <time>2022-06-02T08:53:33Z</time>
      </trkpt>
      <trkpt lat="47.72945" lon="4.99488">
        <ele>364.71</ele>
        <time>2022-06-02T08:53:35Z</time>
      </trkpt>
      <trkpt lat="47.72948" lon="4.99486">
        <ele>364.55</ele>
        <time>2022-06-02T08:53:38Z</time>
      </trkpt>
      <trkpt lat="47.72951" lon="4.99484">
        <ele>364.41</ele>
        <time>2022-06-02T08:53:39Z</time>
      </trkpt>
      <trkpt lat="47.72954" lon="4.99482">
        <ele>364.28</ele>
        <time>2022-06-02T08:53:43Z</time>
      </trkpt>
      <trkpt lat="47.72958" lon="4.9948">
        <ele>364.19</ele>
        <time>2022-06-02T08:53:46Z</time>
      </trkpt>
      <trkpt lat="47.72961" lon="4.99479">
        <ele>364.18</ele>
        <time>2022-06-02T08:53:48Z</time>
      </trkpt>
      <trkpt lat="47.72964" lon="4.99478">
        <ele>364.18</ele>
        <time>2022-06-02T08:53:49Z</time>
      </trkpt>
      <trkpt lat="47.72967" lon="4.99477">
        <ele>364.19</ele>
        <time>2022-06-02T08:53:51Z</time>
      </trkpt>
      <trkpt lat="47.72971" lon="4.99476">
        <ele>364.23</ele>
        <time>2022-06-02T08:53:53Z</time>
      </trkpt>
      <trkpt lat="47.72974" lon="4.99475">
        <ele>364.02</ele>
        <time>2022-06-02T08:53:56Z</time>
      </trkpt>
      <trkpt lat="47.72977" lon="4.99474">
        <ele>363.63</ele>
        <time>2022-06-02T08:53:59Z</time>
      </trkpt>
      <trkpt lat="47.7298" lon="4.99473">
        <ele>363.23</ele>
        <time>2022-06-02T08:54:00Z</time>
      </trkpt>
      <trkpt lat="47.72983" lon="4.99472">
        <ele>362.83</ele>
        <time>2022-06-02T08:54:02Z</time>
      </trkpt>
      <trkpt lat="47.72986" lon="4.99471">
        <ele>362.45</ele>
        <time>2022-06-02T08:54:06Z</time>
      </trkpt>
      <trkpt lat="47.72989" lon="4.9947">
        <ele>362.03</ele>
        <time>2022-06-02T08:54:08Z</time>
      </trkpt>
      <trkpt lat="47.72992" lon="4.9947">
        <ele>361.66</ele>
        <time>2022-06-02T08:54:09Z</time>
      </trkpt>
      <trkpt lat="47.72996" lon="4.9947">
        <ele>361.17</ele>
        <time>2022-06-02T08:54:13Z</time>
      </trkpt>
      <trkpt lat="47.73" lon="4.99469">
        <ele>360.54</ele>
        <time>2022-06-02T08:54:15Z</time>
      </trkpt>
      <trkpt lat="47.73003" lon="4.99468">
        <ele>360.12</ele>
        <time>2022-06-02T08:54:18Z</time>
      </trkpt>
      <trkpt lat="47.73006" lon="4.99468">
        <ele>359.84</ele>
        <time>2022-06-02T08:54:19Z</time>
      </trkpt>
      <trkpt lat="47.73009" lon="4.99467">
        <ele>359.46</ele>
        <time>2022-06-02T08:54:21Z</time>
      </trkpt>
      <trkpt lat="47.73013" lon="4.99468">
        <ele>359.2</ele>
        <time>2022-06-02T08:54:25Z</time>
      </trkpt>
      <trkpt lat="47.73016" lon="4.99468">
        <ele>358.93</ele>
        <time>2022-06-02T08:54:28Z</time>
      </trkpt>
      <trkpt lat="47.73019" lon="4.99467">
        <ele>358.58</ele>
        <time>2022-06-02T08:54:28Z</time>
      </trkpt>
      <trkpt lat="47.73023" lon="4.99467">
        <ele>358.23</ele>
        <time>2022-06-02T08:54:32Z</time>
      </trkpt>
      <trkpt lat="47.73026" lon="4.99466">
        <ele>357.92</ele>
        <time>2022-06-02T08:54:35Z</time>
      </trkpt>
      <trkpt lat="47.73029" lon="4.99465">
        <ele>357.78</ele>
        <time>2022-06-02T08:54:38Z</time>
      </trkpt>
      <trkpt lat="47.73032" lon="4.99463">
        <ele>357.82</ele>
        <time>2022-06-02T08:54:39Z</time>
      </trkpt>
      <trkpt lat="47.73035" lon="4.99461">
        <ele>357.86</ele>
        <time>2022-06-02T08:54:41Z</time>
      </trkpt>
      <trkpt lat="47.73037" lon="4.99457">
        <ele>357.78</ele>
        <time>2022-06-02T08:54:45Z</time>
      </trkpt>
      <trkpt lat="47.73039" lon="4.99454">
        <ele>357.75</ele>
        <time>2022-06-02T08:54:47Z</time>
      </trkpt>
      <trkpt lat="47.73041" lon="4.99451">
        <ele>357.71</ele>
        <time>2022-06-02T08:54:48Z</time>
      </trkpt>
      <trkpt lat="47.73043" lon="4.99447">
        <ele>357.64</ele>
        <time>2022-06-02T08:54:50Z</time>
      </trkpt>
      <trkpt lat="47.73045" lon="4.99444">
        <ele>357.64</ele>
        <time>2022-06-02T08:54:54Z</time>
      </trkpt>
      <trkpt lat="47.73047" lon="4.99441">
        <ele>357.85</ele>
        <time>2022-06-02T08:54:56Z</time>
      </trkpt>
      <trkpt lat="47.73049" lon="4.99437">
        <ele>358.1</ele>
        <time>2022-06-02T08:54:57Z</time>
      </trkpt>
      <trkpt lat="47.73051" lon="4.99434">
        <ele>358.27</ele>
        <time>2022-06-02T08:54:59Z</time>
      </trkpt>
      <trkpt lat="47.73053" lon="4.9943">
        <ele>358.48</ele>
        <time>2022-06-02T08:55:01Z</time>
      </trkpt>
      <trkpt lat="47.73056" lon="4.99427">
        <ele>358.7</ele>
        <time>2022-06-02T08:55:05Z</time>
      </trkpt>
      <trkpt lat="47.73058" lon="4.99424">
        <ele>359.11</ele>
        <time>2022-06-02T08:55:07Z</time>
      </trkpt>
      <trkpt lat="47.7306" lon="4.9942">
        <ele>359.54</ele>
        <time>2022-06-02T08:55:08Z</time>
      </trkpt>
      <trkpt lat="47.73062" lon="4.99417">
        <ele>359.92</ele>
        <time>2022-06-02T08:55:10Z</time>
      </trkpt>
      <trkpt lat="47.73064" lon="4.99413">
        <ele>360.48</ele>
        <time>2022-06-02T08:55:15Z</time>
      </trkpt>
      <trkpt lat="47.73067" lon="4.9941">
        <ele>361.13</ele>
        <time>2022-06-02T08:55:17Z</time>
      </trkpt>
      <trkpt lat="47.73069" lon="4.99407">
        <ele>361.63</ele>
        <time>2022-06-02T08:55:18Z</time>
      </trkpt>
      <trkpt lat="47.73071" lon="4.99404">
        <ele>362.14</ele>
        <time>2022-06-02T08:55:21Z</time>
      </trkpt>
      <trkpt lat="47.73074" lon="4.99401">
        <ele>362.78</ele>
        <time>2022-06-02T08:55:22Z</time>
      </trkpt>
      <trkpt lat="47.73076" lon="4.99398">
        <ele>363.29</ele>
        <time>2022-06-02T08:55:25Z</time>
      </trkpt>
      <trkpt lat="47.73078" lon="4.99394">
        <ele>363.86</ele>
        <time>2022-06-02T08:55:28Z</time>
      </trkpt>
      <trkpt lat="47.73081" lon="4.99391">
        <ele>364.51</ele>
        <time>2022-06-02T08:55:30Z</time>
      </trkpt>
      <trkpt lat="47.73083" lon="4.99387">
        <ele>364.82</ele>
        <time>2022-06-02T08:55:33Z</time>
      </trkpt>
      <trkpt lat="47.73085" lon="4.99383">
        <ele>364.74</ele>
        <time>2022-06-02T08:55:37Z</time>
      </trkpt>
      <trkpt lat="47.73087" lon="4.9938">
        <ele>364.71</ele>
        <time>2022-06-02T08:55:40Z</time>
      </trkpt>
      <trkpt lat="47.73089" lon="4.99376">
        <ele>364.59</ele>
        <time>2022-06-02T08:55:42Z</time>
      </trkpt>
      <trkpt lat="47.7309" lon="4.99371">
        <ele>364.28</ele>
        <time>2022-06-02T08:55:45Z</time>
      </trkpt>
      <trkpt lat="47.73092" lon="4.99366">
        <ele>364.03</ele>
        <time>2022-06-02T08:55:47Z</time>
      </trkpt>
      <trkpt lat="47.73093" lon="4.99362">
        <ele>363.77</ele>
        <time>2022-06-02T08:55:50Z</time>
      </trkpt>
      <trkpt lat="47.73094" lon="4.99358">
        <ele>363.59</ele>
        <time>2022-06-02T08:55:51Z</time>
      </trkpt>
      <trkpt lat="47.73095" lon="4.99353">
        <ele>363.38</ele>
        <time>2022-06-02T08:55:55Z</time>
      </trkpt>
      <trkpt lat="47.73097" lon="4.99349">
        <ele>363.33</ele>
        <time>2022-06-02T08:55:56Z</time>
      </trkpt>
      <trkpt lat="47.73098" lon="4.99345">
        <ele>363.2</ele>
        <time>2022-06-02T08:55:58Z</time>
      </trkpt>
      <trkpt lat="47.73099" lon="4.99342">
        <ele>363.14</ele>
        <time>2022-06-02T08:56:01Z</time>
      </trkpt>
      <trkpt lat="47.73101" lon="4.99338">
        <ele>363.14</ele>
        <time>2022-06-02T08:56:03Z</time>
      </trkpt>
      <trkpt lat="47.73103" lon="4.99335">
        <ele>363.2</ele>
        <time>2022-06-02T08:56:08Z</time>
      </trkpt>
      <trkpt lat="47.73104" lon="4.99331">
        <ele>363.09</ele>
        <time>2022-06-02T08:56:11Z</time>
      </trkpt>
      <trkpt lat="47.73106" lon="4.99327">
        <ele>363.03</ele>
        <time>2022-06-02T08:56:12Z</time>
      </trkpt>
      <trkpt lat="47.73107" lon="4.99322">
        <ele>362.8</ele>
        <time>2022-06-02T08:56:17Z</time>
      </trkpt>
      <trkpt lat="47.73109" lon="4.99318">
        <ele>362.71</ele>
        <time>2022-06-02T08:56:18Z</time>
      </trkpt>
      <trkpt lat="47.73111" lon="4.99314">
        <ele>362.6</ele>
        <time>2022-06-02T08:56:21Z</time>
      </trkpt>
      <trkpt lat="47.73113" lon="4.9931">
        <ele>362.52</ele>
        <time>2022-06-02T08:56:24Z</time>
      </trkpt>
      <trkpt lat="47.73115" lon="4.99306">
        <ele>362.45</ele>
        <time>2022-06-02T08:56:26Z</time>
      </trkpt>
      <trkpt lat="47.73117" lon="4.99303">
        <ele>362.29</ele>
        <time>2022-06-02T08:56:28Z</time>
      </trkpt>
      <trkpt lat="47.73119" lon="4.993">
        <ele>362.11</ele>
        <time>2022-06-02T08:56:32Z</time>
      </trkpt>
      <trkpt lat="47.73121" lon="4.99297">
        <ele>361.95</ele>
        <time>2022-06-02T08:56:33Z</time>
      </trkpt>
      <trkpt lat="47.73123" lon="4.99294">
        <ele>361.8</ele>
        <time>2022-06-02T08:56:35Z</time>
      </trkpt>
      <trkpt lat="47.73125" lon="4.9929">
        <ele>361.54</ele>
        <time>2022-06-02T08:56:38Z</time>
      </trkpt>
      <trkpt lat="47.73128" lon="4.99287">
        <ele>361.56</ele>
        <time>2022-06-02T08:56:40Z</time>
      </trkpt>
      <trkpt lat="47.73129" lon="4.99284">
        <ele>361.33</ele>
        <time>2022-06-02T08:56:43Z</time>
      </trkpt>
      <trkpt lat="47.73131" lon="4.9928">
        <ele>361.13</ele>
        <time>2022-06-02T08:56:44Z</time>
      </trkpt>
      <trkpt lat="47.73133" lon="4.99277">
        <ele>361.05</ele>
        <time>2022-06-02T08:56:48Z</time>
      </trkpt>
      <trkpt lat="47.73135" lon="4.99273">
        <ele>360.8</ele>
        <time>2022-06-02T08:56:49Z</time>
      </trkpt>
      <trkpt lat="47.73137" lon="4.99269">
        <ele>360.51</ele>
        <time>2022-06-02T08:56:52Z</time>
      </trkpt>
      <trkpt lat="47.73139" lon="4.99266">
        <ele>360.32</ele>
        <time>2022-06-02T08:56:55Z</time>
      </trkpt>
      <trkpt lat="47.73142" lon="4.99262">
        <ele>360.1</ele>
        <time>2022-06-02T08:56:56Z</time>
      </trkpt>
      <trkpt lat="47.73144" lon="4.99257">
        <ele>359.52</ele>
        <time>2022-06-02T08:56:59Z</time>
      </trkpt>
      <trkpt lat="47.73146" lon="4.99254">
        <ele>359.2</ele>
        <time>2022-06-02T08:57:01Z</time>
      </trkpt>
      <trkpt lat="47.73148" lon="4.99251">
        <ele>358.84</ele>
        <time>2022-06-02T08:57:03Z</time>
      </trkpt>
      <trkpt lat="47.73151" lon="4.99248">
        <ele>358.88</ele>
        <time>2022-06-02T08:57:06Z</time>
      </trkpt>
      <trkpt lat="47.73153" lon="4.99245">
        <ele>359.12</ele>
        <time>2022-06-02T08:57:08Z</time>
      </trkpt>
      <trkpt lat="47.73156" lon="4.99243">
        <ele>359.56</ele>
        <time>2022-06-02T08:57:10Z</time>
      </trkpt>
      <trkpt lat="47.73158" lon="4.9924">
        <ele>360.03</ele>
        <time>2022-06-02T08:57:14Z</time>
      </trkpt>
      <trkpt lat="47.73161" lon="4.99237">
        <ele>360.8</ele>
        <time>2022-06-02T08:57:16Z</time>
      </trkpt>
      <trkpt lat="47.73163" lon="4.99234">
        <ele>361.51</ele>
        <time>2022-06-02T08:57:17Z</time>
      </trkpt>
      <trkpt lat="47.73165" lon="4.9923">
        <ele>362.46</ele>
        <time>2022-06-02T08:57:21Z</time>
      </trkpt>
      <trkpt lat="47.73168" lon="4.99228">
        <ele>363.21</ele>
        <time>2022-06-02T08:57:22Z</time>
      </trkpt>
      <trkpt lat="47.7317" lon="4.99225">
        <ele>363.65</ele>
        <time>2022-06-02T08:57:24Z</time>
      </trkpt>
      <trkpt lat="47.73173" lon="4.99223">
        <ele>363.91</ele>
        <time>2022-06-02T08:57:26Z</time>
      </trkpt>
      <trkpt lat="47.73176" lon="4.99222">
        <ele>363.99</ele>
        <time>2022-06-02T08:57:30Z</time>
      </trkpt>
      <trkpt lat="47.73179" lon="4.9922">
        <ele>363.88</ele>
        <time>2022-06-02T08:57:33Z</time>
      </trkpt>
      <trkpt lat="47.73183" lon="4.99219">
        <ele>363.84</ele>
        <time>2022-06-02T08:57:36Z</time>
      </trkpt>
      <trkpt lat="47.73186" lon="4.99218">
        <ele>363.8</ele>
        <time>2022-06-02T08:57:38Z</time>
      </trkpt>
      <trkpt lat="47.73189" lon="4.99217">
        <ele>363.78</ele>
        <time>2022-06-02T08:57:39Z</time>
      </trkpt>
      <trkpt lat="47.73193" lon="4.99216">
        <ele>363.76</ele>
        <time>2022-06-02T08:57:43Z</time>
      </trkpt>
      <trkpt lat="47.73196" lon="4.99215">
        <ele>363.85</ele>
        <time>2022-06-02T08:57:46Z</time>
      </trkpt>
      <trkpt lat="47.73199" lon="4.99215">
        <ele>364.07</ele>
        <time>2022-06-02T08:57:47Z</time>
      </trkpt>
      <trkpt lat="47.73202" lon="4.99215">
        <ele>364.28</ele>
        <time>2022-06-02T08:57:50Z</time>
      </trkpt>
      <trkpt lat="47.73205" lon="4.99214">
        <ele>364.46</ele>
        <time>2022-06-02T08:57:51Z</time>
      </trkpt>
      <trkpt lat="47.73208" lon="4.99214">
        <ele>364.68</ele>
        <time>2022-06-02T08:57:52Z</time>
      </trkpt>
      <trkpt lat="47.73212" lon="4.99213">
        <ele>364.93</ele>
        <time>2022-06-02T08:57:54Z</time>
      </trkpt>
      <trkpt lat="47.73215" lon="4.99213">
        <ele>365.15</ele>
        <time>2022-06-02T08:57:56Z</time>
      </trkpt>
      <trkpt lat="47.73218" lon="4.99213">
        <ele>365.36</ele>
        <time>2022-06-02T08:58:00Z</time>
      </trkpt>
      <trkpt lat="47.73222" lon="4.99213">
        <ele>365.65</ele>
        <time>2022-06-02T08:58:02Z</time>
      </trkpt>
      <trkpt lat="47.73225" lon="4.99214">
        <ele>365</ele>
        <time>2022-06-02T08:58:05Z</time>
      </trkpt>
      <trkpt lat="47.73228" lon="4.99215">
        <ele>364.28</ele>
        <time>2022-06-02T08:58:07Z</time>
      </trkpt>
      <trkpt lat="47.73231" lon="4.99215">
        <ele>363.53</ele>
        <time>2022-06-02T08:58:08Z</time>
      </trkpt>
      <trkpt lat="47.73234" lon="4.99215">
        <ele>362.77</ele>
        <time>2022-06-02T08:58:10Z</time>
      </trkpt>
      <trkpt lat="47.73237" lon="4.99215">
        <ele>362.02</ele>
        <time>2022-06-02T08:58:14Z</time>
      </trkpt>
      <trkpt lat="47.7324" lon="4.99214">
        <ele>361.22</ele>
        <time>2022-06-02T08:58:16Z</time>
      </trkpt>
      <trkpt lat="47.73243" lon="4.99214">
        <ele>360.47</ele>
        <time>2022-06-02T08:58:16Z</time>
      </trkpt>
      <trkpt lat="47.73246" lon="4.99214">
        <ele>359.71</ele>
        <time>2022-06-02T08:58:19Z</time>
      </trkpt>
      <trkpt lat="47.73249" lon="4.99213">
        <ele>358.92</ele>
        <time>2022-06-02T08:58:22Z</time>
      </trkpt>
      <trkpt lat="47.73252" lon="4.99213">
        <ele>358.28</ele>
        <time>2022-06-02T08:58:22Z</time>
      </trkpt>
      <trkpt lat="47.73255" lon="4.99213">
        <ele>357.71</ele>
        <time>2022-06-02T08:58:25Z</time>
      </trkpt>
      <trkpt lat="47.73258" lon="4.99212">
        <ele>357.12</ele>
        <time>2022-06-02T08:58:27Z</time>
      </trkpt>
      <trkpt lat="47.73261" lon="4.99212">
        <ele>356.55</ele>
        <time>2022-06-02T08:58:29Z</time>
      </trkpt>
      <trkpt lat="47.73264" lon="4.99212">
        <ele>355.98</ele>
        <time>2022-06-02T08:58:31Z</time>
      </trkpt>
      <trkpt lat="47.73267" lon="4.99212">
        <ele>355.41</ele>
        <time>2022-06-02T08:58:33Z</time>
      </trkpt>
      <trkpt lat="47.7327" lon="4.99211">
        <ele>354.86</ele>
        <time>2022-06-02T08:58:35Z</time>
      </trkpt>
      <trkpt lat="47.73273" lon="4.99211">
        <ele>354.3</ele>
        <time>2022-06-02T08:58:37Z</time>
      </trkpt>
      <trkpt lat="47.73276" lon="4.99211">
        <ele>353.74</ele>
        <time>2022-06-02T08:58:40Z</time>
      </trkpt>
      <trkpt lat="47.73279" lon="4.99211">
        <ele>353.39</ele>
        <time>2022-06-02T08:58:44Z</time>
      </trkpt>
      <trkpt lat="47.73282" lon="4.9921">
        <ele>353.4</ele>
        <time>2022-06-02T08:58:46Z</time>
      </trkpt>
      <trkpt lat="47.73285" lon="4.9921">
        <ele>353.38</ele>
        <time>2022-06-02T08:58:47Z</time>
      </trkpt>
      <trkpt lat="47.73288" lon="4.9921">
        <ele>353.35</ele>
        <time>2022-06-02T08:58:51Z</time>
      </trkpt>
      <trkpt lat="47.73291" lon="4.9921">
        <ele>353.33</ele>
        <time>2022-06-02T08:58:51Z</time>
      </trkpt>
      <trkpt lat="47.73294" lon="4.9921">
        <ele>353.3</ele>
        <time>2022-06-02T08:58:54Z</time>
      </trkpt>
      <trkpt lat="47.73296" lon="4.9921">
        <ele>353.28</ele>
        <time>2022-06-02T08:58:57Z</time>
      </trkpt>
      <trkpt lat="47.73299" lon="4.9921">
        <ele>353.26</ele>
        <time>2022-06-02T08:58:59Z</time>
      </trkpt>
      <trkpt lat="47.73303" lon="4.9921">
        <ele>353.22</ele>
        <time>2022-06-02T08:59:02Z</time>
      </trkpt>
      <trkpt lat="47.73306" lon="4.9921">
        <ele>353.19</ele>
        <time>2022-06-02T08:59:04Z</time>
      </trkpt>
      <trkpt lat="47.73309" lon="4.99211">
        <ele>352.96</ele>
        <time>2022-06-02T08:59:06Z</time>
      </trkpt>
      <trkpt lat="47.73313" lon="4.99212">
        <ele>352.83</ele>
        <time>2022-06-02T08:59:08Z</time>
      </trkpt>
      <trkpt lat="47.73315" lon="4.99212">
        <ele>352.82</ele>
        <time>2022-06-02T08:59:10Z</time>
      </trkpt>
      <trkpt lat="47.73318" lon="4.99213">
        <ele>352.82</ele>
        <time>2022-06-02T08:59:13Z</time>
      </trkpt>
      <trkpt lat="47.73322" lon="4.99213">
        <ele>352.87</ele>
        <time>2022-06-02T08:59:15Z</time>
      </trkpt>
      <trkpt lat="47.73325" lon="4.99212">
        <ele>352.81</ele>
        <time>2022-06-02T08:59:18Z</time>
      </trkpt>
      <trkpt lat="47.73329" lon="4.99213">
        <ele>352.95</ele>
        <time>2022-06-02T08:59:20Z</time>
      </trkpt>
      <trkpt lat="47.73331" lon="4.99213">
        <ele>352.98</ele>
        <time>2022-06-02T08:59:21Z</time>
      </trkpt>
      <trkpt lat="47.73335" lon="4.99213">
        <ele>353.03</ele>
        <time>2022-06-02T08:59:24Z</time>
      </trkpt>
      <trkpt lat="47.73338" lon="4.99213">
        <ele>353.06</ele>
        <time>2022-06-02T08:59:26Z</time>
      </trkpt>
      <trkpt lat="47.73341" lon="4.99214">
        <ele>353.27</ele>
        <time>2022-06-02T08:59:28Z</time>
      </trkpt>
      <trkpt lat="47.73344" lon="4.99215">
        <ele>353.46</ele>
        <time>2022-06-02T08:59:30Z</time>
      </trkpt>
      <trkpt lat="47.73347" lon="4.99215">
        <ele>353.46</ele>
        <time>2022-06-02T08:59:32Z</time>
      </trkpt>
      <trkpt lat="47.7335" lon="4.99215">
        <ele>353.46</ele>
        <time>2022-06-02T08:59:34Z</time>
      </trkpt>
      <trkpt lat="47.73353" lon="4.99216">
        <ele>353.58</ele>
        <time>2022-06-02T08:59:36Z</time>
      </trkpt>
      <trkpt lat="47.73356" lon="4.99216">
        <ele>353.57</ele>
        <time>2022-06-02T08:59:40Z</time>
      </trkpt>
      <trkpt lat="47.73359" lon="4.99216">
        <ele>353.56</ele>
        <time>2022-06-02T08:59:43Z</time>
      </trkpt>
      <trkpt lat="47.73362" lon="4.99216">
        <ele>353.44</ele>
        <time>2022-06-02T08:59:45Z</time>
      </trkpt>
      <trkpt lat="47.73365" lon="4.99216">
        <ele>353.07</ele>
        <time>2022-06-02T08:59:46Z</time>
      </trkpt>
      <trkpt lat="47.73368" lon="4.99216">
        <ele>352.7</ele>
        <time>2022-06-02T08:59:48Z</time>
      </trkpt>
      <trkpt lat="47.73371" lon="4.99215">
        <ele>352.35</ele>
        <time>2022-06-02T08:59:50Z</time>
      </trkpt>
      <trkpt lat="47.73374" lon="4.99216">
        <ele>351.96</ele>
        <time>2022-06-02T08:59:54Z</time>
      </trkpt>
      <trkpt lat="47.73377" lon="4.99216">
        <ele>351.59</ele>
        <time>2022-06-02T08:59:56Z</time>
      </trkpt>
      <trkpt lat="47.73381" lon="4.99217">
        <ele>350.99</ele>
        <time>2022-06-02T08:59:57Z</time>
      </trkpt>
      <trkpt lat="47.73384" lon="4.99218">
        <ele>350.45</ele>
        <time>2022-06-02T09:00:00Z</time>
      </trkpt>
      <trkpt lat="47.73387" lon="4.99219">
        <ele>349.86</ele>
        <time>2022-06-02T09:00:03Z</time>
      </trkpt>
      <trkpt lat="47.73389" lon="4.9922">
        <ele>349.43</ele>
        <time>2022-06-02T09:00:03Z</time>
      </trkpt>
      <trkpt lat="47.73392" lon="4.99221">
        <ele>350.05</ele>
        <time>2022-06-02T09:00:05Z</time>
      </trkpt>
      <trkpt lat="47.73395" lon="4.99223">
        <ele>350.88</ele>
        <time>2022-06-02T09:00:08Z</time>
      </trkpt>
      <trkpt lat="47.73398" lon="4.99224">
        <ele>351.86</ele>
        <time>2022-06-02T09:00:10Z</time>
      </trkpt>
      <trkpt lat="47.73401" lon="4.99225">
        <ele>352.78</ele>
        <time>2022-06-02T09:00:13Z</time>
      </trkpt>
      <trkpt lat="47.73404" lon="4.99225">
        <ele>353.57</ele>
        <time>2022-06-02T09:00:15Z</time>
      </trkpt>
      <trkpt lat="47.73407" lon="4.99226">
        <ele>354.41</ele>
        <time>2022-06-02T09:00:17Z</time>
      </trkpt>
      <trkpt lat="47.73411" lon="4.99227">
        <ele>355.44</ele>
        <time>2022-06-02T09:00:21Z</time>
      </trkpt>
      <trkpt lat="47.73414" lon="4.99228">
        <ele>356.16</ele>
        <time>2022-06-02T09:00:22Z</time>
      </trkpt>
      <trkpt lat="47.73417" lon="4.99229">
        <ele>356.76</ele>
        <time>2022-06-02T09:00:24Z</time>
      </trkpt>
      <trkpt lat="47.7342" lon="4.9923">
        <ele>356.8</ele>
        <time>2022-06-02T09:00:27Z</time>
      </trkpt>
      <trkpt lat="47.73423" lon="4.99231">
        <ele>356.89</ele>
        <time>2022-06-02T09:00:30Z</time>
      </trkpt>
      <trkpt lat="47.73427" lon="4.99231">
        <ele>357.02</ele>
        <time>2022-06-02T09:00:34Z</time>
      </trkpt>
      <trkpt lat="47.7343" lon="4.99232">
        <ele>357.18</ele>
        <time>2022-06-02T09:00:36Z</time>
      </trkpt>
      <trkpt lat="47.73433" lon="4.99233">
        <ele>357.39</ele>
        <time>2022-06-02T09:00:38Z</time>
      </trkpt>
      <trkpt lat="47.73436" lon="4.99235">
        <ele>357.76</ele>
        <time>2022-06-02T09:00:40Z</time>
      </trkpt>
      <trkpt lat="47.73439" lon="4.99237">
        <ele>358.23</ele>
        <time>2022-06-02T09:00:42Z</time>
      </trkpt>
      <trkpt lat="47.73442" lon="4.99238">
        <ele>358.63</ele>
        <time>2022-06-02T09:00:46Z</time>
      </trkpt>
      <trkpt lat="47.73446" lon="4.99239">
        <ele>358.86</ele>
        <time>2022-06-02T09:00:47Z</time>
      </trkpt>
      <trkpt lat="47.73448" lon="4.9924">
        <ele>358.83</ele>
        <time>2022-06-02T09:00:49Z</time>
      </trkpt>
      <trkpt lat="47.73452" lon="4.9924">
        <ele>358.41</ele>
        <time>2022-06-02T09:00:50Z</time>
      </trkpt>
      <trkpt lat="47.73455" lon="4.9924">
        <ele>358.09</ele>
        <time>2022-06-02T09:00:54Z</time>
      </trkpt>
      <trkpt lat="47.73458" lon="4.9924">
        <ele>357.78</ele>
        <time>2022-06-02T09:00:56Z</time>
      </trkpt>
      <trkpt lat="47.73462" lon="4.99241">
        <ele>357.47</ele>
        <time>2022-06-02T09:00:57Z</time>
      </trkpt>
      <trkpt lat="47.73466" lon="4.99242">
        <ele>357.13</ele>
        <time>2022-06-02T09:01:00Z</time>
      </trkpt>
      <trkpt lat="47.73469" lon="4.99243">
        <ele>356.87</ele>
        <time>2022-06-02T09:01:02Z</time>
      </trkpt>
      <trkpt lat="47.73472" lon="4.99244">
        <ele>356.59</ele>
        <time>2022-06-02T09:01:04Z</time>
      </trkpt>
      <trkpt lat="47.73475" lon="4.99244">
        <ele>356.37</ele>
        <time>2022-06-02T09:01:07Z</time>
      </trkpt>
      <trkpt lat="47.73478" lon="4.99244">
        <ele>356.15</ele>
        <time>2022-06-02T09:01:09Z</time>
      </trkpt>
      <trkpt lat="47.73481" lon="4.99244">
        <ele>355.94</ele>
        <time>2022-06-02T09:01:11Z</time>
      </trkpt>
      <trkpt lat="47.73485" lon="4.99243">
        <ele>355.58</ele>
        <time>2022-06-02T09:01:15Z</time>
      </trkpt>
      <trkpt lat="47.73488" lon="4.99244">
        <ele>355.43</ele>
        <time>2022-06-02T09:01:17Z</time>
      </trkpt>
      <trkpt lat="47.73491" lon="4.99245">
        <ele>355.29</ele>
        <time>2022-06-02T09:01:18Z</time>
      </trkpt>
      <trkpt lat="47.73494" lon="4.99245">
        <ele>355.07</ele>
        <time>2022-06-02T09:01:20Z</time>
      </trkpt>
      <trkpt lat="47.73497" lon="4.99245">
        <ele>354.86</ele>
        <time>2022-06-02T09:01:23Z</time>
      </trkpt>
      <trkpt lat="47.73499" lon="4.99245">
        <ele>354.71</ele>
        <time>2022-06-02T09:01:24Z</time>
      </trkpt>
      <trkpt lat="47.73502" lon="4.99246">
        <ele>354.46</ele>
        <time>2022-06-02T09:01:26Z</time>
      </trkpt>
      <trkpt lat="47.73506" lon="4.99247">
        <ele>353.99</ele>
        <time>2022-06-02T09:01:29Z</time>
      </trkpt>
      <trkpt lat="47.73509" lon="4.99248">
        <ele>353.63</ele>
        <time>2022-06-02T09:01:31Z</time>
      </trkpt>
      <trkpt lat="47.73512" lon="4.99248">
        <ele>353.22</ele>
        <time>2022-06-02T09:01:36Z</time>
      </trkpt>
      <trkpt lat="47.73515" lon="4.99248">
        <ele>352.81</ele>
        <time>2022-06-02T09:01:39Z</time>
      </trkpt>
      <trkpt lat="47.73519" lon="4.99247">
        <ele>352.27</ele>
        <time>2022-06-02T09:01:40Z</time>
      </trkpt>
      <trkpt lat="47.73522" lon="4.99247">
        <ele>351.87</ele>
        <time>2022-06-02T09:01:42Z</time>
      </trkpt>
      <trkpt lat="47.73525" lon="4.99247">
        <ele>351.48</ele>
        <time>2022-06-02T09:01:46Z</time>
      </trkpt>
      <trkpt lat="47.73529" lon="4.99246">
        <ele>351.41</ele>
        <time>2022-06-02T09:01:47Z</time>
      </trkpt>
      <trkpt lat="47.73532" lon="4.99246">
        <ele>352.05</ele>
        <time>2022-06-02T09:01:49Z</time>
      </trkpt>
      <trkpt lat="47.73535" lon="4.99246">
        <ele>352.7</ele>
        <time>2022-06-02T09:01:51Z</time>
      </trkpt>
      <trkpt lat="47.73538" lon="4.99246">
        <ele>353.35</ele>
        <time>2022-06-02T09:01:53Z</time>
      </trkpt>
      <trkpt lat="47.7354" lon="4.99246">
        <ele>353.78</ele>
        <time>2022-06-02T09:01:55Z</time>
      </trkpt>
      <trkpt lat="47.73544" lon="4.99246">
        <ele>354.64</ele>
        <time>2022-06-02T09:01:59Z</time>
      </trkpt>
      <trkpt lat="47.73547" lon="4.99246">
        <ele>355.29</ele>
        <time>2022-06-02T09:01:59Z</time>
      </trkpt>
      <trkpt lat="47.7355" lon="4.99246">
        <ele>355.94</ele>
        <time>2022-06-02T09:02:02Z</time>
      </trkpt>
      <trkpt lat="47.73553" lon="4.99245">
        <ele>356.39</ele>
        <time>2022-06-02T09:02:04Z</time>
      </trkpt>
      <trkpt lat="47.73556" lon="4.99245">
        <ele>356.98</ele>
        <time>2022-06-02T09:02:06Z</time>
      </trkpt>
      <trkpt lat="47.73559" lon="4.99245">
        <ele>357.42</ele>
        <time>2022-06-02T09:02:08Z</time>
      </trkpt>
      <trkpt lat="47.73562" lon="4.99245">
        <ele>357.85</ele>
        <time>2022-06-02T09:02:10Z</time>
      </trkpt>
      <trkpt lat="47.73565" lon="4.99245">
        <ele>358.28</ele>
        <time>2022-06-02T09:02:12Z</time>
      </trkpt>
      <trkpt lat="47.73569" lon="4.99245">
        <ele>358.86</ele>
        <time>2022-06-02T09:02:14Z</time>
      </trkpt>
      <trkpt lat="47.73572" lon="4.99246">
        <ele>359.5</ele>
        <time>2022-06-02T09:02:15Z</time>
      </trkpt>
      <trkpt lat="47.73575" lon="4.99246">
        <ele>359.94</ele>
        <time>2022-06-02T09:02:18Z</time>
      </trkpt>
      <trkpt lat="47.73578" lon="4.99246">
        <ele>360.37</ele>
        <time>2022-06-02T09:02:20Z</time>
      </trkpt>
      <trkpt lat="47.73581" lon="4.99246">
        <ele>360.8</ele>
        <time>2022-06-02T09:02:23Z</time>
      </trkpt>
      <trkpt lat="47.73584" lon="4.99247">
        <ele>361.41</ele>
        <time>2022-06-02T09:02:25Z</time>
      </trkpt>
      <trkpt lat="47.73588" lon="4.99247">
        <ele>361.75</ele>
        <time>2022-06-02T09:02:27Z</time>
      </trkpt>
      <trkpt lat="47.73591" lon="4.99247">
        <ele>362</ele>
        <time>2022-06-02T09:02:29Z</time>
      </trkpt>
      <trkpt lat="47.73595" lon="4.99246">
        <ele>362.03</ele>
        <time>2022-06-02T09:02:32Z</time>
      </trkpt>
      <trkpt lat="47.73598" lon="4.99245">
        <ele>361.93</ele>
        <time>2022-06-02T09:02:36Z</time>
      </trkpt>
      <trkpt lat="47.73601" lon="4.99245">
        <ele>362.14</ele>
        <time>2022-06-02T09:02:38Z</time>
      </trkpt>
      <trkpt lat="47.73605" lon="4.99245">
        <ele>362.42</ele>
        <time>2022-06-02T09:02:39Z</time>
      </trkpt>
      <trkpt lat="47.73608" lon="4.99244">
        <ele>362.22</ele>
        <time>2022-06-02T09:02:43Z</time>
      </trkpt>
      <trkpt lat="47.73611" lon="4.99242">
        <ele>361.54</ele>
        <time>2022-06-02T09:02:44Z</time>
      </trkpt>
      <trkpt lat="47.73614" lon="4.99241">
        <ele>360.69</ele>
        <time>2022-06-02T09:02:46Z</time>
      </trkpt>
      <trkpt lat="47.73617" lon="4.9924">
        <ele>359.87</ele>
        <time>2022-06-02T09:02:48Z</time>
      </trkpt>
      <trkpt lat="47.7362" lon="4.99238">
        <ele>358.73</ele>
        <time>2022-06-02T09:02:50Z</time>
      </trkpt>
      <trkpt lat="47.73623" lon="4.99237">
        <ele>358.02</ele>
        <time>2022-06-02T09:02:53Z</time>
      </trkpt>
      <trkpt lat="47.73627" lon="4.99235">
        <ele>356.94</ele>
        <time>2022-06-02T09:02:58Z</time>
      </trkpt>
      <trkpt lat="47.7363" lon="4.99234">
        <ele>356.36</ele>
        <time>2022-06-02T09:03:00Z</time>
      </trkpt>
      <trkpt lat="47.73633" lon="4.99233">
        <ele>355.82</ele>
        <time>2022-06-02T09:03:01Z</time>
      </trkpt>
      <trkpt lat="47.73635" lon="4.99231">
        <ele>355.16</ele>
        <time>2022-06-02T09:03:04Z</time>
      </trkpt>
      <trkpt lat="47.73638" lon="4.9923">
        <ele>354.73</ele>
        <time>2022-06-02T09:03:05Z</time>
      </trkpt>
      <trkpt lat="47.73641" lon="4.99229">
        <ele>354.45</ele>
        <time>2022-06-02T09:03:09Z</time>
      </trkpt>
      <trkpt lat="47.73645" lon="4.99227">
        <ele>354.06</ele>
        <time>2022-06-02T09:03:10Z</time>
      </trkpt>
      <trkpt lat="47.73647" lon="4.99226">
        <ele>353.91</ele>
        <time>2022-06-02T09:03:14Z</time>
      </trkpt>
      <trkpt lat="47.7365" lon="4.99224">
        <ele>353.66</ele>
        <time>2022-06-02T09:03:16Z</time>
      </trkpt>
      <trkpt lat="47.73653" lon="4.99222">
        <ele>353.5</ele>
        <time>2022-06-02T09:03:17Z</time>
      </trkpt>
      <trkpt lat="47.73655" lon="4.9922">
        <ele>353.47</ele>
        <time>2022-06-02T09:03:20Z</time>
      </trkpt>
      <trkpt lat="47.73659" lon="4.99218">
        <ele>353.53</ele>
        <time>2022-06-02T09:03:22Z</time>
      </trkpt>
      <trkpt lat="47.73662" lon="4.99216">
        <ele>353.57</ele>
        <time>2022-06-02T09:03:25Z</time>
      </trkpt>
      <trkpt lat="47.73664" lon="4.99214">
        <ele>353.58</ele>
        <time>2022-06-02T09:03:26Z</time>
      </trkpt>
      <trkpt lat="47.73668" lon="4.99212">
        <ele>353.83</ele>
        <time>2022-06-02T09:03:30Z</time>
      </trkpt>
      <trkpt lat="47.73671" lon="4.9921">
        <ele>354.23</ele>
        <time>2022-06-02T09:03:31Z</time>
      </trkpt>
      <trkpt lat="47.73674" lon="4.99208">
        <ele>354.69</ele>
        <time>2022-06-02T09:03:34Z</time>
      </trkpt>
      <trkpt lat="47.73676" lon="4.99206">
        <ele>355.01</ele>
        <time>2022-06-02T09:03:37Z</time>
      </trkpt>
      <trkpt lat="47.73679" lon="4.99204">
        <ele>355.55</ele>
        <time>2022-06-02T09:03:39Z</time>
      </trkpt>
      <trkpt lat="47.73683" lon="4.99203">
        <ele>356.29</ele>
        <time>2022-06-02T09:03:43Z</time>
      </trkpt>
      <trkpt lat="47.73686" lon="4.99201">
        <ele>356.92</ele>
        <time>2022-06-02T09:03:44Z</time>
      </trkpt>
      <trkpt lat="47.73689" lon="4.992">
        <ele>357.54</ele>
        <time>2022-06-02T09:03:47Z</time>
      </trkpt>
      <trkpt lat="47.73692" lon="4.99198">
        <ele>358.25</ele>
        <time>2022-06-02T09:03:49Z</time>
      </trkpt>
      <trkpt lat="47.73695" lon="4.99197">
        <ele>358.83</ele>
        <time>2022-06-02T09:03:51Z</time>
      </trkpt>
      <trkpt lat="47.73698" lon="4.99196">
        <ele>359</ele>
        <time>2022-06-02T09:03:53Z</time>
      </trkpt>
      <trkpt lat="47.73701" lon="4.99194">
        <ele>359.28</ele>
        <time>2022-06-02T09:03:55Z</time>
      </trkpt>
      <trkpt lat="47.73704" lon="4.99193">
        <ele>359.52</ele>
        <time>2022-06-02T09:03:57Z</time>
      </trkpt>
      <trkpt lat="47.73706" lon="4.99192">
        <ele>359.74</ele>
        <time>2022-06-02T09:04:01Z</time>
      </trkpt>
      <trkpt lat="47.73709" lon="4.99191">
        <ele>360.03</ele>
        <time>2022-06-02T09:04:02Z</time>
      </trkpt>
      <trkpt lat="47.73712" lon="4.9919">
        <ele>360.36</ele>
        <time>2022-06-02T09:04:04Z</time>
      </trkpt>
      <trkpt lat="47.73715" lon="4.99188">
        <ele>360.89</ele>
        <time>2022-06-02T09:04:08Z</time>
      </trkpt>
      <trkpt lat="47.73719" lon="4.99187">
        <ele>361.37</ele>
        <time>2022-06-02T09:04:10Z</time>
      </trkpt>
      <trkpt lat="47.73721" lon="4.99186">
        <ele>361.73</ele>
        <time>2022-06-02T09:04:11Z</time>
      </trkpt>
      <trkpt lat="47.73724" lon="4.99186">
        <ele>361.73</ele>
        <time>2022-06-02T09:04:14Z</time>
      </trkpt>
      <trkpt lat="47.73727" lon="4.99186">
        <ele>361.56</ele>
        <time>2022-06-02T09:04:15Z</time>
      </trkpt>
      <trkpt lat="47.73731" lon="4.99186">
        <ele>361.34</ele>
        <time>2022-06-02T09:04:19Z</time>
      </trkpt>
      <trkpt lat="47.73734" lon="4.99185">
        <ele>361.32</ele>
        <time>2022-06-02T09:04:21Z</time>
      </trkpt>
      <trkpt lat="47.73737" lon="4.99184">
        <ele>361.26</ele>
        <time>2022-06-02T09:04:22Z</time>
      </trkpt>
      <trkpt lat="47.7374" lon="4.99183">
        <ele>361.15</ele>
        <time>2022-06-02T09:04:25Z</time>
      </trkpt>
      <trkpt lat="47.73743" lon="4.99183">
        <ele>360.93</ele>
        <time>2022-06-02T09:04:27Z</time>
      </trkpt>
      <trkpt lat="47.73746" lon="4.99184">
        <ele>360.65</ele>
        <time>2022-06-02T09:04:30Z</time>
      </trkpt>
      <trkpt lat="47.73749" lon="4.99184">
        <ele>360.44</ele>
        <time>2022-06-02T09:04:32Z</time>
      </trkpt>
      <trkpt lat="47.73752" lon="4.99184">
        <ele>360.2</ele>
        <time>2022-06-02T09:04:36Z</time>
      </trkpt>
      <trkpt lat="47.73755" lon="4.99184">
        <ele>359.93</ele>
        <time>2022-06-02T09:04:38Z</time>
      </trkpt>
      <trkpt lat="47.73758" lon="4.99183">
        <ele>359.65</ele>
        <time>2022-06-02T09:04:40Z</time>
      </trkpt>
      <trkpt lat="47.73761" lon="4.99183">
        <ele>359.36</ele>
        <time>2022-06-02T09:04:43Z</time>
      </trkpt>
      <trkpt lat="47.73765" lon="4.99182">
        <ele>358.94</ele>
        <time>2022-06-02T09:04:46Z</time>
      </trkpt>
      <trkpt lat="47.73769" lon="4.99181">
        <ele>358.48</ele>
        <time>2022-06-02T09:04:48Z</time>
      </trkpt>
      <trkpt lat="47.73772" lon="4.99181">
        <ele>358.16</ele>
        <time>2022-06-02T09:04:51Z</time>
      </trkpt>
      <trkpt lat="47.73775" lon="4.99181">
        <ele>357.84</ele>
        <time>2022-06-02T09:04:52Z</time>
      </trkpt>
      <trkpt lat="47.73777" lon="4.9918">
        <ele>357.53</ele>
        <time>2022-06-02T09:04:54Z</time>
      </trkpt>
      <trkpt lat="47.73781" lon="4.9918">
        <ele>358.44</ele>
        <time>2022-06-02T09:04:56Z</time>
      </trkpt>
      <trkpt lat="47.73784" lon="4.99181">
        <ele>359.43</ele>
        <time>2022-06-02T09:04:58Z</time>
      </trkpt>
      <trkpt lat="47.73787" lon="4.99181">
        <ele>360.34</ele>
        <time>2022-06-02T09:05:00Z</time>
      </trkpt>
      <trkpt lat="47.7379" lon="4.99181">
        <ele>361.25</ele>
        <time>2022-06-02T09:05:03Z</time>
      </trkpt>
      <trkpt lat="47.73793" lon="4.99181">
        <ele>362.16</ele>
        <time>2022-06-02T09:05:06Z</time>
      </trkpt>
      <trkpt lat="47.73796" lon="4.9918">
        <ele>363.08</ele>
        <time>2022-06-02T09:05:08Z</time>
      </trkpt>
      <trkpt lat="47.73799" lon="4.9918">
        <ele>364.01</ele>
        <time>2022-06-02T09:05:10Z</time>
      </trkpt>
      <trkpt lat="47.73802" lon="4.99181">
        <ele>364.89</ele>
        <time>2022-06-02T09:05:13Z</time>
      </trkpt>
      <trkpt lat="47.73805" lon="4.99182">
        <ele>365.73</ele>
        <time>2022-06-02T09:05:15Z</time>
      </trkpt>
      <trkpt lat="47.73808" lon="4.99183">
        <ele>366.19</ele>
        <time>2022-06-02T09:05:17Z</time>
      </trkpt>
      <trkpt lat="47.73811" lon="4.99183">
        <ele>366.64</ele>
        <time>2022-06-02T09:05:22Z</time>
      </trkpt>
      <trkpt lat="47.73814" lon="4.99183">
        <ele>367.09</ele>
        <time>2022-06-02T09:05:23Z</time>
      </trkpt>
      <trkpt lat="47.73817" lon="4.99182">
        <ele>367.59</ele>
        <time>2022-06-02T09:05:27Z</time>
      </trkpt>
      <trkpt lat="47.7382" lon="4.99181">
        <ele>368.06</ele>
        <time>2022-06-02T09:05:28Z</time>
      </trkpt>
      <trkpt lat="47.73823" lon="4.99181">
        <ele>368.5</ele>
        <time>2022-06-02T09:05:30Z</time>
      </trkpt>
      <trkpt lat="47.73826" lon="4.99181">
        <ele>368.94</ele>
        <time>2022-06-02T09:05:34Z</time>
      </trkpt>
      <trkpt lat="47.73829" lon="4.99181">
        <ele>369.37</ele>
        <time>2022-06-02T09:05:35Z</time>
      </trkpt>
      <trkpt lat="47.73831" lon="4.99181">
        <ele>369.66</ele>
        <time>2022-06-02T09:05:37Z</time>
      </trkpt>
      <trkpt lat="47.73835" lon="4.99181">
        <ele>370.03</ele>
        <time>2022-06-02T09:05:40Z</time>
      </trkpt>
      <trkpt lat="47.73838" lon="4.99181">
        <ele>370.09</ele>
        <time>2022-06-02T09:05:42Z</time>
      </trkpt>
      <trkpt lat="47.73841" lon="4.99182">
        <ele>370.15</ele>
        <time>2022-06-02T09:05:46Z</time>
      </trkpt>
      <trkpt lat="47.73844" lon="4.99183">
        <ele>370.23</ele>
        <time>2022-06-02T09:05:47Z</time>
      </trkpt>
      <trkpt lat="47.73847" lon="4.99186">
        <ele>370.34</ele>
        <time>2022-06-02T09:05:52Z</time>
      </trkpt>
      <trkpt lat="47.73849" lon="4.99187">
        <ele>370.41</ele>
        <time>2022-06-02T09:05:55Z</time>
      </trkpt>
      <trkpt lat="47.73851" lon="4.99191">
        <ele>370.56</ele>
        <time>2022-06-02T09:05:59Z</time>
      </trkpt>
      <trkpt lat="47.73852" lon="4.99195">
        <ele>370.64</ele>
        <time>2022-06-02T09:06:02Z</time>
      </trkpt>
      <trkpt lat="47.73853" lon="4.99199">
        <ele>370.45</ele>
        <time>2022-06-02T09:06:05Z</time>
      </trkpt>
      <trkpt lat="47.73854" lon="4.99203">
        <ele>370.28</ele>
        <time>2022-06-02T09:06:07Z</time>
      </trkpt>
      <trkpt lat="47.73856" lon="4.99207">
        <ele>370.2</ele>
        <time>2022-06-02T09:06:09Z</time>
      </trkpt>
      <trkpt lat="47.73857" lon="4.99212">
        <ele>370.03</ele>
        <time>2022-06-02T09:06:13Z</time>
      </trkpt>
      <trkpt lat="47.73858" lon="4.99216">
        <ele>369.94</ele>
        <time>2022-06-02T09:06:14Z</time>
      </trkpt>
      <trkpt lat="47.7386" lon="4.9922">
        <ele>369.97</ele>
        <time>2022-06-02T09:06:17Z</time>
      </trkpt>
      <trkpt lat="47.73861" lon="4.99224">
        <ele>369.92</ele>
        <time>2022-06-02T09:06:19Z</time>
      </trkpt>
      <trkpt lat="47.73863" lon="4.99228">
        <ele>369.76</ele>
        <time>2022-06-02T09:06:21Z</time>
      </trkpt>
      <trkpt lat="47.73864" lon="4.99232">
        <ele>369.57</ele>
        <time>2022-06-02T09:06:25Z</time>
      </trkpt>
      <trkpt lat="47.73865" lon="4.99236">
        <ele>369.37</ele>
        <time>2022-06-02T09:06:26Z</time>
      </trkpt>
      <trkpt lat="47.73866" lon="4.9924">
        <ele>369.13</ele>
        <time>2022-06-02T09:06:28Z</time>
      </trkpt>
      <trkpt lat="47.73868" lon="4.99245">
        <ele>368.77</ele>
        <time>2022-06-02T09:06:32Z</time>
      </trkpt>
      <trkpt lat="47.73869" lon="4.99249">
        <ele>368.49</ele>
        <time>2022-06-02T09:06:32Z</time>
      </trkpt>
      <trkpt lat="47.73871" lon="4.99254">
        <ele>368.43</ele>
        <time>2022-06-02T09:06:35Z</time>
      </trkpt>
      <trkpt lat="47.73872" lon="4.99259">
        <ele>368.54</ele>
        <time>2022-06-02T09:06:37Z</time>
      </trkpt>
      <trkpt lat="47.73873" lon="4.99263">
        <ele>368.61</ele>
        <time>2022-06-02T09:06:41Z</time>
      </trkpt>
      <trkpt lat="47.73874" lon="4.99268">
        <ele>368.72</ele>
        <time>2022-06-02T09:06:43Z</time>
      </trkpt>
      <trkpt lat="47.73876" lon="4.99272">
        <ele>368.72</ele>
        <time>2022-06-02T09:06:44Z</time>
      </trkpt>
      <trkpt lat="47.73877" lon="4.99277">
        <ele>368.83</ele>
        <time>2022-06-02T09:06:49Z</time>
      </trkpt>
      <trkpt lat="47.73878" lon="4.9928">
        <ele>368.78</ele>
        <time>2022-06-02T09:06:52Z</time>
      </trkpt>
      <trkpt lat="47.73879" lon="4.99284">
        <ele>368.71</ele>
        <time>2022-06-02T09:06:55Z</time>
      </trkpt>
      <trkpt lat="47.7388" lon="4.99287">
        <ele>368.64</ele>
        <time>2022-06-02T09:06:57Z</time>
      </trkpt>
      <trkpt lat="47.73882" lon="4.99292">
        <ele>368.5</ele>
        <time>2022-06-02T09:06:59Z</time>
      </trkpt>
      <trkpt lat="47.73883" lon="4.99295">
        <ele>368.42</ele>
        <time>2022-06-02T09:07:00Z</time>
      </trkpt>
      <trkpt lat="47.73884" lon="4.99299">
        <ele>368.35</ele>
        <time>2022-06-02T09:07:02Z</time>
      </trkpt>
      <trkpt lat="47.73885" lon="4.99303">
        <ele>368.28</ele>
        <time>2022-06-02T09:07:04Z</time>
      </trkpt>
      <trkpt lat="47.73886" lon="4.99307">
        <ele>368.16</ele>
        <time>2022-06-02T09:07:07Z</time>
      </trkpt>
      <trkpt lat="47.73887" lon="4.99311">
        <ele>367.95</ele>
        <time>2022-06-02T09:07:08Z</time>
      </trkpt>
      <trkpt lat="47.73888" lon="4.99316">
        <ele>367.7</ele>
        <time>2022-06-02T09:07:09Z</time>
      </trkpt>
      <trkpt lat="47.73888" lon="4.9932">
        <ele>367.56</ele>
        <time>2022-06-02T09:07:11Z</time>
      </trkpt>
      <trkpt lat="47.73889" lon="4.99325">
        <ele>367.3</ele>
        <time>2022-06-02T09:07:12Z</time>
      </trkpt>
      <trkpt lat="47.73889" lon="4.9933">
        <ele>367.12</ele>
        <time>2022-06-02T09:07:15Z</time>
      </trkpt>
      <trkpt lat="47.73886" lon="4.99332">
        <ele>367.36</ele>
        <time>2022-06-02T09:07:18Z</time>
      </trkpt>
      <trkpt lat="47.73887" lon="4.99336">
        <ele>367.2</ele>
        <time>2022-06-02T09:08:36Z</time>
      </trkpt>
      <trkpt lat="47.73889" lon="4.99338">
        <ele>367</ele>
        <time>2022-06-02T09:08:38Z</time>
      </trkpt>
      <trkpt lat="47.73892" lon="4.99339">
        <ele>366.98</ele>
        <time>2022-06-02T09:08:43Z</time>
      </trkpt>
      <trkpt lat="47.73895" lon="4.9934">
        <ele>366.95</ele>
        <time>2022-06-02T09:08:45Z</time>
      </trkpt>
      <trkpt lat="47.73898" lon="4.99345">
        <ele>366.86</ele>
        <time>2022-06-02T09:08:48Z</time>
      </trkpt>
      <trkpt lat="47.73901" lon="4.99348">
        <ele>366.77</ele>
        <time>2022-06-02T09:08:53Z</time>
      </trkpt>
      <trkpt lat="47.73903" lon="4.99352">
        <ele>366.66</ele>
        <time>2022-06-02T09:08:56Z</time>
      </trkpt>
      <trkpt lat="47.73904" lon="4.99356">
        <ele>366.56</ele>
        <time>2022-06-02T09:08:58Z</time>
      </trkpt>
      <trkpt lat="47.73905" lon="4.9936">
        <ele>366.44</ele>
        <time>2022-06-02T09:09:00Z</time>
      </trkpt>
      <trkpt lat="47.73906" lon="4.99364">
        <ele>366.59</ele>
        <time>2022-06-02T09:09:03Z</time>
      </trkpt>
      <trkpt lat="47.73907" lon="4.99368">
        <ele>366.84</ele>
        <time>2022-06-02T09:09:05Z</time>
      </trkpt>
      <trkpt lat="47.7391" lon="4.99371">
        <ele>366.95</ele>
        <time>2022-06-02T09:09:07Z</time>
      </trkpt>
      <trkpt lat="47.73914" lon="4.99371">
        <ele>366.81</ele>
        <time>2022-06-02T09:09:10Z</time>
      </trkpt>
      <trkpt lat="47.73917" lon="4.9937">
        <ele>366.6</ele>
        <time>2022-06-02T09:09:13Z</time>
      </trkpt>
      <trkpt lat="47.7392" lon="4.9937">
        <ele>366.28</ele>
        <time>2022-06-02T09:09:14Z</time>
      </trkpt>
      <trkpt lat="47.73923" lon="4.99372">
        <ele>366.1</ele>
        <time>2022-06-02T09:09:19Z</time>
      </trkpt>
      <trkpt lat="47.73926" lon="4.99371">
        <ele>365.7</ele>
        <time>2022-06-02T09:09:26Z</time>
      </trkpt>
      <trkpt lat="47.73928" lon="4.99367">
        <ele>365.2</ele>
        <time>2022-06-02T09:09:28Z</time>
      </trkpt>
      <trkpt lat="47.7393" lon="4.99364">
        <ele>364.77</ele>
        <time>2022-06-02T09:09:30Z</time>
      </trkpt>
      <trkpt lat="47.73932" lon="4.99361">
        <ele>364.35</ele>
        <time>2022-06-02T09:09:35Z</time>
      </trkpt>
      <trkpt lat="47.73934" lon="4.99357">
        <ele>364.28</ele>
        <time>2022-06-02T09:09:37Z</time>
      </trkpt>
      <trkpt lat="47.73936" lon="4.99353">
        <ele>364.2</ele>
        <time>2022-06-02T09:09:38Z</time>
      </trkpt>
      <trkpt lat="47.73938" lon="4.9935">
        <ele>364.1</ele>
        <time>2022-06-02T09:09:40Z</time>
      </trkpt>
      <trkpt lat="47.7394" lon="4.99346">
        <ele>364.02</ele>
        <time>2022-06-02T09:09:42Z</time>
      </trkpt>
      <trkpt lat="47.73941" lon="4.99342">
        <ele>364.06</ele>
        <time>2022-06-02T09:09:44Z</time>
      </trkpt>
      <trkpt lat="47.73942" lon="4.99338">
        <ele>364.1</ele>
        <time>2022-06-02T09:09:47Z</time>
      </trkpt>
      <trkpt lat="47.73944" lon="4.99334">
        <ele>364.02</ele>
        <time>2022-06-02T09:09:49Z</time>
      </trkpt>
      <trkpt lat="47.73946" lon="4.99332">
        <ele>364.05</ele>
        <time>2022-06-02T09:09:54Z</time>
      </trkpt>
      <trkpt lat="47.73949" lon="4.9933">
        <ele>364.12</ele>
        <time>2022-06-02T09:09:55Z</time>
      </trkpt>
      <trkpt lat="47.73952" lon="4.9933">
        <ele>364.12</ele>
        <time>2022-06-02T09:10:03Z</time>
      </trkpt>
    </trkseg>
  </trk>
</gpx>